[[{"header":{"parameterUnit":"m.s-1","parameterCategory":1,"la1":30.6,"la2":28.766,"lo1":-90.7593,"lo2":-88.6598,"dy":0.0162,"dx":0.0183,"nx":116,"ny":114,"refTime":"2024-06-11T00:00:00:Z","depth":0,"parameterNumber":2,"parameterNumberName":"U-component_of_WINDS"},"data":[0.0,0.0,0.0,0.0,0.0,0.0,0.0,0.0,0.0,0.0,0.0,0.0,0.0,0.0,0.0,0.0,0.0,0.0,0.0,0.0,0.0,0.0,0.0,0.0,0.0,0.0,0.0,0.0,0.0,0.0,0.0,0.0,0.0,0.0,0.0,0.0,0.0,0.0,0.0,0.0,0.0,0.0,0.0,0.0,0.0,0.0,0.0,0.0,0.0,0.0,0.0,0.0,0.0,0.0,0.0,0.0,0.0,0.0,0.0,0.0,0.0,0.0,0.0,0.0,0.0,0.0,0.0,0.0,0.0,0.0,0.0,0.0,0.0,0.0,0.0,0.0,0.0,0.0,0.0,0.0,0.0,0.0,0.0,0.0,0.0,0.0,0.0,0.0,0.0,0.0,0.0,0.0,0.0,0.0,0.0,0.0,0.0,0.0,0.0,0.0,0.0,0.0,0.0,0.0,0.0,0.0,0.0,0.0,0.0,0.0,0.0,0.0,0.0,0.0,0.0,0.0,0.0,0.0,0.0,0.0,0.0,0.0,0.0,0.0,0.0,0.0,0.0,0.0,0.0,0.0,0.0,0.0,0.0,0.0,0.0,0.0,0.0,0.0,0.0,0.0,0.0,0.0,0.0,0.0,0.0,0.0,0.0,0.0,0.0,0.0,0.0,0.0,0.0,0.0,0.0,0.0,0.0,0.0,0.0,0.0,0.0,0.0,0.0,0.0,0.0,0.0,0.0,0.0,0.0,0.0,0.0,0.0,0.0,0.0,0.0,0.0,0.0,0.0,0.0,0.0,0.0,0.0,0.0,0.0,0.0,0.0,0.0,0.0,0.0,0.0,0.0,0.0,0.0,0.0,0.0,0.0,0.0,0.0,0.0,0.0,0.0,0.0,0.0,0.0,0.0,0.0,0.0,0.0,0.0,0.0,0.0,0.0,0.0,0.0,0.0,0.0,0.0,0.0,0.0,0.0,0.0,0.0,0.0,0.0,0.0,0.0,0.0,0.0,0.0,0.0,0.0,0.0,0.0,0.0,0.0,0.0,0.0,0.0,0.0,0.0,0.0,0.0,0.0,0.0,0.0,0.0,0.0,0.0,0.0,0.0,0.0,0.0,0.0,0.0,0.0,0.0,0.0,0.0,0.0,0.0,0.0,0.0,0.0,0.0,0.0,0.0,0.0,0.0,0.0,0.0,0.0,0.0,0.0,0.0,0.0,0.0,0.0,0.0,0.0,0.0,0.0,0.0,0.0,0.0,0.0,0.0,0.0,0.0,0.0,0.0,0.0,0.0,0.0,0.0,0.0,0.0,0.0,0.0,0.0,0.0,0.0,0.0,0.0,0.0,0.0,0.0,0.0,0.0,0.0,0.0,0.0,0.0,0.0,0.0,0.0,0.0,0.0,0.0,0.0,0.0,0.0,0.0,0.0,0.0,0.0,0.0,0.0,0.0,0.0,0.0,0.0,0.0,0.0,0.0,0.0,0.0,0.0,0.0,0.0,0.0,0.0,0.0,0.0,0.0,0.0,0.0,0.0,0.0,0.0,0.0,0.0,0.0,0.0,0.0,0.0,0.0,0.0,0.0,0.0,0.0,0.0,0.0,0.0,0.0,0.0,0.0,0.0,0.0,0.0,0.0,0.0,0.0,0.0,0.0,0.0,0.0,0.0,0.0,0.0,0.0,0.0,0.0,0.0,0.0,0.0,0.0,0.0,0.0,0.0,0.0,0.0,0.0,0.0,0.0,0.0,0.0,0.0,0.0,0.0,0.0,0.0,0.0,0.0,0.0,0.0,0.0,0.0,0.0,0.0,0.0,0.0,0.0,0.0,0.0,0.0,0.0,0.0,0.0,0.0,0.0,0.0,0.0,0.0,0.0,0.0,0.0,0.0,0.0,0.0,0.0,0.0,0.0,0.0,0.0,0.0,0.0,0.0,0.0,0.0,0.0,0.0,0.0,0.0,0.0,0.0,0.0,0.0,0.0,0.0,0.0,0.0,0.0,0.0,0.0,0.0,0.0,0.0,0.0,0.0,0.0,0.0,0.0,0.0,0.0,0.0,0.0,0.0,0.0,0.0,0.0,0.0,0.0,0.0,0.0,0.0,0.0,0.0,0.0,0.0,0.0,0.0,0.0,0.0,0.0,0.0,0.0,0.0,0.0,0.0,0.0,0.0,0.0,0.0,0.0,0.0,0.0,0.0,0.0,0.0,0.0,0.0,0.0,0.0,0.0,0.0,0.0,0.0,0.0,0.0,0.0,0.0,0.0,0.0,0.0,0.0,0.0,0.0,0.0,0.0,0.0,0.0,0.0,0.0,0.0,0.0,0.0,0.0,0.0,0.0,0.0,0.0,0.0,0.0,0.0,0.0,0.0,0.0,0.0,0.0,0.0,0.0,0.0,0.0,0.0,0.0,0.0,0.0,0.0,0.0,0.0,0.0,0.0,0.0,0.0,0.0,0.0,0.0,0.0,0.0,0.0,0.0,0.0,0.0,0.0,0.0,0.0,0.0,0.0,0.0,0.0,0.0,0.0,0.0,0.0,0.0,0.0,0.0,0.0,0.0,0.0,0.0,0.0,0.0,0.0,0.0,0.0,0.0,0.0,0.0,0.0,0.0,0.0,0.0,0.0,0.0,0.0,0.0,0.0,0.0,0.0,0.0,0.0,0.0,0.0,0.0,0.0,0.0,0.0,0.0,0.0,0.0,0.0,0.0,0.0,0.0,0.0,0.0,0.0,0.0,0.0,0.0,0.0,0.0,0.0,0.0,0.0,0.0,0.0,0.0,0.0,0.0,0.0,0.0,0.0,0.0,0.0,0.0,0.0,0.0,0.0,0.0,0.0,0.0,0.0,0.0,0.0,0.0,0.0,0.0,0.0,0.0,0.0,0.0,0.0,0.0,0.0,0.0,0.0,0.0,0.0,0.0,0.0,0.0,0.0,0.0,0.0,0.0,0.0,0.0,0.0,0.0,0.0,0.0,0.0,0.0,0.0,0.0,0.0,0.0,0.0,0.0,0.0,0.0,0.0,0.0,0.0,0.0,0.0,0.0,0.0,0.0,0.0,0.0,0.0,0.0,0.0,0.0,0.0,0.0,0.0,0.0,0.0,0.0,0.0,0.0,0.0,0.0,0.0,0.0,0.0,0.0,0.0,0.0,0.0,0.0,0.0,0.0,0.0,0.0,0.0,0.0,0.0,0.0,0.0,0.0,0.0,0.0,0.0,0.0,0.0,0.0,0.0,0.0,0.0,0.0,0.0,0.0,0.0,0.0,0.0,0.0,0.0,0.0,0.0,0.0,0.0,0.0,0.0,0.0,0.0,0.0,0.0,0.0,0.0,0.0,0.0,0.0,0.0,0.0,0.0,0.0,0.0,0.0,0.0,0.0,0.0,0.0,0.0,0.0,0.0,0.0,0.0,0.0,0.0,0.0,0.0,0.0,0.0,0.0,0.0,0.0,0.0,0.0,0.0,0.0,0.0,0.0,0.0,0.0,0.0,0.0,0.0,0.0,0.0,0.0,0.0,0.0,0.0,0.0,0.0,0.0,0.0,0.0,0.0,0.0,0.0,0.0,0.0,0.0,0.0,0.0,0.0,0.0,0.0,0.0,0.0,0.0,0.0,0.0,0.0,0.0,0.0,0.0,0.0,0.0,0.0,0.0,0.0,0.0,0.0,0.0,0.0,0.0,0.0,0.0,0.0,0.0,0.0,0.0,0.0,0.0,0.0,0.0,0.0,0.0,0.0,0.0,0.0,0.0,0.0,0.0,0.0,0.0,0.0,0.0,0.0,0.0,0.0,0.0,0.0,0.0,0.0,0.0,0.0,0.0,0.0,0.0,0.0,0.0,0.0,0.0,0.0,0.0,0.0,0.0,0.0,0.0,0.0,0.0,0.0,0.0,0.0,0.0,0.0,0.0,0.0,0.0,0.0,0.0,0.0,0.0,0.0,0.0,0.0,0.0,0.0,0.0,0.0,0.0,0.0,0.0,0.0,0.0,0.0,0.0,0.0,0.0,0.0,0.0,0.0,0.0,0.0,0.0,0.0,0.0,0.0,0.0,0.0,0.0,0.0,0.0,0.0,0.0,0.0,0.0,0.0,0.0,0.0,0.0,0.0,0.0,0.0,0.0,0.0,0.0,0.0,0.0,0.0,0.0,0.0,0.0,0.0,0.0,0.0,0.0,0.0,0.0,0.0,0.0,0.0,0.0,0.0,0.0,0.0,0.0,0.0,0.0,0.0,0.0,0.0,0.0,0.0,0.0,0.0,0.0,0.0,0.0,0.0,0.0,0.0,0.0,0.0,0.0,0.0,0.0,0.0,0.0,0.0,0.0,0.0,0.0,0.0,0.0,0.0,0.0,0.0,0.0,0.0,0.0,0.0,0.0,0.0,0.0,0.0,0.0,0.0,0.0,0.0,0.0,0.0,0.0,0.0,0.0,0.0,0.0,0.0,0.0,0.0,0.0,0.0,0.0,0.0,0.0,0.0,0.0,0.0,0.0,0.0,0.0,0.0,0.0,0.0,0.0,0.0,0.0,0.0,0.0,0.0,0.0,0.0,0.0,0.0,0.0,0.0,0.0,0.0,0.0,0.0,0.0,0.0,0.0,0.0,0.0,0.0,0.0,0.0,0.0,0.0,0.0,0.0,0.0,0.0,0.0,0.0,0.0,0.0,0.0,0.0,0.0,0.0,0.0,0.0,0.0,0.0,0.0,0.0,0.0,0.0,0.0,0.0,0.0,0.0,0.0,0.0,0.0,0.0,0.0,0.0,0.0,0.0,0.0,0.0,0.0,0.0,0.0,0.0,0.0,0.0,0.0,0.0,0.0,0.0,0.0,0.0,0.0,0.0,0.0,0.0,0.0,0.0,0.0,0.0,0.0,0.0,0.0,0.0,0.0,0.0,0.0,0.0,0.0,0.0,0.0,0.0,0.0,0.0,0.0,0.0,0.0,0.0,0.0,0.0,0.0,0.0,0.0,0.0,0.0,0.0,0.0,0.0,0.0,0.0,0.0,0.0,0.0,0.0,0.0,0.0,0.0,0.0,0.0,0.0,0.0,0.0,0.0,0.0,0.0,0.0,0.0,0.0,0.0,0.0,0.0,0.0,0.0,0.0,0.0,0.0,0.0,0.0,0.0,0.0,0.0,0.0,0.0,0.0,0.0,0.0,0.0,0.0,0.0,0.0,0.0,0.0,0.0,0.0,0.0,0.0,0.0,0.0,0.0,0.0,0.0,0.0,0.0,0.0,0.0,0.0,0.0,0.0,0.0,0.0,0.0,0.0,0.0,0.0,0.0,0.0,0.0,0.0,0.0,0.0,0.0,0.0,0.0,0.0,0.0,0.0,0.0,0.0,0.0,0.0,0.0,0.0,0.0,0.0,0.0,0.0,0.0,0.0,0.0,0.0,0.0,0.0,0.0,0.0,0.0,0.0,0.0,0.0,0.0,0.0,0.0,0.0,0.0,0.0,0.0,0.0,0.0,0.0,0.0,0.0,0.0,0.0,0.0,0.0,0.0,0.0,0.0,0.0,0.0,0.0,0.0,0.0,0.0,0.0,0.0,0.0,0.0,0.0,0.0,0.0,0.0,0.0,0.0,0.0,0.0,0.0,0.0,0.0,0.0,0.0,0.0,0.0,0.0,0.0,0.0,0.0,0.0,0.0,0.0,0.0,0.0,0.0,0.0,0.0,0.0,0.0,0.0,0.0,0.0,0.0,0.0,0.0,0.0,0.0,0.0,0.0,0.0,0.0,0.0,0.0,0.0,0.0,0.0,0.0,0.0,0.0,0.0,0.0,0.0,0.0,0.0,0.0,0.0,0.0,0.0,0.0,0.0,0.0,0.0,0.0,0.0,0.0,0.0,0.0,0.0,0.0,0.0,0.0,0.0,0.0,0.0,0.0,0.0,0.0,0.0,0.0,0.0,0.0,0.0,0.0,0.0,0.0,0.0,0.0,0.0,0.0,0.0,0.0,0.0,0.0,0.0,0.0,0.0,0.0,0.0,0.0,0.0,0.0,0.0,0.0,0.0,0.0,0.0,0.0,0.0,0.0,0.0,0.0,0.0,0.0,0.0,0.0,0.0,0.0,0.0,0.0,0.0,0.0,1.9447,1.9105,0.0,0.0,0.0,0.0,0.0,0.0,0.0,0.0,0.0,0.0,0.0,0.0,0.0,0.0,0.0,0.0,0.0,0.0,0.0,0.0,0.0,0.0,0.0,0.9953,1.0361,1.0742,1.1163,1.1406,1.1406,0.0,0.0,0.0,0.0,0.0,1.078,1.078,1.0949,1.131,1.2072,1.2845,1.3559,1.3559,1.2771,1.1357,0.0,0.0,0.0,0.0,0.0,0.0,0.0,0.0,0.0,0.0,0.0,0.0,0.0,0.0,0.0,0.0,0.0,0.0,0.0,0.0,0.0,0.0,0.0,0.0,0.0,0.0,0.0,0.0,0.0,0.0,0.0,0.0,0.0,0.0,0.0,0.0,0.0,0.0,0.0,0.0,0.0,0.0,0.0,0.0,0.0,0.0,0.0,0.0,0.0,0.0,0.0,0.0,0.0,0.0,0.0,0.0,0.0,0.0,0.0,0.0,0.0,0.0,0.0,0.0,0.0,0.0,0.0,0.0,0.0,0.0,2.088,2.0173,0.0,0.0,0.0,0.0,0.0,0.0,0.0,0.0,0.0,0.0,0.0,0.0,0.0,0.0,0.0,0.0,0.0,0.0,0.0,0.0,0.0,0.9467,1.0132,1.0447,1.0863,1.1526,1.1716,1.1783,1.1783,1.1783,0.0,0.0,0.0,1.1595,1.1595,1.1716,1.2075,1.2693,1.3702,1.4917,1.6297,1.6297,1.4947,1.2475,1.2197,0.0,0.0,0.0,0.0,0.0,0.0,0.0,0.0,0.0,0.0,0.0,0.0,0.0,0.0,0.0,0.0,0.0,0.0,0.0,0.0,0.0,0.0,0.0,0.0,0.0,0.0,0.0,0.0,0.0,0.0,0.0,0.0,0.0,0.0,0.0,0.0,0.0,0.0,0.0,0.0,0.0,0.0,0.0,0.0,0.0,0.0,0.0,0.0,0.0,0.0,0.0,0.0,0.0,0.0,0.0,0.0,0.0,0.0,0.0,0.0,0.0,0.0,0.0,2.2871,2.3288,2.3319,2.4077,2.4405,2.4301,2.2419,2.1365,2.0983,2.0845,0.0,0.0,0.0,0.0,0.0,0.0,0.0,0.0,0.0,0.0,0.0,0.0,0.0,0.0,0.0,0.0,0.0,0.0,0.0,1.0074,1.0196,1.1393,1.2246,1.2352,1.2933,1.3311,1.3311,1.3311,0.0,0.0,1.2693,1.235,1.235,1.2985,1.3363,1.3467,1.5526,1.7004,1.7907,1.7907,1.7643,1.7155,1.5801,1.5175,1.5028,0.0,0.0,0.0,0.0,0.0,0.0,0.0,0.0,0.0,0.0,0.0,0.0,0.0,0.0,0.0,0.0,0.0,0.0,0.0,0.0,0.0,0.0,0.0,0.0,0.0,0.0,0.0,0.0,0.0,0.0,0.0,0.0,0.0,0.0,0.0,0.0,0.0,0.0,0.0,0.0,0.0,1.8667,1.8953,0.0,0.0,0.0,0.0,0.0,0.0,0.0,0.0,0.0,0.0,0.0,0.0,0.0,2.2625,2.2596,2.3206,2.3515,2.3522,2.4977,2.5653,2.5684,2.6488,2.6837,2.682,2.6527,0.0,2.3295,2.2661,0.0,0.0,0.0,0.0,0.0,0.0,0.0,0.0,0.0,0.0,0.0,0.0,0.0,0.0,0.0,0.0,0.0,0.0,0.0,0.0,0.0,1.2227,1.3296,1.3751,1.4475,1.4714,1.43,1.4265,1.4073,1.362,1.3294,1.3332,1.3785,1.4112,1.4898,1.6195,1.8023,1.9088,1.9438,1.9438,1.9418,1.9367,1.8691,1.7628,1.6277,1.5677,0.0,0.0,0.0,0.0,0.0,0.0,0.0,0.0,0.0,0.0,0.0,0.0,0.0,0.0,0.0,0.0,0.0,0.0,0.0,0.0,0.0,0.0,0.0,0.0,0.0,0.0,0.0,0.0,0.0,0.0,0.0,0.0,0.0,0.0,0.0,0.0,0.0,0.0,0.0,1.7994,1.9508,2.0482,2.0902,2.1007,0.0,0.0,0.0,0.0,0.0,0.0,0.0,0.0,0.0,2.4308,2.4765,2.516,2.5474,2.6077,2.6394,2.6394,2.7498,2.8015,2.8015,2.8385,2.8541,2.8541,2.8541,2.795,2.6873,2.527,2.4171,2.3398,0.0,0.0,0.0,0.0,2.1199,2.183,0.0,0.0,0.0,0.0,0.0,0.0,0.0,0.0,0.0,0.0,0.0,0.0,1.1852,1.3127,1.4226,1.5001,1.5583,1.5585,1.4859,1.4807,1.444,1.3637,1.3795,1.4196,1.4792,1.537,1.6789,1.9065,2.0162,2.0794,2.0983,2.0983,2.0994,2.099,2.099,1.9765,1.7676,1.7344,1.6228,0.0,0.0,0.0,0.0,0.0,0.0,0.0,0.0,0.0,0.0,0.0,0.0,0.0,0.0,0.0,0.0,0.0,0.0,0.0,0.0,0.0,0.0,0.0,0.0,0.0,0.0,0.0,0.0,0.0,0.0,0.0,0.0,0.0,0.0,0.0,0.0,0.0,0.0,1.9138,2.0358,2.204,2.2246,2.2376,0.0,0.0,0.0,0.0,0.0,0.0,2.4052,2.5346,2.6296,2.6767,2.7229,2.7694,2.8169,2.8545,2.8737,2.8737,2.9463,2.9817,2.9812,3.0002,3.0088,3.0088,3.0088,3.0088,2.9916,2.7623,2.6364,2.5795,2.4994,2.4357,2.3877,2.3877,2.4339,2.4977,0.0,0.0,0.0,0.0,0.0,0.0,0.0,0.0,0.0,0.0,0.0,1.1887,1.3327,1.4233,1.5038,1.5783,1.5881,1.5585,1.4859,1.4807,1.444,1.3637,1.4336,1.4755,1.4807,1.6922,1.9151,2.1429,2.1498,2.1909,2.2578,2.2578,2.2578,2.2578,2.2578,2.1673,2.0025,1.8621,1.7976,1.7747,0.0,0.0,0.0,0.0,0.0,0.0,0.0,0.0,0.0,0.0,0.0,0.0,0.0,0.0,0.0,0.0,0.0,0.0,0.0,0.0,0.0,0.0,0.0,0.0,0.0,0.0,0.0,0.0,0.0,0.0,0.0,0.0,0.0,0.0,0.0,0.0,0.0,0.0,0.0,2.3778,2.3966,0.0,0.0,0.0,0.0,2.5157,2.5905,2.6642,2.7416,2.8794,2.9513,2.9412,2.9863,3.0068,2.9968,2.9744,2.9624,2.9642,3.0318,3.0636,3.0653,3.1351,3.1679,3.1679,3.1679,3.1679,3.1507,2.9213,2.8265,2.8161,2.7402,2.7096,2.7061,2.7061,2.7544,2.8178,0.0,0.0,0.0,0.0,0.0,0.8986,0.9056,0.9064,0.9344,1.0097,1.09,1.1956,1.3447,1.4749,1.5805,1.6534,1.7072,1.7065,1.6338,1.6271,1.5963,1.5247,1.5434,1.6015,1.6974,1.8717,2.0265,2.1602,2.2081,2.244,2.2699,2.2699,2.2699,2.2699,2.2748,2.2454,2.1832,2.0839,1.9843,1.8862,1.7912,1.6928,0.0,0.0,0.0,0.0,0.0,0.0,0.0,0.0,0.0,0.0,0.0,0.0,0.0,0.0,0.0,0.0,0.0,0.0,0.0,0.0,0.0,0.0,0.0,0.0,0.0,0.0,0.0,0.0,0.0,0.0,0.0,0.0,0.0,0.0,0.0,0.0,0.0,2.5447,2.5633,0.0,2.6854,2.6694,2.6854,2.7656,2.8394,2.8935,2.9234,3.0094,3.0769,3.1207,3.1161,3.13,3.165,3.1384,3.1459,3.1895,3.204,3.2391,3.2901,3.3155,3.3275,3.3275,3.3275,3.3275,3.3224,3.2396,3.1205,2.9804,2.9023,2.8713,2.8713,2.8713,2.8885,2.9105,0.0,0.0,0.0,0.0,0.8979,0.9021,0.9097,0.931,0.974,1.0517,1.1503,1.2709,1.4214,1.5509,1.6588,1.7346,1.7908,1.7907,1.7149,1.7121,1.6829,1.6137,1.6522,1.7579,1.9309,2.03,2.1208,2.1999,2.2493,2.2748,2.2767,2.2767,2.2767,2.2774,2.2845,2.2871,2.2843,2.2392,2.1431,2.0147,1.9455,1.8723,1.7986,0.0,0.0,0.0,0.0,0.0,0.0,0.0,0.0,0.0,0.0,0.0,0.0,0.0,0.0,0.0,0.0,0.0,0.0,0.0,0.0,0.0,0.0,0.0,0.0,0.0,0.0,0.0,0.0,0.0,0.0,0.0,0.0,0.0,0.0,2.3706,2.5243,2.7124,2.7341,2.7782,2.8909,2.9004,2.924,2.9763,3.0503,3.094,3.094,3.1556,3.2249,3.2995,3.2719,3.2818,3.3402,3.3117,3.3172,3.3537,3.3372,3.3581,3.4108,3.4108,3.4108,3.4108,3.4108,3.4108,3.4108,3.4108,3.3206,3.1775,3.0955,3.0657,3.0623,3.0368,3.0282,3.0282,0.0,0.0,0.0,0.8984,0.9005,0.9022,0.9097,0.9722,1.0481,1.1284,1.2674,1.4199,1.5729,1.6568,1.7328,1.8134,1.8266,1.7976,1.7193,1.7201,1.6931,1.6246,1.7584,1.9367,2.1556,2.1608,2.2002,2.2806,2.2806,2.2842,2.2906,2.2906,2.2906,2.2892,2.2976,2.3008,2.3017,2.3132,2.2662,2.1786,2.1033,2.0313,1.9594,0.0,0.0,0.0,0.0,0.0,0.0,0.0,0.0,0.0,0.0,0.0,0.0,0.0,0.0,0.0,0.0,0.0,0.0,0.0,0.0,0.0,0.0,0.0,0.0,0.0,0.0,0.0,0.0,0.0,0.0,0.0,0.0,0.0,2.4174,2.4989,2.64,2.8767,2.9057,2.9705,3.1317,3.1464,3.1504,3.154,3.2244,3.2696,3.2714,3.3366,3.4073,3.4816,3.4578,3.4681,3.5202,3.4866,3.4617,3.4432,3.4224,3.4155,3.4172,3.4172,3.4172,3.4172,3.4172,3.4172,3.4172,3.4172,3.4172,3.4086,3.3266,3.2938,3.2852,3.2149,3.1873,3.1873,0.0,0.0,0.897,0.8991,0.9039,0.9074,0.9103,0.9722,1.0481,1.1284,1.2674,1.4199,1.5729,1.6568,1.7346,1.8205,1.8295,1.8252,1.8123,1.8086,1.8238,1.8628,1.9027,2.0023,2.1719,2.1754,2.2121,2.2863,2.2863,2.2887,2.2906,2.2906,2.2906,2.2892,2.2976,2.3008,2.3017,2.3132,2.3024,2.2678,2.1987,2.155,2.1247,0.0,0.0,0.0,0.0,0.0,0.0,0.0,0.0,0.0,0.0,0.0,0.0,0.0,0.0,0.0,0.0,0.0,0.0,0.0,0.0,0.0,0.0,0.0,0.0,0.0,0.0,0.0,0.0,0.0,0.0,0.0,2.4518,2.6355,2.5986,2.7139,2.8479,2.9726,3.0393,3.1369,3.2981,3.3131,3.3645,3.486,3.4567,3.4619,3.5257,3.4827,3.4924,3.5722,3.5526,3.5387,3.5353,3.496,3.4923,3.5205,3.4997,3.5185,3.5702,3.5702,3.5702,3.5702,3.5702,3.5702,3.5702,3.5702,3.5702,3.5564,3.4271,3.3771,3.3741,3.3534,3.3465,3.3465,0.0,0.8979,0.9049,0.9042,0.9079,0.9104,0.9104,1.0018,1.0866,1.1337,1.2973,1.4563,1.5763,1.6568,1.7356,1.8228,1.8326,1.8383,1.8485,1.8776,1.9279,2.0035,2.0383,2.1098,2.224,2.2255,2.2473,2.2948,2.2976,2.3008,2.3033,2.3043,2.3076,2.3076,2.3116,2.3132,2.3123,2.3241,2.3232,2.3103,2.2753,2.2556,2.2379,2.1514,2.0894,2.0413,2.0015,1.9247,1.8244,1.7075,0.0,0.0,0.0,0.0,0.0,0.0,0.0,0.0,0.0,0.0,0.0,0.0,0.0,0.0,0.0,0.0,0.0,0.0,0.0,0.0,0.0,0.0,0.0,0.0,2.6867,2.8374,2.8576,2.942,3.0295,3.1103,3.192,3.2911,3.4185,3.4629,3.5242,3.6233,3.5837,3.5764,3.627,3.5772,3.5864,3.6666,3.6485,3.6417,3.6487,3.6088,3.5961,3.6127,3.5913,3.6049,3.6477,3.6407,3.6374,3.6386,3.6322,3.6301,3.6301,3.6301,3.6301,3.618,0.0,0.0,0.0,0.0,3.4108,3.4108,0.0,0.902,0.91,0.9108,0.911,0.9144,0.9227,1.0473,1.1424,1.1508,1.3444,1.5055,1.5699,1.643,1.7186,1.7973,1.8186,1.8376,0.0,1.9301,2.0052,2.0805,2.1534,2.2236,2.2914,2.2914,2.2957,2.3017,2.3085,2.3144,2.3205,2.3271,2.3298,2.3298,2.3298,2.3298,2.3304,2.3366,2.3324,2.322,2.3283,2.3229,2.3028,2.2296,2.1988,2.1814,2.1044,2.0664,2.0415,1.968,0.0,0.0,0.0,0.0,0.0,0.0,0.0,0.0,0.0,0.0,0.0,0.0,0.0,0.0,0.0,0.0,0.0,0.0,0.0,0.0,0.0,0.0,0.0,0.0,2.8751,2.9907,3.1332,3.1684,3.2048,3.2662,3.3455,3.4296,3.5184,3.5987,3.6472,3.6563,3.649,3.6472,3.6563,3.649,0.0,0.0,0.0,3.756,3.8014,3.7641,3.731,3.7038,3.6834,3.6735,3.6737,3.6597,3.6513,3.6497,3.6353,3.6301,3.6301,3.6301,3.6301,3.6232,3.5582,3.5323,3.5237,3.4586,3.4345,3.4345,0.0,0.9091,0.9126,0.9177,0.9176,0.9387,0.9983,1.0823,1.1612,1.2213,1.3751,1.4856,1.5008,1.5671,1.6192,1.6426,1.7094,1.807,0.0,0.0,2.0364,2.1697,2.1899,2.2326,2.3052,2.3067,2.3076,2.3085,2.3156,2.319,2.3205,2.3271,2.3298,2.3298,2.3298,2.3298,2.3304,2.3366,2.3351,2.3286,2.3351,2.3271,2.308,2.2861,2.2743,2.2656,2.2448,2.1928,2.1254,2.0449,1.9591,1.8705,1.7844,0.0,0.0,0.0,0.0,0.0,0.0,0.0,0.0,0.0,0.0,0.0,0.0,0.0,0.0,0.0,0.0,0.0,0.0,0.0,0.0,2.8568,3.0528,3.2017,3.2311,3.3485,3.4127,3.3638,3.4274,3.5356,3.6879,3.7177,3.7544,3.8189,3.7628,3.754,3.8189,3.7613,3.7636,3.8432,3.8336,3.8194,3.808,3.7831,3.76,3.7319,3.7123,0.0,3.6933,3.6745,3.6602,3.6497,3.6353,3.6301,3.6301,3.6301,3.6301,3.6284,3.6146,3.6099,3.6065,3.5921,3.587,3.587,0.9147,0.915,0.9171,0.9246,0.9558,0.9906,1.025,1.1274,1.2122,1.2503,1.3532,1.4405,1.4808,1.5174,1.5588,1.6015,1.6842,0.0,0.0,2.011,2.0846,2.1958,2.235,2.2713,2.3086,2.3107,2.3107,2.3107,2.3205,2.3253,2.3253,2.3351,2.3392,2.3392,2.3392,2.3392,2.3392,2.3445,2.3404,2.3351,2.3398,2.3298,2.3132,2.3082,2.2998,2.2897,2.2829,2.2519,2.2099,2.1696,2.1061,2.0335,1.962,1.8932,1.8298,0.0,0.0,0.0,0.0,0.0,0.0,0.0,0.0,0.0,0.0,0.0,0.0,0.0,0.0,2.4685,0.0,0.0,2.9402,3.0604,3.2145,3.3341,3.3735,3.4876,3.5338,3.4494,3.5492,3.6578,3.7419,3.7856,3.827,3.8667,3.8326,3.827,3.8685,3.8326,3.8285,3.8685,3.8567,3.8426,3.8257,3.8051,3.7871,3.7699,3.7508,3.7365,3.7288,3.7014,3.6819,3.6647,3.647,3.6353,3.6301,3.6301,3.6301,3.6301,3.6301,3.6301,3.6301,3.6301,3.6301,3.6301,0.9225,0.9211,0.9275,0.9477,1.0002,1.0477,1.0721,1.1814,1.2669,1.2813,1.3359,1.399,1.4637,1.4713,1.5115,1.6078,1.6798,0.0,0.0,2.0566,2.1308,2.2183,2.2795,2.3125,2.3125,2.3135,2.3144,2.3144,2.3262,2.3319,2.3319,2.3433,2.3502,2.3502,2.3502,2.3502,2.3502,2.3502,2.3476,2.3412,2.3412,2.3342,2.3232,2.3168,2.3057,2.2916,2.2865,2.28,2.2741,2.2741,2.2344,2.1765,2.1228,2.0611,1.9954,1.9422,1.884,0.0,0.0,0.0,0.0,0.0,0.0,0.0,0.0,0.0,2.3336,2.4635,2.6188,2.7742,2.9207,3.0259,3.1326,3.2622,3.3657,3.4501,3.5151,3.5987,3.6266,3.5576,3.6674,3.7566,3.7727,3.8326,3.8703,3.8703,3.8703,3.8703,3.8703,3.8703,3.8703,3.8703,3.8601,3.8494,3.8419,3.8251,3.8135,3.8077,3.7897,3.7766,3.7649,3.7468,3.7184,3.6798,3.6552,3.6402,3.6301,3.6301,3.6301,3.6301,3.6301,3.6301,3.6301,3.6301,3.6301,3.6301,0.0,0.9292,0.9494,1.0165,1.0348,1.0861,1.2225,1.2576,1.2926,1.3588,1.3796,1.3916,1.4004,1.407,1.4712,1.6232,1.6462,0.0,2.0667,2.0945,2.1579,2.2923,2.3109,2.3193,2.3193,2.3247,2.328,2.328,2.3345,2.3383,2.3383,2.3471,2.3502,2.3502,2.3502,2.3502,2.3502,2.3502,2.3499,2.3494,2.3494,2.3433,2.3366,2.3304,2.3162,2.2998,2.2986,2.2924,2.2887,2.2887,2.2814,2.2743,2.2749,2.2267,2.1626,2.109,0.0,2.0077,2.0298,2.1386,2.2474,2.2566,2.366,2.4551,0.0,0.0,2.7187,2.7352,2.8689,3.006,3.0968,3.2378,3.3458,3.3642,3.4981,3.605,3.6138,3.6842,3.7327,3.7235,3.7382,3.7782,3.8501,3.8648,3.8703,3.8703,3.8703,3.8703,3.8703,3.8703,3.8703,3.8703,3.8696,3.8613,3.8498,3.8474,3.8426,3.835,3.8276,3.8092,3.7873,3.8257,3.7837,3.6776,3.6457,3.6311,3.6301,3.6301,3.6301,3.6301,3.6301,3.6301,3.6301,3.6301,3.6301,3.6301,0.0,0.9673,1.0223,1.097,1.1103,1.146,1.2534,1.3101,1.3516,1.3814,1.3949,1.4028,1.4078,1.4092,1.4743,1.6326,1.6417,1.771,2.0808,2.1007,2.1654,2.3152,2.3247,2.3262,2.3262,2.3286,2.3298,2.3298,2.336,2.3392,2.3392,2.3476,2.3502,2.3502,2.3502,2.3502,2.3502,2.3502,2.3502,2.3502,2.3502,2.3465,2.3407,2.3366,2.3304,2.322,2.3107,2.3048,0.0,0.0,2.3023,2.3024,2.3144,2.3035,2.2831,2.2698,2.2235,0.0,2.2486,2.3504,2.4504,2.4974,2.56,2.6264,2.6864,2.776,2.8757,2.9702,3.0797,3.1708,3.2042,3.3036,3.3954,0.0,3.5514,3.6457,3.6938,3.7687,3.8197,3.8197,3.8197,3.8322,3.8667,3.8703,3.8703,3.8703,3.8703,3.8703,3.8703,3.8703,3.8703,3.8703,3.8703,3.867,3.8616,3.8613,3.8601,3.857,3.8465,3.833,3.8123,3.8093,3.7828,3.7382,3.7552,3.7634,3.76,3.7186,3.7001,3.6944,3.6479,3.6301,3.6301,3.6301,3.6301,3.6301,0.0,0.9967,1.0742,1.1501,1.1802,1.2183,1.2912,1.3526,1.3908,1.3936,1.4021,1.4138,1.4239,1.4266,1.4874,1.6457,1.652,1.7718,2.0595,2.0967,2.1672,2.2999,2.3265,2.3369,2.3351,2.3369,2.3369,2.3351,2.3398,2.3439,2.3439,2.3482,2.3502,2.3502,2.3502,2.3502,2.3502,2.3502,2.3502,2.3502,2.3502,2.3476,2.3439,2.3439,2.3444,2.3456,2.328,2.3079,0.0,0.0,2.2903,2.2938,2.3046,2.3314,2.3609,2.3742,2.3652,2.3672,2.4359,2.528,2.6256,2.7066,2.7433,2.7965,2.9341,2.9831,3.0326,3.1494,3.2372,3.2938,3.2938,3.3583,3.4406,3.5224,3.6079,3.6916,3.7724,3.8322,3.8703,3.8703,3.8703,3.8703,3.8703,3.8703,3.8703,3.8703,3.8703,3.8703,3.8703,3.8703,3.8703,3.8703,3.8703,3.8703,3.8703,3.8703,3.8703,3.8703,3.8605,3.8479,3.8286,3.799,3.7951,3.8148,3.8458,3.8606,3.8554,3.8019,3.7795,3.7743,3.7151,3.6922,3.6904,3.672,3.649,3.6301,0.0,0.0,1.0758,1.1562,1.2284,1.3012,1.3743,1.3885,1.3915,1.3989,1.4052,1.4182,1.4363,1.4397,1.5036,1.6651,1.6731,1.7701,2.0063,2.0888,2.1627,2.2396,2.317,2.3556,2.3499,2.3556,2.3556,2.3497,2.3499,2.3499,2.3499,2.3502,2.3502,2.3502,2.3502,2.3502,2.3502,2.3502,2.3502,2.3502,2.3502,2.3502,2.3499,2.3499,2.3572,2.367,2.3548,0.0,0.0,2.2426,2.2423,2.2434,2.2497,2.3113,0.0,2.3942,2.4624,2.5338,2.5359,2.6513,2.7918,2.873,2.9503,3.0301,3.1133,3.1932,3.2509,3.2549,3.3195,3.3752,3.3752,3.4421,3.5243,3.6123,3.6938,3.7746,3.8557,3.8685,3.8703,3.8703,3.8703,3.8703,0.0,3.8703,3.8703,3.8703,3.8703,3.8703,3.8703,3.8703,3.8703,3.8703,3.8703,3.8703,3.8703,3.8703,3.8703,3.8703,3.8699,3.8567,3.8296,3.8228,3.8477,3.8945,3.8717,3.8606,3.8606,3.8588,3.8571,3.8554,3.8537,3.8537,3.8445,3.7726,3.6967,3.6301,0.0,0.0,0.0,1.2306,1.3037,1.3611,1.3861,1.3891,1.3922,1.3995,1.4164,0.0,0.0,0.0,0.0,0.0,1.6543,1.7605,1.9413,2.0221,2.0998,2.1771,2.2525,2.2937,2.2898,2.3443,2.3707,2.3628,2.359,2.3542,2.3502,2.3502,2.3502,2.3502,2.3502,2.3502,2.3502,2.3502,2.3502,2.3502,2.3502,2.3502,2.3511,2.3595,2.3368,2.2976,0.0,0.0,0.0,2.192,2.1739,2.1842,2.2435,0.0,2.3373,2.4574,2.5147,2.5634,2.6696,2.7787,2.8791,2.9598,3.039,3.1204,3.2005,3.2406,3.2604,3.2604,3.2828,3.2993,3.2993,3.3228,3.3848,3.5228,3.6156,3.6989,3.7797,3.8358,3.8703,3.8703,3.8703,0.0,0.0,3.8703,3.8703,3.8703,3.8703,3.8703,3.8703,3.8703,3.8703,3.8703,3.8703,3.8703,3.8703,3.8703,3.8703,3.8703,3.8562,3.836,3.8101,3.8302,3.8649,3.908,3.9342,3.9704,4.0072,3.9549,3.9324,3.9273,3.8795,3.8606,3.8571,3.8312,3.8054,3.7686,0.0,0.0,0.0,0.0,0.0,0.0,0.0,0.0,0.0,0.0,0.0,0.0,0.0,0.0,0.0,0.0,0.0,1.7618,1.9201,2.0002,2.0645,2.1167,2.1887,2.2272,2.2232,2.3021,2.3415,2.3339,2.3566,2.3649,2.3613,2.3572,2.3564,2.3564,2.3564,2.3564,2.3564,2.3564,2.3564,2.3564,2.3564,2.3596,2.3627,2.3698,2.3482,0.0,0.0,0.0,2.2273,2.1735,2.1532,2.1689,2.2532,2.3231,2.4013,2.5425,2.6232,2.6909,2.7952,2.9029,3.0057,3.0864,3.1458,3.2045,3.2849,3.2806,3.2604,3.2604,3.2369,3.217,3.217,3.2406,3.3023,3.4366,3.5547,3.6585,3.7382,3.8197,3.8703,3.8703,3.8703,3.8703,0.0,0.0,3.8703,3.8703,3.8703,3.8703,3.8703,3.8703,3.8703,3.8703,3.8703,3.8703,3.8703,3.8703,3.8832,3.9125,3.9215,3.9125,3.8868,3.92,3.9428,3.9553,4.0092,4.0556,4.0854,4.0348,4.0124,4.0083,3.9606,3.9416,3.9382,3.91,3.8985,3.8807,0.0,0.0,0.0,0.0,0.0,0.0,0.0,0.0,0.0,0.0,0.0,0.0,0.0,0.0,0.0,0.0,0.0,0.0,1.9324,2.0136,0.0,2.0532,2.1243,2.1628,2.1561,2.2348,2.2725,2.2651,2.3384,2.3758,2.3734,2.3717,2.3708,2.3708,2.3708,2.3708,2.3708,2.3708,2.3708,2.3708,2.3708,2.374,2.3794,2.3811,0.0,0.0,0.0,0.0,0.0,2.1785,2.1812,2.2051,2.2827,2.4174,2.5631,2.6463,2.7794,2.9021,2.9097,3.0265,3.1647,3.2406,3.2622,3.2846,3.3568,3.3143,3.2586,3.2494,3.1861,3.1338,0.0,0.0,3.2809,3.3602,3.5183,3.6567,3.7327,3.8179,3.8703,0.0,0.0,0.0,0.0,0.0,3.8703,3.8703,3.8703,3.8703,3.8703,3.874,3.8758,3.8758,3.8795,3.8828,3.8828,3.8828,3.9203,3.9978,4.0523,4.0656,4.0424,4.0711,4.0642,4.0331,4.0822,4.0995,4.0906,4.0906,4.0906,4.0906,4.0906,4.0906,4.0802,4.0032,3.9756,3.9669,0.0,0.0,0.0,0.0,0.0,0.0,0.0,0.0,0.0,0.0,0.0,0.0,0.0,0.0,0.0,0.0,0.0,0.0,1.8532,0.0,0.0,0.0,2.0524,2.0955,2.0925,2.1676,2.2025,2.1956,2.2691,2.303,2.299,2.3529,2.3761,2.3761,2.3761,2.3761,2.3761,2.3761,2.3761,2.3761,0.0,2.3787,2.3816,0.0,0.0,0.0,0.0,0.0,0.0,0.0,0.0,0.0,2.3823,2.4997,2.6573,2.798,2.8672,2.9262,3.0467,3.1531,3.2332,3.2549,3.3048,3.3381,3.2993,3.2751,3.2256,3.1066,3.065,3.0506,3.0506,3.1164,3.1975,3.2773,3.4813,0.0,3.6585,3.7808,0.0,3.8703,0.0,3.8703,3.8703,3.8703,3.8703,3.8703,3.8703,3.8703,3.8703,3.9276,3.9592,3.9592,4.019,4.0494,4.0494,4.0494,4.0589,4.0787,4.0793,4.0691,4.0474,4.0245,4.0238,4.0377,4.0355,4.0562,4.0906,4.0906,4.0906,4.0906,4.0906,4.0906,4.0871,4.0664,4.0589,4.0578,0.0,0.0,0.0,0.0,0.0,0.0,0.0,0.0,0.0,0.0,0.0,0.0,0.0,0.0,0.0,0.0,0.0,0.0,0.0,0.0,0.0,1.9584,2.0026,2.0255,2.0255,2.0978,2.1332,2.1306,0.0,0.0,2.231,2.2703,2.2881,2.2881,2.2881,2.2881,2.2881,2.2881,0.0,0.0,0.0,0.0,0.0,0.0,0.0,0.0,0.0,0.0,0.0,0.0,0.0,2.4858,2.5553,2.6646,2.7907,2.9155,0.0,3.0785,3.1675,3.2501,3.3121,3.3121,3.3195,3.3158,3.2696,3.1778,3.0766,2.9855,2.9103,2.8738,2.9072,2.9806,3.072,3.1898,3.413,0.0,3.6251,3.7698,3.8703,0.0,3.8703,0.0,3.8703,3.9015,3.9239,3.9239,3.9239,3.9239,3.9239,3.9992,4.0432,4.0432,4.0865,4.1099,4.1099,4.1448,4.1635,4.1635,4.1779,4.1741,4.1542,4.114,4.0932,4.0917,4.0684,4.0701,4.0906,4.0906,4.0906,4.0906,4.0906,4.0906,4.0906,4.0906,4.0906,4.0906,0.0,0.0,0.0,0.0,0.0,0.0,0.0,0.0,0.0,0.0,0.0,0.0,0.0,0.0,0.0,0.0,0.0,0.0,0.0,0.0,0.0,1.9699,1.9703,1.9704,1.9704,2.0331,2.0647,2.065,0.0,0.0,0.0,0.0,0.0,0.0,0.0,0.0,0.0,0.0,0.0,0.0,0.0,0.0,0.0,0.0,0.0,0.0,0.0,0.0,0.0,0.0,2.4964,2.5825,2.7336,2.8429,2.9317,3.0115,3.1415,3.2619,3.2733,3.3271,3.3807,3.3807,3.3195,3.2546,3.2329,3.0583,2.8947,2.8727,2.7577,2.6809,2.7517,2.8387,2.9485,3.1002,0.0,3.5173,3.6156,3.7588,3.8575,3.8685,3.8703,3.874,3.885,3.9482,3.9941,4.0051,4.0161,4.0165,4.0069,4.0828,4.1301,4.1411,4.1411,4.1411,4.1411,4.2117,4.2451,4.247,4.2953,4.3091,4.2882,4.2482,4.2048,4.1588,4.1329,4.1088,4.0906,4.0906,4.0906,4.0906,4.0906,4.0906,4.0906,4.0906,4.0906,4.0906,0.0,0.0,0.0,0.0,0.0,0.0,0.0,0.0,0.0,0.0,1.4407,1.4518,0.0,0.0,0.0,0.0,0.0,0.0,0.0,0.0,0.0,0.0,1.9757,1.9785,1.9785,1.9852,1.9891,1.9884,0.0,0.0,0.0,0.0,0.0,0.0,0.0,0.0,0.0,0.0,0.0,0.0,0.0,0.0,0.0,0.0,0.0,0.0,0.0,0.0,0.0,0.0,2.5855,2.6631,2.7528,2.8818,3.0152,3.0968,3.1861,3.2751,3.3418,3.3697,3.3807,3.3807,3.3195,3.2256,3.0919,2.9779,0.0,2.7283,2.6788,2.6644,2.6772,2.8017,2.9317,3.0243,3.2427,3.4538,3.6086,3.7118,3.7944,0.0,3.8703,3.896,3.9629,3.9816,4.0179,4.0846,4.1511,4.1585,4.0934,4.1654,4.2396,4.3065,4.308,4.308,4.308,4.3231,4.3286,4.3281,4.3231,4.3091,4.2882,4.2482,4.2048,4.1588,4.1329,4.1088,4.0906,4.0906,4.0906,4.0906,4.0906,4.0906,4.0906,4.0906,4.0906,4.0906,0.0,0.0,0.0,0.0,0.0,0.0,0.0,0.0,1.4937,1.4961,1.5097,1.5024,1.4641,1.4652,0.0,0.0,0.0,0.0,0.0,0.0,0.0,0.0,0.0,1.9909,1.9909,1.9863,0.0,0.0,0.0,0.0,0.0,0.0,0.0,0.0,0.0,0.0,0.0,0.0,0.0,0.0,0.0,0.0,0.0,0.0,0.0,0.0,0.0,0.0,0.0,0.0,2.583,2.6328,2.7487,2.8955,3.0401,3.1164,3.1971,3.2788,3.3583,3.3807,3.3807,3.3807,3.2889,3.1656,3.0464,0.0,0.0,2.6211,2.564,2.5474,2.5902,2.6958,2.8143,2.9375,3.1598,3.3745,3.5393,3.6714,3.7801,3.8593,3.9074,3.9482,3.9849,4.0661,4.1313,4.169,4.247,4.2561,4.1768,4.2488,4.3098,4.3488,4.3506,4.3506,4.3506,4.3506,4.3506,4.3506,4.3309,4.3064,4.2774,4.2447,4.2016,4.1487,4.1301,4.1088,4.0906,4.0906,4.0906,4.0906,4.0906,4.0906,4.0906,4.0906,4.0906,4.0906,0.0,0.0,0.0,0.0,0.0,0.0,0.0,1.4743,1.5339,1.5577,1.5553,1.5359,1.4902,1.476,1.5024,0.0,0.0,0.0,0.0,0.0,0.0,0.0,0.0,2.0024,2.0024,0.0,0.0,0.0,0.0,0.0,0.0,0.0,0.0,0.0,0.0,0.0,0.0,0.0,0.0,0.0,0.0,0.0,0.0,0.0,0.0,0.0,0.0,0.0,0.0,0.0,2.5479,2.5831,2.7029,2.8627,3.0188,3.0931,3.1825,3.2733,3.3363,3.3678,3.3752,3.3587,3.2452,3.1097,2.9953,2.8096,0.0,2.5338,2.4637,2.4396,2.5028,2.581,2.6867,2.8476,3.0473,3.2509,3.4472,3.6024,3.7334,3.8322,3.9317,3.9959,4.0143,4.146,4.2378,4.2543,4.3139,4.3231,4.2598,4.3153,4.3506,4.3506,4.3506,4.3506,4.3506,4.3506,4.3497,4.3476,4.3273,4.3003,4.2663,4.2361,4.1913,4.1397,4.1244,4.1065,4.0906,4.0906,4.0906,4.0906,4.0906,4.0906,4.0906,4.0906,4.0906,4.0906,0.0,0.0,0.0,0.0,0.0,0.0,0.0,1.4283,1.4695,1.5496,1.503,1.489,1.5604,1.5095,1.505,0.0,0.0,0.0,0.0,0.0,0.0,0.0,0.0,0.0,0.0,0.0,0.0,0.0,0.0,0.0,0.0,0.0,0.0,0.0,0.0,0.0,0.0,0.0,0.0,0.0,0.0,0.0,0.0,0.0,0.0,0.0,0.0,0.0,0.0,0.0,0.0,2.5701,2.5799,2.7376,2.9354,3.0099,0.0,0.0,3.2696,3.3235,3.3623,3.2898,3.2045,3.0806,2.8545,0.0,2.6167,2.4633,2.4247,2.4229,2.4305,2.497,2.6035,2.7646,2.8717,3.0399,3.3476,3.4677,3.5815,3.7415,3.8976,4.0198,4.092,4.1786,4.2598,4.3322,4.3451,4.3469,4.3396,4.3451,4.3506,4.3506,4.3506,4.3506,4.3506,4.3506,4.3467,4.3412,4.321,4.2936,4.2581,4.2133,4.174,4.1392,4.1186,4.1024,4.0906,4.0906,4.0906,4.0906,4.0906,4.0906,4.0906,4.0906,4.0906,4.0906,0.0,0.0,0.0,0.0,0.0,0.0,0.0,1.4615,1.5161,1.5546,1.5417,1.5438,1.5813,1.5203,1.4905,0.0,0.0,0.0,0.0,0.0,0.0,0.0,0.0,0.0,0.0,0.0,0.0,0.0,0.0,0.0,0.0,0.0,0.0,0.0,0.0,0.0,0.0,0.0,0.0,0.0,0.0,0.0,0.0,0.0,0.0,0.0,0.0,0.0,0.0,0.0,0.0,0.0,2.5426,2.6181,0.0,0.0,3.031,3.1378,3.2347,3.2824,3.2993,3.2674,3.2008,3.0769,2.8343,2.7181,2.6148,2.4522,2.4192,2.4192,2.4192,2.486,2.576,2.6888,2.8161,2.9959,3.2699,3.3763,3.5073,3.7235,3.8495,3.9676,4.0971,4.1823,4.2635,4.3433,4.3506,4.3506,4.3506,4.3506,4.3506,4.3506,4.3506,4.3506,4.3506,4.3506,4.3428,4.3287,4.3077,4.2733,4.2285,4.1977,4.1615,4.1209,4.1128,4.1012,4.0906,4.0906,4.0906,4.0906,4.0906,4.0906,4.0906,4.0906,4.0906,4.0906,0.0,0.0,0.0,0.0,0.0,1.411,1.4138,1.4715,1.5253,1.5567,1.5492,1.5524,1.5834,1.5217,1.4779,1.4799,0.0,0.0,0.0,0.0,0.0,0.0,0.0,0.0,0.0,0.0,0.0,0.0,0.0,0.0,0.0,0.0,0.0,0.0,0.0,0.0,0.0,0.0,0.0,0.0,0.0,0.0,0.0,0.0,0.0,0.0,0.0,0.0,0.0,0.0,0.0,0.0,0.0,0.0,0.0,0.0,2.925,3.0149,3.1522,3.2057,3.2189,3.1947,3.1454,3.0417,2.7992,2.7013,2.6148,2.4522,2.4192,2.4192,2.4192,2.486,2.5668,2.6463,2.7745,2.9485,3.191,3.2941,3.4376,3.6846,3.827,3.9584,4.0971,4.2043,4.2896,4.3451,4.3506,4.3506,4.3506,4.3506,4.3506,4.3506,4.3506,4.3506,4.3506,4.348,4.3353,4.311,4.2914,4.2534,4.2035,4.1839,4.155,4.1192,4.1123,4.1047,4.0953,4.0918,4.0906,4.0906,4.0906,4.0906,4.0906,4.0906,4.0906,4.0906,0.0,0.0,0.0,0.0,0.0,0.0,0.0,1.4265,1.4616,1.5489,1.4972,1.4836,1.5716,1.5145,1.4736,1.4798,0.0,0.0,0.0,0.0,0.0,0.0,0.0,0.0,0.0,0.0,0.0,0.0,0.0,0.0,0.0,0.0,0.0,0.0,0.0,0.0,0.0,0.0,0.0,0.0,0.0,0.0,0.0,0.0,0.0,0.0,0.0,0.0,0.0,0.0,0.0,0.0,0.0,0.0,0.0,0.0,2.8371,2.9189,3.0002,3.08,3.1225,3.0427,3.0225,2.958,2.7158,2.6607,2.6148,2.4522,2.4192,2.4192,2.4192,2.486,2.5668,2.6463,2.7273,2.8655,3.1063,3.2118,3.3522,3.6013,3.8436,4.0212,4.1026,4.2547,4.3488,4.3506,4.3506,4.3506,4.3506,4.3506,4.3506,4.3506,4.3506,4.3506,4.3506,4.3433,4.3228,4.2892,4.2694,4.2356,4.1908,4.1686,4.1526,4.1386,4.1192,4.1093,4.1099,4.0953,4.0906,4.0906,4.0906,4.0906,4.0906,4.0906,4.0906,4.0906,0.0,0.0,0.0,0.0,0.0,0.0,0.0,1.4265,1.4412,1.4739,1.4629,1.4625,1.4938,1.4808,1.4711,1.4737,0.0,0.0,0.0,0.0,0.0,0.0,0.0,0.0,0.0,0.0,0.0,0.0,0.0,0.0,0.0,0.0,0.0,0.0,0.0,0.0,0.0,0.0,0.0,0.0,0.0,0.0,0.0,0.0,0.0,0.0,0.0,0.0,0.0,0.0,0.0,0.0,0.0,0.0,0.0,0.0,0.0,0.0,2.9014,2.9577,2.9837,3.0133,2.9782,2.8895,2.7026,2.6172,2.5482,2.4412,2.4192,2.4192,2.4192,2.486,2.5668,2.6463,2.7742,2.9268,3.1133,3.2577,3.4137,3.6068,3.8927,4.0828,4.1081,4.2561,4.3506,4.3506,4.3506,4.3506,4.3506,4.3506,4.3506,4.3506,4.3506,4.3476,4.3429,4.3223,4.2985,4.2684,4.2313,4.1975,4.168,4.1447,4.13,4.1266,4.114,4.1093,4.1099,4.0953,4.0906,4.0906,4.0906,4.0906,4.0906,4.0906,4.0906,4.0819,0.0,0.0,0.0,0.0,0.0,0.0,0.0,1.4296,1.4352,1.4422,1.4508,1.4558,1.4607,1.4655,1.4704,1.4704,0.0,0.0,0.0,0.0,0.0,0.0,0.0,0.0,0.0,0.0,0.0,0.0,0.0,0.0,0.0,0.0,0.0,0.0,0.0,0.0,0.0,0.0,0.0,0.0,0.0,0.0,0.0,0.0,0.0,0.0,0.0,0.0,0.0,0.0,0.0,0.0,0.0,0.0,0.0,0.0,2.5125,2.5703,0.0,2.8088,2.8216,2.8717,2.8479,2.776,2.6447,2.5757,2.5175,2.4378,2.4192,2.4192,2.4192,2.5112,2.6012,2.6515,2.8201,3.0017,3.1623,3.2981,3.4651,3.6927,3.9786,4.1544,4.1544,4.2731,4.3506,4.3506,4.3506,4.3506,4.3506,4.3506,4.3506,4.3506,4.3471,4.3424,4.3327,4.3027,4.2734,4.2402,4.2038,4.1734,4.1521,4.1357,4.1295,4.1346,4.1198,4.1146,0.0,4.0971,4.0906,4.0906,4.0906,4.0906,4.0906,4.0906,4.0906,4.0819,0.0,0.0,0.0,0.0,0.0,0.0,0.0,0.0,0.0,1.4496,1.4563,1.4591,1.4612,1.4652,1.4705,1.4705,0.0,0.0,0.0,0.0,0.0,0.0,0.0,0.0,0.0,0.0,0.0,1.8895,2.0444,2.0755,1.9902,0.0,0.0,0.0,0.0,0.0,0.0,0.0,0.0,0.0,0.0,0.0,0.0,0.0,0.0,0.0,0.0,0.0,0.0,0.0,0.0,0.0,0.0,0.0,0.0,0.0,0.0,0.0,0.0,2.6424,2.6534,2.6589,2.6552,2.6319,2.5579,2.5361,0.0,2.436,2.4192,2.421,2.4266,2.5545,2.6625,2.668,2.8702,3.0831,3.2384,3.3436,3.522,3.8336,4.0726,4.2153,4.2208,4.2933,4.3433,4.3506,4.3506,4.3506,4.3506,4.3502,4.3493,4.3484,4.3402,4.33,4.3169,4.2826,4.2461,4.2072,4.1861,4.1621,4.1392,4.138,4.1454,4.156,4.1295,4.1192,4.118,4.0989,4.0906,4.0906,4.0906,4.0906,4.0906,4.0906,4.0906,4.0888,0.0,0.0,0.0,0.0,0.0,0.0,0.0,0.0,0.0,0.0,1.4583,1.4618,1.4675,1.4683,1.4705,0.0,0.0,0.0,0.0,0.0,0.0,0.0,0.0,0.0,0.0,0.0,0.0,1.8829,1.9765,2.0086,1.9827,1.9944,0.0,0.0,0.0,0.0,0.0,0.0,0.0,0.0,0.0,0.0,0.0,0.0,0.0,0.0,1.9769,1.9849,0.0,0.0,0.0,0.0,0.0,0.0,0.0,0.0,2.2234,2.2342,2.3527,0.0,2.5831,2.6445,2.6138,2.5631,0.0,2.4915,2.4433,2.4247,2.4192,2.4396,2.5007,2.5936,2.6791,2.7423,2.9533,3.1458,3.2457,3.493,3.7158,3.8538,3.9735,4.0712,4.1323,4.2117,4.2841,4.3455,4.3506,4.3506,4.3506,4.3459,4.338,4.3264,4.3004,4.2901,4.2975,4.2489,4.2119,4.1866,4.146,4.1267,4.1261,4.1181,4.1227,4.1283,4.1163,4.1117,4.1105,4.0965,4.0906,4.0906,4.0906,4.0906,4.0906,4.0906,4.0906,4.0819,0.0,0.0,0.0,0.0,0.0,0.0,0.0,0.0,0.0,0.0,0.0,0.0,0.0,0.0,0.0,0.0,0.0,0.0,0.0,0.0,0.0,0.0,0.0,0.0,0.0,0.0,0.0,0.0,0.0,2.0211,0.0,0.0,0.0,0.0,0.0,0.0,0.0,0.0,0.0,0.0,0.0,0.0,0.0,0.0,0.0,0.0,1.9506,1.9511,0.0,2.0019,2.042,2.0805,0.0,0.0,0.0,0.0,2.1516,2.1473,2.2676,2.3637,2.4486,2.5309,2.5165,2.4842,2.4842,2.4507,2.4192,0.0,0.0,0.0,2.5322,2.6667,2.7834,2.8277,3.069,3.3058,3.4633,3.7008,3.8627,3.8685,3.9735,4.0483,4.0538,4.1607,4.2488,4.2914,4.3286,4.3489,4.3464,4.3367,4.3228,4.3068,4.2735,4.2604,4.2663,4.219,4.1856,4.161,4.1273,4.1128,4.1152,4.1123,4.1146,4.1203,4.1128,4.1093,4.1099,4.0953,4.0906,4.0906,4.0906,4.0906,4.0906,4.0906,4.0906,4.0837,0.0,0.0,0.0,0.0,0.0,0.0,0.0,0.0,0.0,0.0,0.0,0.0,0.0,0.0,0.0,0.0,0.0,0.0,0.0,0.0,0.0,0.0,0.0,0.0,0.0,0.0,0.0,0.0,0.0,0.0,0.0,0.0,2.0314,0.0,0.0,0.0,0.0,0.0,0.0,0.0,0.0,0.0,0.0,0.0,0.0,0.0,0.0,0.0,0.0,1.9474,1.9941,2.0497,2.0426,0.0,0.0,0.0,0.0,0.0,2.2366,2.2916,2.3228,2.4155,2.4284,2.4229,2.436,0.0,0.0,0.0,0.0,0.0,0.0,2.7546,0.0,0.0,3.2078,3.4967,3.7199,3.8774,3.9464,3.8777,3.9892,4.0516,3.9945,4.1134,4.2047,4.2286,4.292,4.3317,4.3367,4.3219,4.2963,4.2635,4.2307,4.205,4.1899,4.1794,4.1604,4.1346,4.1152,4.1064,4.1064,4.1064,4.1105,4.1146,4.1094,4.1064,4.1058,4.0947,4.0906,4.0906,4.0906,4.0906,4.0906,4.0906,4.0906,4.0906,0.0,0.0,0.0,0.0,0.0,0.0,0.0,0.0,0.0,0.0,0.0,0.0,0.0,0.0,0.0,0.0,0.0,0.0,0.0,0.0,0.0,0.0,0.0,0.0,0.0,0.0,0.0,0.0,0.0,0.0,1.9628,1.9748,1.9721,0.0,0.0,0.0,0.0,0.0,0.0,0.0,0.0,0.0,0.0,0.0,0.0,0.0,0.0,0.0,0.0,1.9375,1.949,1.966,1.9532,0.0,0.0,0.0,0.0,0.0,2.1537,2.2483,2.3359,2.4839,2.4693,2.4378,2.5062,0.0,0.0,0.0,0.0,0.0,0.0,2.8295,2.9448,0.0,3.3773,3.6292,3.7345,3.8293,3.8832,3.8703,3.8924,3.9291,3.9853,4.0128,4.0822,4.2194,4.2357,4.2636,4.3201,4.2943,4.2352,4.1414,4.1047,4.0464,3.9612,4.0838,4.1364,4.114,4.0994,4.0935,4.0935,4.0935,4.0947,4.0948,4.0941,4.0935,4.0929,4.0912,4.0906,4.0906,4.0906,4.0906,4.0906,4.0906,4.0906,4.0906,0.0,0.0,0.0,0.0,0.0,0.0,0.0,0.0,0.0,0.0,0.0,0.0,0.0,0.0,0.0,0.0,0.0,0.0,0.0,0.0,0.0,0.0,0.0,0.0,0.0,0.0,0.0,0.0,0.0,1.9628,1.9608,1.9606,1.9606,1.9607,0.0,0.0,0.0,0.0,0.0,0.0,0.0,0.0,0.0,0.0,0.0,0.0,0.0,0.0,0.0,0.0,1.8987,1.9381,1.9327,0.0,0.0,0.0,0.0,0.0,2.1337,2.2067,2.2944,2.5422,2.5768,2.5582,2.5954,2.5768,0.0,0.0,0.0,0.0,0.0,0.0,3.1127,3.3645,3.5686,3.7232,3.8032,3.8469,3.8703,3.8703,3.8703,3.885,3.9221,3.9647,4.0196,4.0895,4.1255,4.1506,4.1674,4.1447,4.0971,4.0271,4.0016,3.9584,3.8935,3.9649,4.0156,4.0464,4.0752,4.0906,4.0906,4.0906,4.0906,4.0906,4.0906,4.0906,4.0906,4.0906,4.0906,4.0906,4.0906,4.0906,4.0906,4.0906,4.0906,4.0906,0.0,0.0,0.0,0.0,0.0,0.0,0.0,0.0,0.0,0.0,0.0,0.0,0.0,0.0,0.0,0.0,0.0,0.0,0.0,0.0,0.0,0.0,0.0,0.0,0.0,0.0,1.8994,1.9655,1.9628,1.9596,1.9594,1.9602,1.9607,0.0,0.0,0.0,0.0,0.0,0.0,0.0,0.0,0.0,0.0,0.0,0.0,0.0,0.0,0.0,0.0,0.0,0.0,0.0,0.0,0.0,0.0,1.9297,1.9297,1.9664,2.1337,2.1941,2.2818,2.5836,0.0,2.6463,2.7026,2.7011,0.0,0.0,0.0,0.0,0.0,3.1032,3.3204,3.6108,3.7268,3.7999,3.8612,3.8703,3.8703,3.8703,3.8703,3.8696,3.8658,3.9196,3.9585,3.9672,4.0119,4.0341,4.0264,4.0071,3.9704,3.9124,3.8993,3.87,3.822,3.8405,3.8872,3.9605,4.0112,4.0457,4.063,4.063,4.063,4.063,4.063,4.052,4.0365,4.0543,4.063,4.0647,4.0819,4.0906,4.0906,4.0906,4.0906,4.0906,0.0,0.0,0.0,0.0,0.0,0.0,0.0,0.0,0.0,0.0,0.0,0.0,0.0,0.0,0.0,0.0,0.0,0.0,0.0,0.0,0.0,0.0,0.0,0.0,0.0,1.8692,1.9509,1.9505,1.9563,1.9592,1.9592,1.9609,1.9607,1.9605,0.0,0.0,0.0,0.0,0.0,0.0,0.0,0.0,0.0,0.0,0.0,0.0,0.0,0.0,0.0,0.0,0.0,0.0,0.0,0.0,1.9297,1.9297,1.9297,1.9664,2.1337,2.2357,2.3504,2.5983,2.6046,0.0,2.8326,2.8243,0.0,2.9638,0.0,0.0,0.0,3.3158,3.5338,3.7121,3.8087,3.863,3.8681,3.8703,3.8703,3.8703,3.8703,3.8654,3.8525,3.8513,3.8747,3.9293,3.9219,3.9349,3.9817,3.9646,3.9054,3.7959,3.7844,3.7387,3.6489,3.7219,3.7967,3.8686,3.8744,3.9117,3.979,3.979,3.979,3.979,3.979,3.9393,3.883,3.9497,3.979,3.9859,4.0612,4.0906,4.0906,4.0906,4.0906,4.0906,0.0,0.0,0.0,0.0,0.0,0.0,0.0,0.0,0.0,0.0,0.0,0.0,0.0,0.0,0.0,0.0,0.0,0.0,0.0,0.0,0.0,0.0,0.0,1.7014,1.7039,1.8678,1.9533,1.9492,1.9521,1.9533,1.9545,1.9545,0.0,0.0,0.0,0.0,0.0,0.0,0.0,0.0,0.0,0.0,0.0,0.0,0.0,0.0,0.0,0.0,0.0,0.0,1.7686,1.8241,1.9056,1.9297,1.9297,1.9297,1.9297,1.9664,2.1337,2.2012,2.2944,2.5873,2.6371,0.0,0.0,2.9898,3.0344,3.1451,3.2097,0.0,0.0,3.5135,3.6637,3.7267,3.8058,3.8609,3.8696,3.8703,3.8666,3.8597,3.8532,3.8487,3.8377,3.8246,3.8225,3.8422,3.8169,3.8034,3.8129,3.7933,3.7573,3.7002,3.6967,3.6745,3.6301,3.6599,3.6892,3.7186,3.8134,3.8744,3.9014,3.9014,3.9014,3.9014,3.9014,3.8864,3.8657,3.9393,3.9704,3.9773,4.0595,4.0906,4.0906,4.0906,4.0906,4.0906,0.0,0.0,0.0,0.0,0.0,0.0,0.0,0.0,0.0,0.0,0.0,0.0,0.0,0.0,0.0,0.0,0.0,0.0,0.0,0.0,0.0,0.0,0.0,1.6702,1.6958,1.8348,1.9191,1.9469,1.9484,1.9497,1.9505,0.0,0.0,0.0,0.0,0.0,0.0,0.0,0.0,0.0,0.0,0.0,0.0,0.0,0.0,0.0,0.0,0.0,0.0,0.0,1.7277,1.7908,1.8965,1.9297,1.9297,1.9297,1.9297,1.9664,2.1337,2.1996,2.2889,2.5855,0.0,0.0,3.0081,3.1204,3.2082,3.3133,3.3982,3.4754,3.5491,0.0,3.7344,3.76,3.8124,3.8555,3.8673,3.8662,3.8597,3.8482,3.8374,3.8261,3.8172,3.7959,3.7766,3.7663,3.7379,3.7115,3.6918,3.6781,3.6619,3.6438,3.6433,3.6397,3.6301,3.6301,3.6301,3.6318,3.7375,3.8019,3.8243,3.8243,3.8243,3.8243,3.8243,3.8105,3.7927,3.8686,3.9135,3.9411,3.9957,4.0319,4.052,4.052,4.0681,4.0906,0.0,0.0,0.0,0.0,0.0,0.0,0.0,0.0,0.0,0.0,0.0,0.0,0.0,0.0,0.0,0.0,0.0,0.0,0.0,0.0,0.0,0.0,0.0,1.6076,1.6888,1.7686,1.8533,1.9396,1.9463,1.9505,1.9505,1.9505,0.0,0.0,0.0,0.0,0.0,0.0,0.0,0.0,0.0,0.0,0.0,0.0,0.0,0.0,0.0,0.0,0.0,0.0,1.6907,1.7183,1.8796,1.9297,1.9297,1.9315,1.9315,1.9683,2.1355,2.2393,2.3593,0.0,0.0,0.0,3.102,3.2027,3.3078,3.4704,3.5604,3.6339,3.7074,3.7204,3.7467,3.8263,3.8454,3.8533,3.8688,3.8575,3.8474,3.8399,3.8228,3.8039,3.7908,3.7586,3.7314,3.71,3.6916,3.6718,3.6513,3.6502,3.6433,3.6306,3.6301,3.6301,3.6301,3.6301,3.6301,3.6301,3.6301,3.672,3.749,3.749,3.749,3.749,3.749,3.7036,3.6353,3.7179,3.7933,3.8606,3.8606,3.9054,3.9687,3.9704,4.021,4.0894,0.0,0.0,0.0,0.0,0.0,0.0,0.0,0.0,0.0,0.0,0.0,0.0,0.0,0.0,0.0,0.0,0.0,0.0,0.0,0.0,0.0,0.0,0.0,0.0,0.0,0.0,1.8504,1.9329,1.9401,1.9407,0.0,0.0,0.0,1.9368,0.0,0.0,0.0,0.0,0.0,0.0,0.0,0.0,0.0,0.0,0.0,0.0,0.0,0.0,0.0,0.0,0.0,0.0,1.8796,1.9297,1.9405,1.9983,2.0146,2.0513,2.2185,2.3233,0.0,2.6148,0.0,0.0,0.0,3.2901,0.0,0.0,3.7446,3.7547,3.7665,3.769,3.7792,3.8071,3.8168,3.8269,3.8409,3.8307,3.8182,3.8063,3.7797,3.7568,3.7489,3.7174,3.6947,3.6896,3.6695,3.6552,3.6508,3.6412,3.6332,3.6301,3.6301,3.6301,3.6301,3.6301,3.6301,3.6301,3.6301,3.6422,3.6668,3.6668,3.6668,3.6668,3.6668,3.653,3.6353,3.7179,3.7933,3.8606,3.8606,3.8726,3.8985,3.9514,3.9859,4.0141,0.0,0.0,0.0,0.0,0.0,0.0,0.0,0.0,0.0,0.0,0.0,0.0,0.0,0.0,0.0,0.0,0.0,0.0,0.0,0.0,0.0,0.0,0.0,0.0,0.0,1.7686,1.8185,0.0,0.0,0.0,0.0,0.0,0.0,1.9297,0.0,1.9111,0.0,0.0,0.0,0.0,0.0,1.7577,1.6418,0.0,0.0,0.0,0.0,0.0,0.0,0.0,0.0,0.0,1.8796,1.9297,1.9407,1.9875,2.0242,2.0867,2.2516,2.3773,0.0,2.7033,2.8737,3.0537,3.2734,0.0,0.0,0.0,3.814,3.7972,3.7806,3.7801,3.7823,3.7871,3.7954,3.8061,3.8172,3.8039,3.7889,3.7721,3.744,3.7225,3.7102,3.6854,3.6687,3.6687,3.6516,3.6418,3.6418,3.6338,3.6301,3.6301,3.6301,3.6301,3.6301,3.6301,3.6301,3.6301,3.6301,3.6301,3.6301,3.6301,3.6301,3.6301,3.6301,3.6301,3.6335,3.6823,3.7295,3.7691,3.7691,3.7881,3.8226,3.8657,3.902,3.9324,0.0,0.0,0.0,0.0,0.0,0.0,0.0,0.0,0.0,0.0,0.0,0.0,0.0,0.0,0.0,0.0,0.0,0.0,0.0,0.0,0.0,0.0,0.0,0.0,0.0,0.0,0.0,0.0,0.0,0.0,0.0,0.0,1.8594,1.9297,0.0,1.8853,0.0,0.0,0.0,0.0,1.6907,1.642,1.5697,1.5697,0.0,0.0,0.0,0.0,0.0,0.0,0.0,0.0,1.8796,1.9297,1.9315,1.9387,1.9973,2.0955,2.2564,2.4188,2.5976,2.8325,3.0265,0.0,3.5301,3.6013,3.6431,3.7773,0.0,3.7788,3.7572,3.7591,3.7654,3.7663,3.777,3.7859,3.7937,3.7766,3.7555,3.7375,3.7163,3.6967,3.6786,3.6606,3.6487,3.6487,3.6376,3.6301,3.6301,3.6301,3.6301,3.6301,3.6301,3.6301,3.6301,3.6301,3.6301,3.6301,3.6301,3.6301,3.6301,3.6301,3.6301,3.6301,3.6301,3.6301,3.6301,3.6301,3.6301,3.6301,3.6301,3.676,3.7403,3.7472,3.7916,3.8502,0.0,0.0,0.0,0.0,0.0,0.0,0.0,0.0,0.0,0.0,0.0,0.0,0.0,0.0,0.0,0.0,0.0,0.0,0.0,0.0,0.0,0.0,0.0,0.0,0.0,0.0,0.0,0.0,0.0,0.0,0.0,0.0,0.0,1.9297,0.0,1.8853,0.0,0.0,0.0,1.6907,1.6907,1.642,1.5697,1.5697,1.5197,0.0,0.0,0.0,0.0,0.0,0.0,0.0,1.8796,1.9297,1.9424,2.0056,2.0812,2.1789,2.3398,2.5011,0.0,2.8451,3.1037,3.3588,3.5293,3.605,3.6639,3.7533,3.7554,3.7367,3.7172,3.7175,3.7261,3.7359,3.741,3.7433,3.7456,3.7279,3.7097,3.6955,3.6751,3.6609,3.6575,3.6433,3.6332,3.6332,3.6311,3.6301,3.6301,3.6301,3.6301,3.6301,3.6301,3.6301,3.6301,3.6301,3.6301,3.6301,3.6301,3.6301,3.6301,3.6301,3.6301,3.6301,3.6301,3.6301,3.6301,3.6301,3.6301,3.6301,3.6301,3.641,3.6634,3.7265,3.7593,3.7818,0.0,0.0,0.0,0.0,0.0,0.0,0.0,0.0,0.0,0.0,0.0,0.0,0.0,0.0,0.0,0.0,0.0,0.0,0.0,0.0,1.4393,1.495,0.0,0.0,0.0,0.0,0.0,0.0,0.0,0.0,0.0,0.0,0.0,1.9297,0.0,1.8649,0.0,0.0,0.0,1.5755,1.5755,1.5501,1.5123,1.5123,1.4863,1.4492,1.4492,0.0,0.0,0.0,0.0,0.0,0.0,0.0,1.9387,1.9803,2.0466,2.1436,2.3045,0.0,0.0,2.9213,0.0,3.374,3.5021,3.5797,3.6437,3.7034,3.7196,3.714,3.6935,3.7001,3.7108,3.7153,3.7158,3.7134,3.7076,3.6938,3.6803,3.6677,3.6552,3.6464,3.6412,3.6332,3.6301,3.6301,3.6301,3.6301,3.6301,3.6301,3.6301,3.6301,3.6301,3.6301,3.6301,3.6301,3.6301,3.6301,3.6301,3.6301,3.6301,3.6301,3.6301,3.6301,3.6301,3.6301,3.6301,3.6301,3.6301,3.6301,3.6301,3.6301,3.6353,3.6772,3.6906,3.6926,0.0,0.0,0.0,0.0,0.0,0.0,0.0,0.0,0.0,0.0,0.0,0.0,0.0,0.0,0.0,0.0,0.0,0.0,0.0,1.4115,1.4576,1.5555,0.0,0.0,0.0,0.0,0.0,0.0,0.0,0.0,0.0,0.0,0.0,1.9315,0.0,0.0,0.0,0.0,1.5973,1.4492,1.4506,1.4504,1.4504,1.448,1.4482,1.4504,1.4504,1.4507,1.4622,1.5437,0.0,0.0,0.0,0.0,1.9297,1.9297,1.9833,2.0778,2.2387,0.0,2.6558,3.0089,3.2051,0.0,3.4505,3.5384,3.606,3.6394,3.6764,3.6967,3.6776,3.6906,3.7019,3.6963,3.6933,3.6866,3.6756,3.6689,3.6592,3.6487,3.6477,3.6418,3.6311,3.6301,3.6301,3.6301,3.6301,3.6301,3.6301,3.6301,3.6301,3.6301,3.6301,3.6301,3.6301,3.6301,3.6301,3.6301,3.6301,3.6301,3.6301,3.6301,3.6301,3.6301,3.6301,3.6301,3.6301,3.6301,3.6301,3.6301,3.6301,3.629,3.6274,3.6274,3.6212,3.6134,0.0,0.0,0.0,0.0,0.0,0.0,0.0,0.0,0.0,0.0,0.0,1.3755,1.3816,1.3818,0.0,0.0,0.0,0.0,1.4097,0.0,0.0,0.0,0.0,0.0,0.0,0.0,0.0,0.0,0.0,0.0,0.0,0.0,0.0,1.9334,0.0,0.0,0.0,0.0,0.0,1.4509,1.4508,1.4501,1.4496,1.4435,1.4441,1.4501,1.4501,1.4494,1.4622,1.5437,1.6238,0.0,0.0,0.0,1.9297,1.9297,1.9857,2.0834,2.2442,0.0,2.8575,0.0,3.1797,3.2941,0.0,0.0,3.5708,3.5595,3.6207,3.671,3.6564,3.6664,3.6745,3.6735,3.6636,3.6564,3.6549,3.6433,3.636,3.6322,3.6322,3.6317,3.6301,3.6301,3.6301,3.6301,3.6301,3.6301,3.6301,3.6301,3.6301,3.6301,3.6301,3.6301,3.6301,3.6301,3.6301,3.6301,3.6301,3.6301,3.6301,3.6301,3.6301,3.6301,3.6301,3.6301,3.6301,3.6301,3.6301,3.6301,3.6301,3.6265,3.6208,3.6208,3.6058,3.5839,0.0,0.0,0.0,0.0,0.0,0.0,0.0,0.0,0.0,0.0,0.0,1.3663,1.374,1.374,0.0,0.0,0.0,0.0,1.4099,1.4196,0.0,0.0,0.0,0.0,0.0,0.0,0.0,0.0,0.0,0.0,0.0,1.9746,2.0713,0.0,0.0,0.0,0.0,0.0,0.0,1.5112,1.5073,1.5067,1.5109,1.5527,1.5431,1.5057,1.5057,1.4823,1.4548,1.4919,1.5857,1.6962,1.7313,0.0,0.0,0.0,1.9556,2.0247,2.2199,2.4558,2.6915,0.0,3.0279,3.1512,3.2538,3.3526,3.4322,3.4604,3.5319,3.599,3.6416,3.6608,3.6681,3.6602,3.6534,3.6464,3.6402,3.6332,3.6301,3.6301,3.6301,3.6301,3.6301,3.6301,3.6301,3.6301,3.6301,3.6301,3.6301,3.6301,3.6301,3.6301,3.6301,3.6301,3.6301,3.6265,3.6207,3.6137,3.6137,3.6137,3.6137,3.6137,3.6175,3.6233,3.6233,3.6202,3.6137,3.6137,3.6137,3.6137,3.6137,3.6068,3.596,3.5894,3.5723,3.5481,0.0,0.0,0.0,0.0,0.0,0.0,0.0,0.0,0.0,0.0,0.0,0.0,1.3686,0.0,0.0,0.0,0.0,0.0,1.407,0.0,0.0,0.0,0.0,0.0,0.0,0.0,0.0,0.0,0.0,0.0,1.6717,1.9583,2.0751,0.0,2.0687,0.0,0.0,0.0,0.0,0.0,0.0,1.6051,1.6115,1.6913,1.6728,1.6038,1.6045,1.5621,1.5031,1.5057,1.5996,1.7174,1.7174,1.8163,0.0,0.0,0.0,1.9756,0.0,0.0,2.5043,2.7496,2.8776,2.9807,3.1198,3.2165,3.2904,3.3415,3.4254,3.5181,3.6018,3.639,3.6577,3.6477,3.6444,3.6412,3.6311,3.6301,3.6301,3.6301,3.6301,3.6301,3.6301,3.6301,3.6301,3.6301,3.6301,3.6301,3.6301,3.6301,3.6301,3.6301,3.6301,3.629,3.6264,3.616,3.602,3.5855,3.5855,3.5822,3.5794,3.5794,3.5844,3.5927,3.6059,3.6025,3.5899,3.5899,3.5899,3.5899,3.5866,3.5772,3.565,3.5458,3.5269,3.5053,0.0,0.0,0.0,0.0,0.0,0.0,0.0,0.0,0.0,0.0,0.0,0.0,0.0,0.0,0.0,0.0,0.0,0.0,0.0,0.0,0.0,0.0,0.0,0.0,0.0,0.0,0.0,0.0,0.0,0.0,1.6556,1.8307,1.9527,2.0257,2.1211,2.0725,1.9142,0.0,0.0,0.0,0.0,0.0,1.7576,1.8311,1.8146,1.75,1.7567,0.0,0.0,0.0,1.7186,1.7931,1.7931,1.8564,1.9138,0.0,0.0,0.0,0.0,2.3068,0.0,2.733,2.7876,2.8041,2.9576,3.0933,3.1883,3.1908,3.3115,3.4384,3.5126,3.5833,3.6317,3.6311,3.6311,3.6306,3.6301,3.6301,3.6301,3.6301,3.6301,3.6301,3.6301,3.6301,3.6301,3.6301,3.6301,3.6301,3.6301,3.6301,3.6301,3.6301,3.6301,3.6276,3.6215,3.5943,3.5684,3.5436,3.5436,3.5356,3.5241,3.5241,3.5206,3.5176,3.5633,3.5734,3.5622,3.5622,3.5622,3.5611,3.5481,3.5384,3.5291,3.4962,3.4712,3.4497,0.0,0.0,0.0,0.0,0.0,0.0,0.0,0.0,0.0,0.0,0.0,0.0,0.0,0.0,0.0,0.0,0.0,0.0,0.0,0.0,0.0,0.0,0.0,0.0,0.0,0.0,0.0,0.0,0.0,1.5284,1.571,1.7904,1.911,1.9475,2.0399,2.0439,1.9748,1.836,0.0,0.0,0.0,0.0,0.0,1.9621,1.9631,1.8945,1.8977,0.0,0.0,0.0,0.0,1.8495,1.8011,1.8471,1.9105,1.8798,1.8854,1.9294,0.0,0.0,0.0,2.4551,2.6234,2.7635,2.8203,2.9357,3.0472,3.0998,3.1913,3.2839,3.3593,3.4754,3.5754,3.6215,3.6301,3.6301,3.6301,3.6301,3.6301,3.6301,3.6301,3.6301,3.6301,3.6301,3.6301,3.6301,3.6301,3.6301,3.6301,3.6301,3.6301,3.6301,3.6255,3.6057,3.57,3.5424,3.516,3.4943,3.486,3.4794,3.4753,3.4753,3.4687,3.4594,3.4753,3.4902,3.5024,3.4925,3.4884,3.4884,3.4836,3.4763,3.4631,3.4431,3.4253,3.4075,0.0,0.0,0.0,0.0,0.0,0.0,0.0,0.0,0.0,0.0,0.0,0.0,0.0,0.0,0.0,0.0,0.0,0.0,0.0,0.0,0.0,0.0,0.0,0.0,0.0,0.0,0.0,0.0,0.0,0.0,0.0,1.6883,1.7805,1.8138,1.8971,1.9648,0.0,0.0,0.0,1.8375,0.0,0.0,1.9787,2.1091,2.1106,2.0393,0.0,0.0,0.0,0.0,0.0,1.9125,1.8627,1.8532,1.8657,1.8947,1.8729,1.8635,1.9686,0.0,0.0,0.0,2.4977,2.6784,2.7034,2.8145,2.9282,2.9821,3.0722,3.1666,3.2386,3.3576,3.4754,3.5771,3.6146,3.6301,3.6301,3.6301,3.6301,3.6301,3.6301,3.6301,3.6301,3.6301,3.6301,3.6301,3.6301,3.6301,3.6301,3.6301,3.6269,3.6195,3.6024,3.5711,3.5235,3.4962,3.4705,3.4429,3.4343,3.4275,3.4232,3.4232,3.4182,3.4094,3.405,3.4207,3.4491,3.4399,3.4368,3.4362,3.4319,3.4244,3.4144,3.3962,3.3835,3.3726,0.0,0.0,0.0,0.0,0.0,0.0,0.0,0.0,0.0,0.0,0.0,0.0,0.0,0.0,0.0,0.0,0.0,0.0,0.0,0.0,0.0,0.0,0.0,0.0,0.0,0.0,0.0,0.0,0.0,0.0,0.0,0.0,1.5581,1.6299,1.7099,1.8366,1.9827,0.0,1.9079,1.9774,0.0,2.1302,2.1974,0.0,2.2548,0.0,2.1866,2.1403,0.0,2.0817,0.0,0.0,1.9815,1.8819,1.7823,1.8641,1.8206,1.7783,0.0,0.0,0.0,0.0,2.4176,2.5352,2.6062,2.7326,2.8334,2.8368,2.9584,3.086,3.1632,3.2369,3.3369,3.4892,3.5771,3.6266,3.6266,3.6284,3.6301,3.6301,3.6301,3.6301,3.6301,3.6296,3.6296,3.6296,3.6296,3.629,3.629,3.6285,3.619,3.5986,3.5594,3.5218,3.4893,3.4606,3.4281,3.3886,3.3879,3.3809,3.3697,3.3697,3.3697,3.3691,3.3555,3.3723,3.4075,3.4075,3.4075,3.4063,3.393,3.3879,3.3848,3.3594,3.349,3.3477,0.0,0.0,0.0,0.0,0.0,0.0,1.3603,1.3603,1.3603,0.0,0.0,0.0,0.0,0.0,0.0,0.0,0.0,0.0,0.0,1.3638,1.3615,1.3603,1.3603,1.3603,0.0,0.0,0.0,0.0,0.0,0.0,0.0,0.0,0.0,0.0,1.6154,1.6745,1.7238,1.8161,0.0,1.9752,2.0464,2.119,0.0,0.0,0.0,0.0,0.0,2.3241,2.2989,0.0,2.1406,2.1057,0.0,0.0,1.8994,1.8695,1.8373,1.833,1.9342,0.0,0.0,0.0,0.0,0.0,2.4528,2.5685,2.6898,2.7471,2.8372,2.9442,3.0752,3.1619,3.2425,3.3386,3.4633,3.549,3.549,3.5956,3.6301,3.6301,3.6301,3.6301,3.6301,3.6255,3.6229,3.6229,3.6137,3.6072,3.6072,3.5986,3.5822,3.5571,3.5229,3.4853,3.4466,3.4107,3.3816,3.3613,3.3516,3.3444,3.3411,3.3411,3.3411,3.3405,3.3365,3.3418,3.3522,3.3522,3.3522,3.3522,3.3477,3.3464,3.3457,3.3372,3.3361,3.3346,0.0,0.0,0.0,0.0,0.0,1.4555,1.4555,1.4555,1.4555,0.0,0.0,0.0,0.0,0.0,0.0,0.0,0.0,0.0,0.0,1.3795,1.3603,1.3603,1.3603,1.3603,1.3603,0.0,0.0,0.0,0.0,0.0,0.0,0.0,0.0,0.0,1.5235,1.5745,1.6134,1.7383,0.0,0.0,2.0379,0.0,0.0,2.3468,2.3884,0.0,0.0,0.0,2.433,2.3433,2.2729,0.0,2.0483,2.0016,1.9929,1.95,1.9333,0.0,1.9829,2.0494,0.0,2.1677,0.0,0.0,2.3901,2.5041,2.6236,2.6695,2.7644,2.8661,2.9562,3.0334,3.1093,3.1856,3.2995,3.4012,3.4655,3.5116,3.5495,3.5801,3.584,3.594,3.6226,3.6224,3.6144,3.6036,3.5965,3.5866,3.5767,3.5656,3.5447,3.5113,3.4817,3.4454,3.405,3.3752,3.3548,3.3427,3.3332,3.3309,3.3309,3.3309,3.3309,3.3309,3.3309,3.3309,3.3309,3.3309,3.3309,3.3309,3.3309,3.3309,3.3309,3.3309,3.3309,3.3309,0.0,0.0,1.5122,1.5783,1.5899,1.5899,1.5899,1.5899,1.5899,0.0,0.0,0.0,0.0,0.0,0.0,0.0,0.0,0.0,0.0,1.4127,1.3689,1.3601,1.3603,1.3603,1.3603,1.3603,0.0,0.0,0.0,0.0,0.0,0.0,0.0,0.0,1.4377,1.5107,1.5928,1.6642,0.0,1.9535,2.0295,2.1525,0.0,0.0,2.4043,2.4143,2.4877,2.5119,2.5105,2.5036,2.4126,0.0,2.1392,2.0894,2.0822,2.0741,2.0611,0.0,2.0668,2.1183,0.0,2.1974,2.2905,0.0,2.3977,2.5041,2.5994,2.608,2.726,2.8299,2.8385,2.8937,2.964,3.0442,3.1119,3.2115,3.3746,3.4034,3.4345,3.5,3.5087,3.5304,3.5888,3.592,3.5836,3.5631,3.5644,3.5549,3.5316,3.5234,3.5018,3.4643,3.4374,3.405,3.3691,3.3548,3.3418,3.3309,3.3309,3.3309,3.3309,3.3309,3.3309,3.3309,3.3309,3.3309,3.3309,3.3309,3.3309,3.3309,3.3309,3.3309,3.3309,3.3309,3.3309,3.3309,0.0,0.0,1.5733,1.5864,1.5899,1.5899,1.5899,1.5899,1.5899,0.0,0.0,0.0,0.0,0.0,0.0,0.0,0.0,0.0,0.0,1.4649,1.4284,1.3637,1.3603,1.3603,1.3603,1.3603,1.3607,0.0,0.0,0.0,0.0,0.0,0.0,0.0,1.3768,1.4273,1.5075,1.5825,0.0,1.9411,2.0206,2.1791,2.3777,2.4503,2.5147,2.5667,2.5826,2.5895,2.5791,2.5209,2.4802,2.4419,2.3474,2.2769,2.2171,2.1587,2.0936,2.0556,2.1222,2.1512,2.1917,2.3114,2.3177,0.0,2.4499,2.5009,2.5377,2.5981,2.6851,2.77,2.8282,2.8523,2.8868,2.9605,2.9847,3.0692,3.2835,3.3684,3.4155,3.4293,3.431,3.4317,3.4344,3.4192,3.4195,3.4415,3.464,3.4723,3.4691,3.4564,3.4411,3.4219,3.3962,3.3736,3.3542,3.3405,3.3335,3.3309,3.3309,3.3309,3.3309,3.3309,3.3309,3.3309,3.3309,3.3309,3.3309,3.3309,3.3309,3.3309,3.3309,3.3309,3.3309,3.3309,3.3309,3.3309,0.0,1.6447,1.6588,1.6972,1.7043,1.7043,1.7043,1.7368,1.7609,0.0,0.0,0.0,0.0,0.0,0.0,0.0,0.0,0.0,0.0,1.5213,1.444,1.3637,1.3603,1.3603,1.3603,1.3603,1.3603,0.0,0.0,0.0,0.0,0.0,0.0,0.0,1.4021,1.4621,1.5419,0.0,1.8126,1.9883,2.0295,0.0,2.3384,2.4129,2.4877,2.5601,2.5963,2.636,2.6571,2.5812,2.555,0.0,2.465,2.4133,2.3771,0.0,2.3015,2.2788,2.3191,2.3295,2.3467,2.4219,2.4115,0.0,0.0,2.5274,2.5653,2.6011,2.6747,2.7406,2.7786,2.7855,2.8096,2.883,2.895,2.9485,3.0985,3.1908,3.2653,3.3375,3.3483,3.3567,3.3729,3.3663,3.3521,3.3356,3.363,3.3769,3.3701,3.3956,3.4006,3.3803,3.3662,3.3535,3.3398,3.3326,3.3309,3.3309,3.3309,3.3309,3.3309,3.3309,3.3309,3.3309,3.3309,3.3309,3.3309,3.3309,3.3309,3.3309,3.3309,3.3309,3.3309,3.3309,3.3309,3.3309,0.0,1.7222,1.7434,1.8097,1.82,1.82,1.82,1.8838,1.9401,0.0,0.0,0.0,0.0,0.0,0.0,0.0,0.0,0.0,0.0,1.6114,1.5038,1.4078,1.4044,1.3979,1.3827,1.3829,1.376,1.3603,0.0,0.0,0.0,1.3603,1.3672,1.3864,0.0,0.0,0.0,0.0,0.0,2.0639,0.0,2.1555,2.2992,2.375,2.4525,2.5312,2.6053,2.6747,2.7199,2.6553,2.6326,2.6226,2.5626,2.5347,0.0,0.0,2.5105,2.5002,2.5002,2.5002,2.5036,2.5174,2.5105,2.5071,0.0,0.0,0.0,2.6291,2.6854,2.7307,2.7307,2.7307,2.7493,2.8096,2.8182,2.8458,2.9174,2.9855,3.0734,3.1991,3.2328,3.2573,3.2898,3.3034,3.2858,3.2273,3.254,3.2686,3.2576,3.3225,3.3496,3.3286,3.3384,3.3405,3.3309,3.3309,3.3309,3.3309,3.3309,3.3309,3.3309,3.3309,3.3309,3.3309,3.3309,3.3309,3.3309,3.3309,3.3309,3.3309,3.3309,3.3309,3.3309,3.3309,3.3309,3.3309,1.8045,1.806,1.8097,1.8183,1.82,1.82,1.82,1.8838,1.9783,0.0,0.0,0.0,0.0,0.0,0.0,0.0,0.0,0.0,1.8166,0.0,0.0,1.5694,1.5643,1.5329,1.4686,1.4666,1.4317,1.3603,0.0,0.0,0.0,1.3603,1.3987,1.4701,1.5432,0.0,0.0,0.0,2.0059,0.0,2.1461,2.2357,0.0,2.4567,2.5329,2.6088,2.6885,2.7217,2.729,0.0,2.7165,2.7152,0.0,2.6557,2.5981,2.5981,2.5515,2.5002,2.5002,2.5002,2.5157,2.5808,2.5484,2.5364,2.6734,0.0,2.6291,2.7027,0.0,2.7307,2.7307,0.0,0.0,2.7406,2.7424,2.7682,2.842,2.861,2.8942,2.9691,3.0377,3.07,3.0523,3.0983,3.1195,3.0934,3.1226,3.1414,3.1396,3.2086,3.246,3.2443,3.3009,3.3322,3.3309,3.3309,3.3309,3.3309,3.3309,3.3309,3.3309,3.3309,3.3309,3.3309,3.3309,3.3309,3.3309,3.3309,3.3309,3.3309,3.3309,3.3309,3.3309,3.3309,3.3309,3.3309,1.82,1.82,0.0,1.82,1.82,1.8338,1.8766,1.9855,2.1013,0.0,0.0,0.0,0.0,0.0,0.0,0.0,0.0,2.1285,0.0,0.0,0.0,1.6585,1.6137,1.5768,1.5454,1.5023,1.4632,1.4302,1.3829,0.0,0.0,0.0,1.4476,1.4876,1.6503,1.7594,1.8306,1.9941,2.1254,0.0,0.0,2.3526,0.0,2.4353,2.5046,2.6205,2.7006,2.7307,2.7307,2.7307,2.7307,2.7307,2.7307,2.7061,2.6799,2.6799,2.6575,2.6437,2.6868,2.6665,2.6509,2.7243,2.6885,2.6492,2.7152,2.7044,2.6885,2.7234,0.0,0.0,0.0,0.0,0.0,0.0,2.7307,2.7406,2.7717,2.7751,2.8146,2.9157,2.9638,2.9719,2.9327,2.924,2.9118,2.8914,2.9571,2.9982,2.9982,3.1043,3.1852,3.2282,3.257,3.2904,3.3309,3.3309,3.3309,3.3309,3.3309,3.3309,3.3309,3.3309,3.3309,3.3309,3.3309,3.3309,3.3309,3.3309,3.3309,3.3309,3.3309,3.3309,3.3309,3.3309,3.3309,3.3309,1.82,0.0,0.0,1.82,1.82,1.8528,1.9453,2.0906,2.2167,2.2905,0.0,0.0,2.4129,2.465,0.0,0.0,2.3963,2.2896,0.0,0.0,1.8943,1.7951,1.7384,1.6932,1.6538,1.601,1.5519,1.5105,1.4511,1.4231,0.0,0.0,1.5208,1.5499,1.7568,1.8737,1.9269,0.0,2.2623,2.3343,2.3894,2.4555,2.5177,2.4624,2.5205,2.6424,2.7004,2.7352,2.7524,2.7524,2.7644,2.7795,2.7588,2.7524,2.7489,2.7283,2.7365,2.764,2.8173,2.8104,2.7952,2.8271,2.7968,2.7544,2.7355,2.7307,2.7307,2.7307,2.7307,0.0,0.0,0.0,0.0,0.0,0.0,2.7217,2.701,2.6971,2.7377,2.8494,2.8819,2.8882,2.8676,2.817,2.7776,2.7551,2.8335,2.8836,2.8836,3.0158,3.1261,3.1985,3.2181,3.2617,3.3293,3.3309,3.3309,3.3309,3.3309,3.3309,3.3309,3.3309,3.3309,3.3309,3.3309,3.3309,3.3309,3.3309,3.3309,3.3309,3.3309,3.3309,3.3309,3.3309,3.3309,3.3309,1.82,1.82,0.0,0.0,1.82,1.8683,2.0139,2.1679,2.2936,2.3677,2.446,0.0,0.0,0.0,0.0,0.0,0.0,2.4192,2.2664,2.2446,2.1708,2.0255,2.0172,1.9519,1.8166,1.8097,1.7353,1.5864,1.5847,1.5832,0.0,0.0,0.0,1.6999,1.8574,2.0096,2.1581,2.3095,2.4159,2.4827,2.4865,2.5272,2.5884,2.5908,2.6365,2.6965,2.7003,2.7468,2.8066,2.8066,2.8549,2.9006,2.8305,2.8066,2.7925,2.7225,2.7516,2.8083,2.8101,2.8712,2.9149,2.8399,2.829,2.8178,2.7458,2.7307,2.7307,2.7307,2.7307,2.7307,2.7307,0.0,0.0,0.0,0.0,0.0,0.0,2.6136,2.6394,2.7097,2.7564,2.8021,2.8462,2.807,2.7683,2.7427,2.7862,2.8131,2.8131,2.9471,3.0534,3.1204,3.1937,3.2617,3.3293,3.3309,3.3309,3.3309,3.3309,3.3309,3.3309,3.3309,3.3309,3.3309,3.3309,3.3309,3.3309,3.3309,3.3309,3.3309,3.3309,3.3309,3.3309,3.3309,3.3309,3.3309,0.0,0.0,0.0,0.0,0.0,1.87,2.017,2.2123,2.3522,2.3764,2.4925,0.0,0.0,2.6098,2.6363,0.0,0.0,2.5343,2.4822,2.3815,2.2784,2.1793,2.1254,2.0502,1.9535,1.8604,1.7871,1.7353,1.6379,1.5899,1.5916,0.0,0.0,0.0,1.912,2.056,0.0,0.0,0.0,0.0,2.591,2.6433,2.6927,2.6693,2.7019,2.759,2.756,2.8004,2.8627,2.8627,2.8801,2.8953,2.8712,2.8627,2.8576,2.8334,2.8436,2.8733,2.9225,2.9289,2.9251,2.9468,2.8865,2.8146,2.7935,2.7513,2.7184,2.7274,2.7225,2.7184,2.7274,0.0,0.0,0.0,0.0,0.0,0.0,2.567,2.5627,2.6294,2.6287,2.6411,2.6924,2.6585,2.6252,2.6034,2.6449,2.6925,2.7415,2.8311,2.9333,3.0508,3.1207,3.1915,3.2633,3.3078,3.3309,3.3309,3.3309,3.3309,3.3309,3.3309,3.3309,3.3309,3.3309,3.3309,3.3309,3.3309,3.3309,3.3309,3.3309,3.3309,3.3309,3.3309,3.3309,3.3309,1.8597,0.0,0.0,0.0,1.8628,1.9404,2.0645,2.2744,2.4197,2.4197,2.5716,2.6786,2.6698,0.0,2.7657,0.0,2.6762,2.6234,2.5684,2.4686,0.0,2.3059,2.2538,2.1829,2.0905,2.0016,1.9318,1.8808,1.7644,1.7069,1.7087,0.0,0.0,0.0,0.0,2.1056,2.2301,2.3475,2.4779,0.0,2.6644,2.7215,2.7683,2.745,2.7617,2.7972,2.7922,2.8344,2.8941,2.8941,2.913,2.9309,2.9025,2.8941,2.887,2.8615,2.876,2.9111,2.9594,2.9688,2.9719,2.9904,2.9344,2.8694,2.8488,2.8126,2.783,2.796,2.7889,2.7766,2.7617,0.0,0.0,0.0,0.0,0.0,0.0,2.5182,2.5041,2.5422,2.5491,2.5707,2.6189,2.5862,2.5539,2.5323,2.573,2.6319,2.7062,2.7731,2.8754,3.0151,3.086,3.1548,3.2291,3.2952,3.3309,3.3309,3.3309,3.3309,3.3309,3.3309,3.3309,3.3309,3.3309,3.3309,3.3309,3.3309,3.3309,3.3309,3.3309,3.3309,3.3309,3.3309,3.3309,3.3309,1.9344,1.9349,1.9163,1.8528,1.9559,2.0725,2.1527,2.3505,2.4913,2.4944,2.6774,2.8037,2.7899,2.859,2.8702,2.7796,2.7599,2.6898,2.5395,2.5177,0.0,0.0,2.4033,2.3457,2.2207,2.2219,2.1555,2.0191,1.9584,1.9261,1.9187,0.0,0.0,0.0,1.9985,0.0,2.3727,2.4248,2.5305,2.6642,2.7011,2.7556,2.8127,2.8196,2.8198,2.8162,2.8148,2.8537,2.9045,2.9045,2.9551,3.0058,2.9279,2.9045,2.8893,2.8203,2.8578,2.9238,2.9238,2.9934,3.0473,2.9717,2.9693,2.9705,2.9064,2.9005,2.9089,2.9153,2.9112,2.8868,2.8254,0.0,0.0,0.0,0.0,0.0,0.0,0.0,2.4656,2.4557,2.5184,2.578,2.6184,2.5876,2.5538,2.5255,2.565,2.6256,2.7062,2.7699,2.8685,3.0103,3.0822,3.1539,3.2234,3.2952,3.3309,3.3309,3.3309,3.3309,3.3309,3.3309,3.3309,3.3309,3.3309,3.3309,3.3309,3.3309,3.3309,3.3309,3.3309,3.3309,3.3309,3.3309,3.3309,3.3309,2.0045,2.0086,2.0418,2.1389,2.1406,2.1525,2.2234,2.3804,2.5076,2.5586,2.6985,2.7873,2.7702,2.8222,2.8415,2.8032,2.7968,0.0,0.0,0.0,0.0,2.4726,2.4677,2.4252,2.3382,2.2892,2.2265,2.1503,2.0918,2.0085,1.9045,0.0,0.0,0.0,0.0,2.1361,2.3435,2.3987,2.5194,2.6754,2.6744,2.7446,2.8472,2.8493,2.8694,2.8978,2.8771,2.9072,2.9594,2.9594,2.9735,2.987,2.9664,2.9594,2.9562,2.9372,2.9475,2.9653,2.9653,2.9907,3.0129,2.9917,2.9614,2.9362,2.9294,2.8913,2.8607,2.8738,2.8665,2.8563,2.8549,2.8032,0.0,0.0,0.0,0.0,0.0,0.0,2.4632,2.5044,2.4748,2.4696,2.5139,2.4907,2.4643,2.4417,2.4433,2.5219,2.6999,2.7257,2.7978,2.9341,3.0557,3.129,3.1485,3.2686,3.3309,3.3309,3.3309,3.3309,3.3309,3.3309,3.3309,3.3309,3.3309,3.3309,3.3309,3.3309,3.3309,3.3309,3.3309,3.3309,3.3309,3.3309,3.3309,3.3309,2.0783,2.1332,2.2197,2.3443,2.3508,2.3418,2.3507,2.4751,2.5787,2.6073,2.7593,2.8543,2.8272,2.8812,2.8945,2.8365,2.8323,0.0,2.7232,0.0,0.0,2.603,2.5998,2.5526,2.4521,2.4154,0.0,2.2265,0.0,0.0,1.934,0.0,0.0,0.0,0.0,2.1335,2.3742,2.4477,2.5639,2.6976,2.6966,2.7746,0.0,2.8971,2.9122,2.927,2.9127,2.9262,2.9488,2.9488,2.9488,2.9488,2.9488,2.9488,2.9488,2.9488,2.9549,2.9658,2.9968,3.0133,3.0298,3.0626,3.0275,2.9891,3.0031,2.9556,2.9137,2.9276,2.9194,2.9052,2.8944,2.8263,0.0,0.0,0.0,0.0,0.0,0.0,2.5033,2.5005,2.4845,2.458,2.4142,2.3989,2.3964,2.4083,2.3986,2.4703,2.6525,2.692,2.7583,2.8636,3.0032,3.0901,3.1211,3.2304,3.3015,3.3309,3.3309,3.3309,3.3309,3.3309,3.3309,3.3309,3.3309,3.3309,3.3309,3.3309,3.3309,3.3295,3.3236,3.3209,3.3196,3.3045,3.3118,3.3295,2.1822,2.2839,2.4017,2.4977,2.5513,2.565,2.5235,2.6095,2.6778,2.6661,2.8336,2.9436,2.9109,2.9716,2.9745,2.878,2.8699,2.8351,2.7556,2.7513,2.7471,2.738,2.7375,2.6798,2.5535,2.5564,2.4636,0.0,0.0,0.0,0.0,0.0,0.0,0.0,0.0,0.0,0.0,2.5318,2.6347,2.719,2.7413,2.8204,2.9288,2.9395,2.9378,2.9276,2.9276,2.9202,2.9093,2.9093,2.9093,2.9093,2.9093,2.9161,2.924,2.924,2.9391,2.9689,3.0325,3.0555,3.0743,3.1392,3.1164,3.0801,3.0823,3.0441,3.0071,3.0092,3.0011,2.9794,2.9353,2.8567,0.0,0.0,0.0,0.0,2.5084,2.5485,2.5569,2.4798,2.5142,0.0,2.3461,2.3281,2.341,2.3778,2.3796,2.4371,2.5787,2.6651,2.7415,2.8084,2.9471,3.0518,3.1195,3.1931,3.2633,3.3309,3.3309,3.3309,3.3309,3.3309,3.3309,3.3309,3.3309,3.3309,3.3309,3.3309,3.3295,3.3262,3.3123,3.3058,3.2967,3.2665,3.2794,3.3107,2.4077,2.4194,0.0,0.0,2.6366,2.6596,2.7536,2.7485,2.7516,2.7912,2.8737,2.9184,2.8963,2.9459,2.9622,2.9215,2.9171,2.8851,2.8112,2.8168,2.7924,2.7254,2.7238,2.6872,2.6086,2.6069,2.5118,0.0,0.0,0.0,0.0,0.0,0.0,0.0,0.0,0.0,2.3583,2.5524,2.6654,2.7173,2.776,2.8439,2.9139,2.915,2.9166,2.9149,2.9149,2.9116,2.9093,2.9093,2.9093,2.9093,2.9093,2.9521,3.0018,3.0018,3.0413,3.0894,3.102,3.107,3.1104,3.1241,3.1266,3.1142,3.0618,3.0451,3.0255,2.9737,2.9608,2.9588,2.9609,2.8632,2.7554,2.6669,2.6106,2.5703,2.5501,2.5575,2.5547,2.5297,2.4876,2.4427,2.3993,2.3399,2.2842,2.2315,2.2772,2.3684,2.5096,2.6393,2.7415,2.8084,2.9471,3.0518,3.1195,3.1931,3.2633,3.3309,3.3309,3.3309,3.3309,3.3309,3.3309,3.3309,3.3309,3.3309,3.3309,3.3309,3.3236,3.3116,3.2985,3.2773,3.2494,3.2322,3.2217,3.2181,2.551,0.0,0.0,0.0,2.7728,2.7973,2.8531,2.8621,2.8592,2.8473,2.904,2.9372,2.9134,2.935,2.9402,2.9213,2.9196,2.9048,2.8688,2.8729,2.8587,2.8198,2.8198,2.7866,2.7195,2.6841,2.5691,2.3701,2.3026,2.1661,1.9709,0.0,0.0,1.9918,0.0,2.2467,2.4331,2.5739,2.684,2.7657,2.7973,2.8499,2.9093,2.9093,2.9093,2.9146,2.9536,2.9674,2.9605,2.9225,2.9357,2.9674,2.9674,3.0148,3.0723,3.0723,3.0948,3.1274,3.1672,3.1773,3.1845,3.2196,3.2079,3.167,3.0977,3.0565,3.013,2.9435,2.9287,2.9221,2.8978,2.8474,2.7749,2.663,2.6464,2.6218,2.5445,2.5617,2.5654,2.5238,2.4909,2.4516,2.4046,2.3364,2.2796,2.2451,2.2724,2.3357,2.437,2.5756,2.6857,2.7557,2.858,2.9775,3.1195,3.1555,3.2256,3.3309,3.3309,3.3309,3.3309,3.3309,3.3309,3.3309,3.3309,3.3309,3.3295,3.3223,3.3116,3.2971,3.2657,3.2337,3.2037,3.2072,3.1967,3.1856,2.6636,2.7072,0.0,2.8367,2.8782,2.9007,2.9021,2.9484,2.9593,2.8881,2.9299,2.9574,2.9328,2.9305,2.9248,2.9104,2.9093,2.9093,2.9093,2.9093,2.9093,2.9093,2.9093,2.8788,2.8116,2.7589,2.6319,2.43,2.302,2.1658,2.023,1.9598,0.0,2.0675,2.2775,2.4239,2.5179,2.6195,2.72,2.8137,2.8422,2.8869,2.9357,2.9493,2.9556,2.9619,3.0196,3.0413,3.0312,2.9736,2.9937,3.0413,3.0413,3.0875,3.1438,3.1438,3.1526,3.177,3.2342,3.2513,3.2633,3.3173,3.2895,3.2317,3.1602,3.0897,3.0202,2.9483,2.9209,2.8942,2.8479,2.8351,2.7966,2.686,2.6957,2.674,2.547,2.5696,2.5745,2.5074,2.4995,2.4712,2.3972,2.3295,2.2898,2.2898,2.2898,2.3131,2.3661,2.5166,2.6335,2.7083,2.7747,2.9106,3.1179,3.1211,3.1912,3.3309,3.3309,3.3309,3.3309,3.3309,3.3309,3.3309,3.3309,3.3273,3.3249,3.3103,3.2944,3.2698,3.2226,3.1906,3.1712,3.1809,3.1806,3.1815,2.7727,2.77,2.7913,2.8703,2.873,2.8828,2.9362,2.9951,3.0116,2.9501,2.9486,2.9457,2.9322,2.9305,2.9248,2.9104,2.9093,2.9093,2.9093,2.9093,2.9093,2.9093,2.9093,2.8788,2.8116,2.8037,2.6994,2.4926,2.4106,2.2699,2.0732,2.0665,2.1058,2.1929,2.4129,2.5109,2.5238,2.7185,2.8056,2.8211,2.9487,3.004,3.016,3.0774,3.0999,3.1015,3.1084,3.1116,3.11,3.1037,3.1053,3.1116,3.1116,3.1608,3.2203,3.2203,3.2626,3.3112,3.3182,3.3214,3.323,3.3286,3.3245,3.3031,3.2348,3.1624,3.0917,3.0239,2.9574,2.9082,2.9031,2.8522,2.8086,2.7954,2.7468,2.6825,2.6035,2.5961,2.5745,2.5074,2.4995,2.4712,2.3972,2.3295,2.2898,2.2898,2.2898,2.293,2.2988,2.4902,2.6335,2.7083,2.7747,2.9106,3.1179,3.1211,3.1912,3.3309,3.3309,3.3309,3.3309,3.3309,3.3309,3.3309,3.3309,3.3236,3.3119,3.2971,3.2657,3.2212,3.1752,3.1619,3.1663,3.1441,3.1572,3.1952,2.8289,2.8887,2.9475,2.9799,3.0098,3.0366,3.0602,3.0779,3.078,3.0553,3.0517,3.0499,3.0442,3.0436,3.0412,3.0373,3.0367,3.0367,3.0367,3.0367,3.0367,3.0367,3.0367,3.0048,2.9376,2.8932,2.7899,2.6256,2.5118,2.3908,2.2656,2.2665,2.3284,2.4434,2.5323,2.6154,2.6973,2.8218,2.8976,2.9433,3.0401,3.0796,3.0828,3.11,3.1211,3.1258,3.1703,3.1852,3.1915,3.2323,3.2187,3.1852,3.1852,3.2342,3.2895,3.2895,3.3094,3.3309,3.3309,3.3309,3.3309,3.3309,3.3309,3.3119,3.2449,3.1735,3.1005,3.034,2.9605,2.9093,2.9093,2.8883,2.8563,2.8163,2.8215,2.7762,2.6225,2.6383,2.6251,2.5138,2.4995,2.4875,2.4585,2.3928,2.3492,2.3492,2.3131,2.3083,2.348,2.5087,2.6335,2.7083,2.7747,2.9106,3.1179,3.1211,3.1912,3.3309,3.3309,3.3309,3.3309,3.3309,3.3309,3.3295,3.3123,3.2953,3.2767,3.2356,3.1972,3.1655,3.1538,3.1402,3.1342,3.1876,3.2127,3.2272,2.9304,3.0083,3.0716,3.0716,3.1064,3.1343,3.1343,3.1437,3.1517,3.1517,3.1691,3.1653,3.1242,3.1211,3.1211,3.1211,3.1211,3.1211,3.1211,3.1211,3.1211,3.1211,3.1211,3.098,3.0508,2.9979,2.9051,2.7688,2.6498,2.5422,2.4519,2.4512,2.5263,2.6624,2.6819,2.7583,2.8764,2.9426,3.001,3.055,3.1255,3.1517,3.1539,3.1738,3.1811,3.1896,3.2405,3.2585,3.2664,3.3141,3.2983,3.2585,3.2585,3.292,3.3309,3.3309,3.3309,3.3309,3.3309,3.3309,3.3309,3.3309,3.3309,3.3182,3.2696,3.2035,3.1277,3.0388,2.9605,2.9093,2.9093,2.9093,2.8956,2.8468,2.8788,2.8451,2.6588,2.6762,2.6583,2.5164,2.4995,2.4911,2.4696,2.4207,2.3904,2.3904,2.346,2.3501,2.4191,2.5356,2.643,2.7367,2.8041,2.9305,3.1173,3.1422,3.2124,3.3309,3.3309,3.3309,3.3309,3.3309,3.3262,3.317,3.2922,3.2633,3.2313,3.1984,3.1647,3.1382,3.1548,3.1564,3.1555,3.2282,3.2591,3.2727,3.1043,3.1185,3.1185,3.1185,3.1195,3.1211,3.1211,3.182,3.2282,3.2282,3.2863,3.2733,3.1346,3.1211,3.1211,3.1211,3.1211,3.1211,3.1211,3.1211,3.1211,3.1211,3.1211,3.1211,3.1195,3.1179,3.0494,2.9082,2.8405,2.7356,2.5974,2.5978,2.6728,2.8093,2.8774,2.9473,3.0214,3.0885,3.1173,3.1242,3.1985,3.2282,3.2361,3.3015,3.327,3.3277,3.3286,3.3293,3.3293,3.3309,3.3286,3.3293,3.3293,3.3293,3.3309,3.3309,3.3309,3.3309,3.3309,3.3309,3.3309,3.3309,3.3309,3.3309,3.3293,3.2769,3.188,3.0483,2.9605,2.9093,2.9093,2.9093,2.9093,2.9093,2.9093,2.8625,2.7283,2.7088,2.6583,2.5164,2.4995,2.4712,2.3972,2.3909,2.3904,2.3904,2.3893,2.4202,2.4948,2.5634,2.6641,2.8037,2.8747,2.9777,3.1195,3.1915,3.2633,3.3309,3.3309,3.3309,3.3309,3.3309,3.315,3.289,3.2685,3.227,3.1739,3.2065,3.1925,3.1523,3.1795,3.2179,3.2571,3.2458,3.2783,3.3294,3.1163,3.1602,3.1947,3.1947,3.2705,3.3309,3.3309,3.3932,3.4413,3.4413,3.4595,3.4564,3.4115,3.3214,3.2623,3.2623,3.2623,3.2623,3.2623,3.2623,3.2623,3.2623,3.2623,3.2424,3.1962,3.1947,3.1482,3.0525,2.9864,2.9295,2.886,2.8857,2.9342,3.0221,3.0442,3.0664,3.0932,3.1646,3.1947,3.2016,3.2699,3.2983,3.3006,3.323,3.3309,3.3309,3.3309,3.3309,3.3295,3.3189,3.3163,3.3237,3.3593,3.3514,3.3309,3.3309,3.3309,3.3309,3.3309,3.3309,3.3309,3.3309,3.3309,3.3309,3.3309,3.2784,3.2038,3.1081,3.0338,2.9854,2.9854,2.9442,2.9093,2.9093,2.9093,2.8625,2.7283,2.7093,2.6583,2.5164,2.4927,2.4768,2.4538,2.4437,2.4596,2.5086,2.5138,2.5283,2.5656,2.6356,2.7329,2.8603,2.9338,3.0317,3.1603,3.1835,3.2327,3.3032,3.3116,3.3209,3.3309,3.3209,3.2987,3.2665,3.2194,3.1936,3.1804,3.1509,3.1476,3.1677,3.2078,3.2334,3.2509,3.2885,3.314,3.3308,3.2266,3.2737,3.3139,3.343,3.3923,3.4295,3.4295,3.4469,3.4604,3.4604,3.4604,3.4604,3.4604,3.383,3.3403,3.3656,3.3451,3.3309,3.3309,3.3309,3.3309,3.3309,3.3309,3.311,3.2674,3.268,3.2329,3.1605,3.0913,3.0591,3.0591,3.0581,3.0945,3.1605,3.1615,3.1744,3.2022,3.2478,3.268,3.2712,3.3135,3.3309,3.3295,3.3249,3.3223,3.3223,3.3163,3.3094,3.3025,3.2931,3.2886,3.2903,3.3236,3.3161,3.3101,3.3774,3.3972,3.3923,3.3738,3.3679,3.3625,3.3356,3.3309,3.3309,3.3309,3.2784,3.2165,3.1703,3.1049,3.0508,3.0245,2.9817,2.942,2.9146,2.9093,2.8625,2.7283,2.7061,2.6498,2.5085,2.4817,2.4831,2.5112,2.5066,2.5311,2.6022,2.6075,2.6243,2.6618,2.7084,2.792,2.92,2.9934,3.0779,3.1785,3.2073,3.2431,3.289,3.2985,3.3036,3.3031,3.2906,3.2716,3.2506,3.1991,3.1826,3.1875,3.1683,3.1734,3.2007,3.2531,3.2741,3.2783,3.3168,3.3308,3.3308,3.4042,3.4264,3.4453,3.5133,3.4729,3.4295,3.4295,3.3814,3.3451,3.3451,3.3451,3.3451,3.3451,3.3403,3.3625,3.4254,3.3695,3.3309,3.3309,3.3309,3.3309,3.3309,3.3309,3.3309,3.3309,3.3309,3.2991,3.2366,3.1682,3.1353,3.1353,3.1347,3.1713,3.2372,3.2362,3.2712,3.3309,3.3309,3.3309,3.3309,3.3295,3.3282,3.3262,3.3116,3.3056,3.3036,3.291,3.2744,3.2566,3.2568,3.2465,3.2356,3.2411,3.2404,3.2747,3.4421,3.4962,3.4902,3.4416,3.4306,3.4203,3.3523,3.3324,3.3309,3.3309,3.2823,3.237,3.237,3.1782,3.1075,3.0382,3.023,2.9965,2.9225,2.9087,2.8623,2.7346,2.7033,2.6455,2.5085,2.4811,2.4994,2.569,2.5747,2.6032,2.6696,2.6794,2.7116,2.7787,2.7865,2.8488,2.9803,3.0507,3.1171,3.1844,3.2507,3.2843,3.2843,3.2843,3.275,3.2574,3.2417,3.2364,3.2348,3.2002,3.189,3.1982,3.2412,3.254,3.2516,3.3083,3.3308,3.3308,3.3308,3.3308,3.3308,3.4239,3.3884,3.3593,3.3767,3.4074,3.4295,3.4295,3.4643,3.4896,3.4896,3.4896,3.4896,3.4896,3.4406,3.4121,3.4286,3.3695,3.3309,3.3309,3.3309,3.3309,3.3309,3.3309,3.3309,3.3309,3.3309,3.3213,3.3065,3.2896,3.2808,3.2808,3.2793,3.2897,3.3056,3.3061,3.3151,3.3309,3.3309,3.3309,3.3295,3.3189,3.3099,3.2962,3.2796,3.2651,3.2564,3.2537,3.2427,3.2288,3.2185,3.2023,3.1936,3.2348,3.2477,3.2556,3.2928,3.3513,3.4035,3.3994,3.4434,3.4768,3.4205,3.3679,3.3309,3.3309,3.3182,3.3062,3.3062,3.2516,3.182,3.1097,3.055,2.9965,2.9225,2.9001,2.8656,2.7828,2.7607,2.72,2.6351,2.6123,2.612,2.6291,2.6256,2.651,2.7178,2.7712,2.8283,2.8962,2.9481,2.9963,3.0402,3.1069,3.1683,3.2254,3.2329,3.2373,3.2373,3.2373,3.2337,3.2273,3.2006,3.1918,3.1994,3.1558,3.1776,3.2432,3.2447,3.2705,3.3097,3.3238,3.3308,3.3308,3.3308,3.3308,3.3308,3.4295,3.4011,3.3862,3.42,3.4279,3.4295,3.4295,3.439,3.4437,3.4437,3.4437,3.4437,3.4437,3.4074,3.383,3.383,3.3514,3.3309,3.3309,3.3309,3.3309,3.3309,3.3309,3.3309,3.3309,3.3309,3.3309,3.3309,3.3309,3.3309,3.3309,3.3309,3.3309,3.3309,3.3309,3.3309,3.3302,3.3236,3.3203,3.3185,3.296,3.2782,3.2648,3.2405,3.2217,3.2071,3.2006,3.1901,3.1775,3.1704,3.1568,3.1476,3.1767,3.1864,3.1856,3.1823,3.2771,3.3799,3.3626,3.4228,3.4865,3.4637,3.4061,3.3581,3.3655,3.3423,3.3229,3.3295,3.3015,3.2531,3.183,3.1134,3.0415,2.9633,2.9175,2.8634,2.7913,2.7722,2.7399,2.6682,2.6515,2.6572,2.6881,2.7159,2.758,2.8267,2.8938,2.947,2.9839,3.0492,3.0891,3.0955,3.1325,3.1768,3.2301,3.2086,3.1945,3.1873,3.1824,3.1746,3.1653,3.1626,3.1712,3.1899,3.186,3.2257,3.2918,3.2837,3.2999,3.3308,3.3308,3.3308,3.3308,3.3308,3.3308,3.3308,3.4295,3.4223,3.4343,3.4975,3.4564,3.416,3.416,3.3672,3.3309,3.3309,3.3309,3.3309,3.3309,3.3309,3.3309,3.3309,3.3309,3.3309,3.3309,3.3309,3.3309,3.3309,3.3309,3.3309,3.3309,3.3309,3.3309,3.3309,3.3309,3.3309,3.3309,3.3309,3.3309,3.3309,3.3282,3.3256,3.3236,3.3087,3.3009,3.2966,3.2638,3.2424,3.2266,3.2002,3.1775,3.1611,3.1578,3.1484,3.1397,3.1479,3.142,3.1315,3.1315,3.1315,3.1315,3.1315,3.2422,3.3577,3.3198,3.3778,3.454,3.477,3.4316,3.3855,3.398,3.3575,3.3182,3.3189,3.3214,3.3022,3.2354,3.1625,3.0881,3.0101,2.9343,2.8611,2.79,2.774,2.7489,2.6947,2.6843,2.7086,2.7757,2.8362,2.8938,2.9501,3.0158,3.0514,3.0514,3.1135,3.1482,3.1482,3.1509,3.1706,3.2065,3.1859,3.1659,3.1506,3.1471,3.1375,3.1189,3.144,3.1714,3.2037,3.2409,3.2856,3.3308,3.3308,3.3308,3.3308,3.3308,3.3308,3.3308,3.3308,3.3308,3.3308,3.4295,3.383,3.3482,3.3609,3.353,3.3467,3.3467,3.3372,3.3309,3.3309,3.3309,3.3309,3.3309,3.3309,3.3309,3.3309,3.3309,3.3309,3.3309,3.3309,3.3309,3.3309,3.3309,3.3309,3.3309,3.3309,3.3309,3.3309,3.3309,3.3309,3.3309,3.3309,3.3309,3.3302,3.3181,3.3067,3.2958,3.2761,3.2603,3.248,3.2215,3.1977,3.1789,3.1509,3.1314,3.1257,3.1752,3.1846,3.1798,3.2309,3.2382,3.2285,3.2285,3.2285,3.2285,3.2285,3.2219,3.2203,3.2527,3.3006,3.3596,3.4296,3.3971,3.3484,3.3506,3.3513,3.3365,3.2821,3.2845,3.2739,3.2013,3.1317,3.0639,2.993,2.9155,2.855,2.8314,2.8179,2.8226,2.8563,2.8705,2.9034,2.9692,2.9966,3.0125,3.0239,3.0755,3.1085,3.1085,3.1604,3.1907,3.1907,3.201,3.1874,3.1445,3.1783,3.1793,3.1519,3.2003,3.2155,3.2017,3.1891,3.2082,3.2486,3.2444,3.2767,3.3308,3.3308,3.3308,3.3308,3.3308,3.3308,3.3308,3.3308,3.3308,3.3308,3.3837,3.3514,3.3309,3.3309,3.3309,3.3309,3.3309,3.3309,3.3309,3.3309,3.3309,3.3309,3.3309,3.3309,3.3309,3.3309,3.3309,3.3444,3.3814,3.3498,3.3467,3.3814,3.3839,3.402,3.4422,3.4431,3.4431,3.4431,3.4431,3.4431,3.4422,3.402,3.3988,3.4246,3.3707,3.3559,3.3696,3.3424,3.3203,3.3023,3.275,3.2556,3.237,3.2144,3.1975,3.1887,3.2164,3.2227,3.2216,3.2506,3.2552,3.2497,3.2497,3.2497,3.2497,3.2497,3.2166,3.1879,3.228,3.2556,3.2906,3.3705,3.3409,3.2922,3.3002,3.2888,3.2672,3.2432,3.2454,3.2419,3.2088,3.1433,3.0845,3.0455,2.9565,2.8854,2.8643,2.8527,2.8525,2.8714,2.9165,2.9583,2.9908,3.0405,3.0721,3.0721,3.1186,3.1461,3.1461,3.1574,3.1625,3.1625,3.1675,3.1652,3.1522,3.1595,3.1652,3.1723,3.1916,3.1992,3.1948,3.2102,3.2289,3.2509,3.2775,3.3041,3.3308,3.3308,3.3308,3.3308,3.3308,3.3308,3.3308,3.3308,3.3308,3.3308,3.3403,3.3309,3.3309,3.3309,3.3309,3.3309,3.3309,3.3309,3.3309,3.3309,3.3435,3.351,3.3492,3.3668,3.3769,3.3713,3.3756,3.4011,3.4516,3.4067,3.4024,3.4523,3.4562,3.4829,3.5384,3.5403,3.5401,3.5401,3.5401,3.5401,3.5393,3.4775,3.4694,3.5012,3.4241,3.4015,3.4221,3.3872,3.3621,3.3443,3.3189,3.3017,3.2908,3.2731,3.2583,3.2526,3.2679,3.2737,3.2751,3.2888,3.2938,3.2938,3.2938,3.2938,3.2938,3.2938,3.2586,3.219,3.2188,3.2183,3.2339,3.2989,3.2766,3.2415,3.2504,3.2283,3.2035,3.1947,3.1959,3.198,3.1938,3.1334,3.0816,3.0756,2.9861,2.912,2.8878,2.88,2.8774,2.8754,2.9338,2.9806,2.9983,3.0643,3.1084,3.1119,3.1382,3.1546,3.1546,3.1285,3.1117,3.1073,3.1109,3.1278,3.1536,3.1436,3.1598,3.2022,3.205,3.2071,3.2077,3.2449,3.2615,3.2643,3.3097,3.3308,3.3308,3.3308,3.3308,3.3308,3.3308,3.3308,3.3308,3.3308,3.3308,3.3308,3.3302,3.3309,3.3309,3.3309,3.3309,3.3309,3.3309,3.3309,3.3309,3.3309,3.383,3.4178,3.4054,3.4751,3.5172,3.4979,3.5137,3.5266,3.5322,3.5275,3.5266,3.5315,3.5328,3.5338,3.5403,3.5403,3.5401,3.5401,3.5401,3.5401,3.5386,3.5152,3.5004,3.4886,3.4392,3.3999,3.3728,3.3391,3.3165,3.3026,3.2816,3.2731,3.2714,3.2568,3.2513,3.2584,3.3196,3.3431,3.351,3.4072,3.426,3.426,3.426,3.426,3.426,3.426,3.3835,3.3145,3.2116,3.184,3.1879,3.2068,3.2076,3.204,3.2047,3.2176,3.205,3.125,3.1241,3.1307,3.1124,3.0541,3.0127,3.0225,2.9667,2.9145,2.901,2.8983,2.9106,2.9479,2.9674,3.0096,3.0829,3.113,3.1334,3.1456,3.1211,3.1051,3.1051,3.0799,3.0568,3.0372,3.0553,3.0781,3.1045,3.146,3.1895,3.2368,3.2913,3.3185,3.3185,3.3224,3.3238,3.3238,3.328,3.3308,3.3308,3.3308,3.3308,3.3308,3.3308,3.3308,3.3308,3.3308,3.3308,3.3308,3.3309,3.3309,3.3309,3.3309,3.3309,3.3309,3.3309,3.3309,3.3411,3.3752,3.3917,3.4105,3.4373,3.464,3.4772,3.4786,3.4866,3.5132,3.567,3.5709,3.5806,3.6008,3.6336,3.6512,3.6512,3.6436,3.639,3.639,3.639,3.639,3.6374,3.5759,3.5619,3.585,3.4912,3.4548,3.46,3.4268,3.4025,3.3861,3.3783,3.3759,3.3754,3.3694,3.3672,3.3701,3.3978,3.4051,3.4095,3.4318,3.4397,3.4397,3.4397,3.4397,3.4397,3.4397,3.4231,3.3879,3.3074,3.2543,3.215,3.1775,3.1688,3.1594,3.1222,3.1195,3.1152,3.0813,3.0717,3.0665,3.0583,3.035,3.0198,3.025,2.9791,2.9404,2.9268,2.9211,2.9211,2.9281,2.9788,3.024,3.0532,3.0754,3.0888,3.0947,3.071,3.0568,3.0568,3.0274,3.0208,3.0419,3.0496,3.0826,3.1427,3.1907,3.2407,3.2957,3.3196,3.3308,3.3308,3.3308,3.3308,3.3308,3.3308,3.3308,3.3308,3.3308,3.3308,3.3308,3.3308,3.3308,3.3308,3.3308,3.3308,3.3308,3.3309,3.3309,3.3309,3.3309,3.3309,3.3295,3.3249,3.3243,3.3415,3.3871,3.3975,3.4163,3.4638,3.4803,3.4918,3.5023,3.5076,3.5373,3.604,3.6086,3.6213,3.6475,3.6839,3.7022,3.6976,3.6892,3.6839,3.6839,3.6839,3.6839,3.6823,3.616,3.6007,3.6219,3.5274,3.4927,3.503,3.4944,3.4838,3.4727,3.4924,3.5008,3.499,3.4992,3.4998,3.4999,3.5003,3.5,3.5,3.5,3.5,3.5,3.5,3.4812,3.4619,3.4616,3.4472,3.4228,3.3877,3.34,3.2807,3.2017,3.1815,3.1648,3.1025,3.085,3.0753,3.0505,3.0288,3.0129,3.009,3.0083,3.0084,3.0137,2.9869,2.9627,2.953,2.9485,2.9403,2.9275,2.9735,3.0106,3.0145,3.0266,3.0379,3.0439,3.0258,3.0122,3.0083,3.0038,3.0169,3.0486,3.0893,3.1358,3.1913,3.2247,3.2699,3.3308,3.3308,3.3308,3.3308,3.3308,3.3308,3.3308,3.3308,3.3308,3.3308,3.3308,3.3308,3.3308,3.3308,3.3308,3.3308,3.3308,3.3308,3.3308,3.3309,3.3309,3.3309,3.3309,3.3309,3.3256,3.3116,3.3105,3.3226,3.3557,3.4056,3.452,3.4865,3.5486,3.592,3.5989,3.6116,3.6281,3.6484,3.6492,3.6554,3.6693,3.6701,3.6638,3.6492,3.6492,3.6492,3.6492,3.6492,3.6492,3.6492,3.6297,3.6029,3.568,3.5352,3.5037,3.4748,3.5214,3.5415,3.5453,3.6055,3.6301,3.6301,3.6293,3.6305,3.6295,3.6305,3.6292,3.6292,3.6292,3.6292,3.6292,3.6292,3.5742,3.5096,3.5089,3.4635,3.4151,3.4346,3.4247,3.3842,3.2767,3.2503,3.2329,3.1662,3.1407,3.1085,3.0284,2.9951,2.9761,2.9626,2.9595,2.9635,2.977,2.9801,2.9801,2.9801,2.9801,2.9745,2.9618,2.9595,2.9643,2.9785,2.9801,2.9876,3.008,2.9921,2.9752,2.9617,3.0177,3.0506,3.0506,3.1735,3.2404,3.2404,3.2404,3.2713,3.3308,3.3308,3.3308,3.3308,3.3308,3.3308,3.3308,3.3308,3.3308,3.3308,3.3308,3.3308,3.3308,3.3308,3.3308,3.3308,3.3308,3.3308,3.3308,3.3309,3.3309,3.3276,3.3176,3.3085,3.2962,3.2774,3.2665,3.2897,3.372,3.387,3.4227,3.5016,3.5154,3.5257,3.5419,3.5482,3.5558,3.5713,3.5735,3.5891,3.6265,3.6232,3.6124,3.5942,3.5808,3.5729,3.5729,3.5729,3.5729,3.5736,3.6008,3.6085,3.5992,3.611,3.6137,3.6033,3.6032,3.6026,3.6048,3.6232,3.6294,3.6299,3.6305,3.63,3.6297,3.6306,3.6306,3.6292,3.6292,3.6292,3.6274,3.6131,3.5836,3.5522,3.5527,3.5078,3.4609,3.4662,3.4338,3.3802,3.3153,3.2879,3.2614,3.1937,3.1681,3.1502,3.1269,3.0728,3.0274,3.0241,2.9882,2.961,2.9643,2.9651,2.9651,2.9651,2.9651,2.9635,2.9602,2.9595,2.9618,2.9665,2.9651,2.9674,2.9735,3.0083,3.0267,3.0233,3.0845,3.1401,3.1828,3.2193,3.26,3.3027,3.3027,3.3125,3.3308,3.3308,3.3308,3.3308,3.3308,3.3308,3.3308,3.3308,3.3308,3.3308,3.3308,3.3308,3.3308,3.3308,3.3308,3.3308,3.3308,3.3308,3.3308,3.3136,3.3081,3.3005,3.2926,3.2744,3.2645,3.2708,3.26,3.2874,3.3886,3.3874,3.4088,3.4906,3.4825,3.4777,3.4974,3.5049,3.5225,3.5588,3.5598,3.5808,3.6276,3.6257,3.6211,3.6133,3.6018,3.595,3.5951,3.5951,3.5951,3.5966,3.624,3.6347,3.6302,3.6505,3.6552,3.6493,3.6632,3.6693,3.6723,3.6956,3.6919,3.6703,3.6703,3.6535,3.6306,3.6297,3.6295,3.6292,3.6292,3.6412,3.6539,3.6334,3.6138,3.5977,3.5977,3.5536,3.5048,3.5134,3.4668,3.4072,3.3785,3.3499,3.3131,3.2455,3.2189,3.2018,3.1755,3.1277,3.0901,3.0901,3.0381,2.9952,2.9952,2.9763,2.9595,2.9595,2.9595,2.9595,2.9595,2.9595,2.9595,2.9595,2.9595,2.9707,2.9938,3.0536,3.0901,3.0901,3.1513,3.2019,3.239,3.2629,3.2929,3.3308,3.3308,3.3308,3.3308,3.3308,3.3308,3.3308,3.3308,3.3308,3.3308,3.3308,3.3308,3.3308,3.3308,3.3308,3.3308,3.3308,3.3308,3.3308,3.3308,3.3308,3.3308,3.2856,3.2694,3.2583,3.2624,3.2414,3.2399,3.2857,3.2809,3.3066,3.403,3.4001,3.4074,3.4616,3.4507,3.4465,3.4664,3.4836,3.5207,3.5827,3.5909,3.6155,3.6639,3.6657,3.6734,3.6921,3.6814,3.6768,3.6758,3.6731,3.674,3.6728,3.6711,3.6652,3.6549,3.6555,3.6456,3.6336,3.6941,3.7206,3.7252,3.7809,3.7702,3.7213,3.7215,3.6823,3.6302,3.6297,3.63,3.6292,3.6274,3.6545,3.6852,3.6643,3.6447,3.6302,3.6368,3.5906,3.5424,3.5679,3.5165,3.4557,3.4557,3.4232,3.3759,3.308,3.2848,3.2582,3.1971,3.1691,3.1578,3.1578,3.1041,3.057,3.0506,3.0036,2.9665,2.9609,2.9595,2.9595,2.9595,2.9595,2.9623,2.9679,2.9735,3.0002,3.0556,3.1196,3.1578,3.1578,3.2145,3.2474,3.2474,3.3013,3.3308,3.3308,3.3308,3.3308,3.3308,3.3308,3.3308,3.3308,3.3308,3.3308,3.3308,3.3308,3.3308,3.3308,3.3308,3.3308,3.3308,3.3308,3.3308,3.3308,3.3308,3.3308,3.3308,3.2516,3.2399,3.24,3.277,3.2617,3.2594,3.3064,3.3015,3.3156,3.3738,3.3776,3.3927,3.4409,3.4431,3.4422,3.4456,3.4966,3.5348,3.5496,3.5952,3.6485,3.7119,3.715,3.7376,3.7886,3.6924,3.6412,3.6407,3.6255,3.6178,3.6161,3.6009,3.601,3.6133,3.613,3.6187,3.6311,3.6463,3.652,3.6534,3.6654,3.6632,3.6522,3.6517,3.6422,3.6303,3.6304,3.6292,3.6274,3.6122,3.6028,3.5952,3.5816,3.5623,3.555,3.6033,3.5738,3.5366,3.5874,3.5531,3.5047,3.5047,3.4591,3.3963,3.3352,3.3185,3.313,3.299,3.2556,3.2202,3.2202,3.1696,3.112,3.0598,3.0393,3.0134,2.9665,2.9595,2.9595,2.9595,2.9595,2.9791,3.0261,3.0783,3.1142,3.1274,3.185,3.2202,3.2202,3.2783,3.3097,3.3097,3.3238,3.3308,3.3308,3.3308,3.3308,3.3308,3.3308,3.3308,3.3308,3.3308,3.3308,3.3308,3.3308,3.3308,3.3308,3.3308,3.3308,3.3308,3.3308,3.3308,3.3308,3.3308,3.3308,3.3308,3.1971,3.2095,3.2275,3.2518,3.2586,3.2794,3.3351,3.3325,3.3423,3.3968,3.4024,3.4137,3.437,3.4397,3.4522,3.4843,3.5462,3.597,3.629,3.6593,3.7066,3.7701,3.736,3.7309,3.7621,3.6602,3.6248,3.6634,3.6213,3.5972,3.5897,3.5806,3.5798,3.59,3.5908,3.5961,3.6057,3.6059,3.6062,3.6062,3.6062,3.5872,3.557,3.5578,3.5414,3.516,3.516,3.516,3.5145,3.5039,3.5057,3.512,3.5044,3.5097,3.5255,3.5583,3.5442,3.5339,3.5949,3.5653,3.5269,3.5555,3.4913,3.4119,3.3805,3.351,3.3308,3.3308,3.3055,3.2831,3.2831,3.2334,3.1814,3.1454,3.116,3.0873,3.0544,3.0502,3.0389,3.0072,3.0311,3.0628,3.0943,3.1547,3.1935,3.1935,3.2488,3.2831,3.2831,3.3125,3.3308,3.3308,3.3308,3.3308,3.3308,3.3308,3.3308,3.3308,3.3308,3.3308,3.3308,3.3308,3.3308,3.3308,3.3308,3.3308,3.3308,3.3308,3.3308,3.3308,3.3308,3.3241,3.3157,3.3157,3.3157,3.3157,3.1572,3.1879,3.2196,3.2418,3.2673,3.3054,3.3721,3.3723,3.3835,3.4333,3.4397,3.4434,3.4551,3.4633,3.4882,3.5418,3.6009,3.6564,3.6999,3.7134,3.7375,3.7775,3.7155,3.6788,3.6785,3.6033,3.6003,3.6794,3.6193,3.5866,3.576,3.5596,3.5535,3.5567,3.5471,3.5437,3.5469,3.5482,3.547,3.547,3.547,3.5202,3.4799,3.4802,3.454,3.4212,3.4212,3.421,3.4202,3.4167,3.4386,3.466,3.4619,3.4811,3.5048,3.517,3.5119,3.5152,3.577,3.5583,3.5325,3.5822,3.5068,3.4231,3.4338,3.3828,3.3308,3.3308,3.3308,3.3308,3.3308,3.2887,3.2516,3.2418,3.1977,3.162,3.1507,3.1493,3.1288,3.0738,3.1252,3.1648,3.1648,3.2202,3.2544,3.2544,3.3013,3.3308,3.3308,3.3308,3.3308,3.3308,3.3308,3.3308,3.3308,3.3308,3.3308,3.3308,3.3308,3.3308,3.3308,3.3308,3.3308,3.3308,3.3308,3.3276,3.325,3.325,3.3215,3.3144,3.3144,3.3024,3.2855,3.2855,3.2873,3.289,3.1833,3.1896,3.2193,3.3299,3.3446,3.3592,3.4207,3.4292,3.4304,3.4391,3.4397,3.4617,3.5195,3.558,3.5753,3.5679,3.6261,3.6436,3.5941,3.6465,3.6575,3.6144,3.6016,3.5964,3.5959,3.5289,3.5268,3.5956,3.5696,3.5559,3.5521,3.476,3.4506,3.4651,3.4126,3.3986,3.4151,3.4153,3.4158,3.4158,3.4158,3.4412,3.4796,3.4798,3.5066,3.5459,3.5459,3.545,3.5424,3.5261,3.5235,3.526,3.5136,3.4744,3.4445,3.5034,3.4782,3.4474,3.5138,3.5255,3.5226,3.5297,3.4759,3.4352,3.4932,3.414,3.3308,3.3308,3.3308,3.3308,3.3308,3.3238,3.3013,3.2474,3.232,3.2103,3.1564,3.1493,3.1465,3.1381,3.1907,3.2286,3.2286,3.2817,3.3182,3.3182,3.3252,3.3308,3.3308,3.3308,3.3308,3.3308,3.3308,3.3308,3.3308,3.3308,3.3308,3.3308,3.3308,3.3308,3.3308,3.3308,3.3308,3.3308,3.3308,3.3206,3.3041,3.3041,3.2837,3.2516,3.2516,3.2399,3.2218,3.2218,3.2336,3.248,3.1675,3.2278,3.2939,3.3493,3.3827,3.4095,3.4362,3.4397,3.4536,3.4901,3.4856,3.5033,3.5672,3.5797,3.5658,3.5239,3.5805,3.6067,3.5772,3.6038,3.609,3.5813,3.5333,3.5071,3.5071,3.4335,3.411,3.4399,3.4422,3.4377,3.4266,3.3876,3.3748,3.3818,3.3544,3.3673,3.407,3.407,3.4282,3.4623,3.4623,3.4788,3.5024,3.5027,3.5197,3.5424,3.5423,3.5422,3.5401,3.5318,3.5291,3.5272,3.5217,3.4997,3.4819,3.5105,3.4726,3.4352,3.502,3.4927,3.4731,3.5105,3.4698,3.4282,3.4567,3.3949,3.3491,3.4206,3.4369,3.4369,3.4369,3.4369,3.4271,3.4004,3.3971,3.3737,3.3106,3.3013,3.2873,3.2544,3.2432,3.253,3.2873,3.314,3.3308,3.3308,3.3308,3.3308,3.3308,3.3308,3.3308,3.3308,3.3308,3.3308,3.3308,3.3192,3.3125,3.3125,3.3024,3.3077,3.3308,3.3174,3.3125,3.3116,3.2887,3.2753,3.265,3.2426,3.2228,3.2055,3.1942,3.1764,3.1584,3.1519,3.1588,3.174]},{"header":{"parameterUnit":"m.s-1","parameterCategory":1,"la1":30.6,"la2":28.766,"lo1":-90.7593,"lo2":-88.6598,"dy":0.0162,"dx":0.0183,"nx":116,"ny":114,"refTime":"2024-06-11T00:00:00:Z","depth":0,"parameterNumber":3,"parameterNumberName":"V-component_of_WINDS"},"data":[0.0,0.0,0.0,0.0,0.0,0.0,0.0,0.0,0.0,0.0,0.0,0.0,0.0,0.0,0.0,0.0,0.0,0.0,0.0,0.0,0.0,0.0,0.0,0.0,0.0,0.0,0.0,0.0,0.0,0.0,0.0,0.0,0.0,0.0,0.0,0.0,0.0,0.0,0.0,0.0,0.0,0.0,0.0,0.0,0.0,0.0,0.0,0.0,0.0,0.0,0.0,0.0,0.0,0.0,0.0,0.0,0.0,0.0,0.0,0.0,0.0,0.0,0.0,0.0,0.0,0.0,0.0,0.0,0.0,0.0,0.0,0.0,0.0,0.0,0.0,0.0,0.0,0.0,0.0,0.0,0.0,0.0,0.0,0.0,0.0,0.0,0.0,0.0,0.0,0.0,0.0,0.0,0.0,0.0,0.0,0.0,0.0,0.0,0.0,0.0,0.0,0.0,0.0,0.0,0.0,0.0,0.0,0.0,0.0,0.0,0.0,0.0,0.0,0.0,0.0,0.0,0.0,0.0,0.0,0.0,0.0,0.0,0.0,0.0,0.0,0.0,0.0,0.0,0.0,0.0,0.0,0.0,0.0,0.0,0.0,0.0,0.0,0.0,0.0,0.0,0.0,0.0,0.0,0.0,0.0,0.0,0.0,0.0,0.0,0.0,0.0,0.0,0.0,0.0,0.0,0.0,0.0,0.0,0.0,0.0,0.0,0.0,0.0,0.0,0.0,0.0,0.0,0.0,0.0,0.0,0.0,0.0,0.0,0.0,0.0,0.0,0.0,0.0,0.0,0.0,0.0,0.0,0.0,0.0,0.0,0.0,0.0,0.0,0.0,0.0,0.0,0.0,0.0,0.0,0.0,0.0,0.0,0.0,0.0,0.0,0.0,0.0,0.0,0.0,0.0,0.0,0.0,0.0,0.0,0.0,0.0,0.0,0.0,0.0,0.0,0.0,0.0,0.0,0.0,0.0,0.0,0.0,0.0,0.0,0.0,0.0,0.0,0.0,0.0,0.0,0.0,0.0,0.0,0.0,0.0,0.0,0.0,0.0,0.0,0.0,0.0,0.0,0.0,0.0,0.0,0.0,0.0,0.0,0.0,0.0,0.0,0.0,0.0,0.0,0.0,0.0,0.0,0.0,0.0,0.0,0.0,0.0,0.0,0.0,0.0,0.0,0.0,0.0,0.0,0.0,0.0,0.0,0.0,0.0,0.0,0.0,0.0,0.0,0.0,0.0,0.0,0.0,0.0,0.0,0.0,0.0,0.0,0.0,0.0,0.0,0.0,0.0,0.0,0.0,0.0,0.0,0.0,0.0,0.0,0.0,0.0,0.0,0.0,0.0,0.0,0.0,0.0,0.0,0.0,0.0,0.0,0.0,0.0,0.0,0.0,0.0,0.0,0.0,0.0,0.0,0.0,0.0,0.0,0.0,0.0,0.0,0.0,0.0,0.0,0.0,0.0,0.0,0.0,0.0,0.0,0.0,0.0,0.0,0.0,0.0,0.0,0.0,0.0,0.0,0.0,0.0,0.0,0.0,0.0,0.0,0.0,0.0,0.0,0.0,0.0,0.0,0.0,0.0,0.0,0.0,0.0,0.0,0.0,0.0,0.0,0.0,0.0,0.0,0.0,0.0,0.0,0.0,0.0,0.0,0.0,0.0,0.0,0.0,0.0,0.0,0.0,0.0,0.0,0.0,0.0,0.0,0.0,0.0,0.0,0.0,0.0,0.0,0.0,0.0,0.0,0.0,0.0,0.0,0.0,0.0,0.0,0.0,0.0,0.0,0.0,0.0,0.0,0.0,0.0,0.0,0.0,0.0,0.0,0.0,0.0,0.0,0.0,0.0,0.0,0.0,0.0,0.0,0.0,0.0,0.0,0.0,0.0,0.0,0.0,0.0,0.0,0.0,0.0,0.0,0.0,0.0,0.0,0.0,0.0,0.0,0.0,0.0,0.0,0.0,0.0,0.0,0.0,0.0,0.0,0.0,0.0,0.0,0.0,0.0,0.0,0.0,0.0,0.0,0.0,0.0,0.0,0.0,0.0,0.0,0.0,0.0,0.0,0.0,0.0,0.0,0.0,0.0,0.0,0.0,0.0,0.0,0.0,0.0,0.0,0.0,0.0,0.0,0.0,0.0,0.0,0.0,0.0,0.0,0.0,0.0,0.0,0.0,0.0,0.0,0.0,0.0,0.0,0.0,0.0,0.0,0.0,0.0,0.0,0.0,0.0,0.0,0.0,0.0,0.0,0.0,0.0,0.0,0.0,0.0,0.0,0.0,0.0,0.0,0.0,0.0,0.0,0.0,0.0,0.0,0.0,0.0,0.0,0.0,0.0,0.0,0.0,0.0,0.0,0.0,0.0,0.0,0.0,0.0,0.0,0.0,0.0,0.0,0.0,0.0,0.0,0.0,0.0,0.0,0.0,0.0,0.0,0.0,0.0,0.0,0.0,0.0,0.0,0.0,0.0,0.0,0.0,0.0,0.0,0.0,0.0,0.0,0.0,0.0,0.0,0.0,0.0,0.0,0.0,0.0,0.0,0.0,0.0,0.0,0.0,0.0,0.0,0.0,0.0,0.0,0.0,0.0,0.0,0.0,0.0,0.0,0.0,0.0,0.0,0.0,0.0,0.0,0.0,0.0,0.0,0.0,0.0,0.0,0.0,0.0,0.0,0.0,0.0,0.0,0.0,0.0,0.0,0.0,0.0,0.0,0.0,0.0,0.0,0.0,0.0,0.0,0.0,0.0,0.0,0.0,0.0,0.0,0.0,0.0,0.0,0.0,0.0,0.0,0.0,0.0,0.0,0.0,0.0,0.0,0.0,0.0,0.0,0.0,0.0,0.0,0.0,0.0,0.0,0.0,0.0,0.0,0.0,0.0,0.0,0.0,0.0,0.0,0.0,0.0,0.0,0.0,0.0,0.0,0.0,0.0,0.0,0.0,0.0,0.0,0.0,0.0,0.0,0.0,0.0,0.0,0.0,0.0,0.0,0.0,0.0,0.0,0.0,0.0,0.0,0.0,0.0,0.0,0.0,0.0,0.0,0.0,0.0,0.0,0.0,0.0,0.0,0.0,0.0,0.0,0.0,0.0,0.0,0.0,0.0,0.0,0.0,0.0,0.0,0.0,0.0,0.0,0.0,0.0,0.0,0.0,0.0,0.0,0.0,0.0,0.0,0.0,0.0,0.0,0.0,0.0,0.0,0.0,0.0,0.0,0.0,0.0,0.0,0.0,0.0,0.0,0.0,0.0,0.0,0.0,0.0,0.0,0.0,0.0,0.0,0.0,0.0,0.0,0.0,0.0,0.0,0.0,0.0,0.0,0.0,0.0,0.0,0.0,0.0,0.0,0.0,0.0,0.0,0.0,0.0,0.0,0.0,0.0,0.0,0.0,0.0,0.0,0.0,0.0,0.0,0.0,0.0,0.0,0.0,0.0,0.0,0.0,0.0,0.0,0.0,0.0,0.0,0.0,0.0,0.0,0.0,0.0,0.0,0.0,0.0,0.0,0.0,0.0,0.0,0.0,0.0,0.0,0.0,0.0,0.0,0.0,0.0,0.0,0.0,0.0,0.0,0.0,0.0,0.0,0.0,0.0,0.0,0.0,0.0,0.0,0.0,0.0,0.0,0.0,0.0,0.0,0.0,0.0,0.0,0.0,0.0,0.0,0.0,0.0,0.0,0.0,0.0,0.0,0.0,0.0,0.0,0.0,0.0,0.0,0.0,0.0,0.0,0.0,0.0,0.0,0.0,0.0,0.0,0.0,0.0,0.0,0.0,0.0,0.0,0.0,0.0,0.0,0.0,0.0,0.0,0.0,0.0,0.0,0.0,0.0,0.0,0.0,0.0,0.0,0.0,0.0,0.0,0.0,0.0,0.0,0.0,0.0,0.0,0.0,0.0,0.0,0.0,0.0,0.0,0.0,0.0,0.0,0.0,0.0,0.0,0.0,0.0,0.0,0.0,0.0,0.0,0.0,0.0,0.0,0.0,0.0,0.0,0.0,0.0,0.0,0.0,0.0,0.0,0.0,0.0,0.0,0.0,0.0,0.0,0.0,0.0,0.0,0.0,0.0,0.0,0.0,0.0,0.0,0.0,0.0,0.0,0.0,0.0,0.0,0.0,0.0,0.0,0.0,0.0,0.0,0.0,0.0,0.0,0.0,0.0,0.0,0.0,0.0,0.0,0.0,0.0,0.0,0.0,0.0,0.0,0.0,0.0,0.0,0.0,0.0,0.0,0.0,0.0,0.0,0.0,0.0,0.0,0.0,0.0,0.0,0.0,0.0,0.0,0.0,0.0,0.0,0.0,0.0,0.0,0.0,0.0,0.0,0.0,0.0,0.0,0.0,0.0,0.0,0.0,0.0,0.0,0.0,0.0,0.0,0.0,0.0,0.0,0.0,0.0,0.0,0.0,0.0,0.0,0.0,0.0,0.0,0.0,0.0,0.0,0.0,0.0,0.0,0.0,0.0,0.0,0.0,0.0,0.0,0.0,0.0,0.0,0.0,0.0,0.0,0.0,0.0,0.0,0.0,0.0,0.0,0.0,0.0,0.0,0.0,0.0,0.0,0.0,0.0,0.0,0.0,0.0,0.0,0.0,0.0,0.0,0.0,0.0,0.0,0.0,0.0,0.0,0.0,0.0,0.0,0.0,0.0,0.0,0.0,0.0,0.0,0.0,0.0,0.0,0.0,0.0,0.0,0.0,0.0,0.0,0.0,0.0,0.0,0.0,0.0,0.0,0.0,0.0,0.0,0.0,0.0,0.0,0.0,0.0,0.0,0.0,0.0,0.0,0.0,0.0,0.0,0.0,0.0,0.0,0.0,0.0,0.0,0.0,0.0,0.0,0.0,0.0,0.0,0.0,0.0,0.0,0.0,0.0,0.0,0.0,0.0,0.0,0.0,0.0,0.0,0.0,0.0,0.0,0.0,0.0,0.0,0.0,0.0,0.0,0.0,0.0,0.0,0.0,0.0,0.0,0.0,0.0,0.0,0.0,0.0,0.0,0.0,0.0,0.0,0.0,0.0,0.0,0.0,0.0,0.0,0.0,0.0,0.0,0.0,0.0,0.0,0.0,0.0,0.0,0.0,0.0,0.0,0.0,0.0,0.0,0.0,0.0,0.0,0.0,0.0,0.0,0.0,0.0,0.0,0.0,0.0,0.0,0.0,0.0,0.0,0.0,0.0,0.0,0.0,0.0,0.0,0.0,0.0,0.0,0.0,0.0,0.0,0.0,0.0,0.0,0.0,0.0,0.0,0.0,0.0,0.0,0.0,0.0,0.0,0.0,0.0,0.0,0.0,0.0,0.0,0.0,0.0,0.0,0.0,0.0,0.0,0.0,0.0,0.0,0.0,0.0,0.0,0.0,0.0,0.0,0.0,0.0,0.0,0.0,0.0,0.0,0.0,0.0,0.0,0.0,0.0,0.0,0.0,0.0,0.0,0.0,0.0,0.0,0.0,0.0,0.0,0.0,0.0,0.0,0.0,0.0,0.0,0.0,0.0,0.0,0.0,0.0,0.0,0.0,0.0,0.0,0.0,0.0,0.0,0.0,0.0,0.0,0.0,0.0,0.0,0.0,0.0,0.0,0.0,0.0,0.0,0.0,0.0,0.0,0.0,0.0,0.0,0.0,0.0,0.0,0.0,0.0,0.0,0.0,0.0,0.0,0.0,0.0,0.0,0.0,0.0,0.0,0.0,0.0,0.0,0.0,0.0,0.0,0.0,0.0,0.0,0.0,0.0,0.0,0.0,0.0,0.0,0.0,0.0,0.0,0.0,0.0,0.0,0.0,0.0,0.0,0.0,0.0,0.0,0.0,0.0,0.0,0.0,0.0,0.0,0.0,0.0,0.0,0.0,0.0,0.0,0.0,0.0,0.0,0.0,0.0,0.0,0.0,0.0,0.0,0.0,0.0,0.0,0.0,0.0,0.0,0.0,0.0,0.0,0.0,0.0,0.0,0.0,0.0,0.0,0.0,0.0,0.0,0.0,0.0,0.0,0.0,0.0,0.0,0.0,0.0,0.0,0.0,0.0,0.0,0.0,0.0,0.0,0.0,0.0,0.0,0.0,0.0,0.0,0.0,0.0,0.0,0.0,1.0395,1.0205,0.0,0.0,0.0,0.0,0.0,0.0,0.0,0.0,0.0,0.0,0.0,0.0,0.0,0.0,0.0,0.0,0.0,0.0,0.0,0.0,0.0,0.0,0.0,0.5369,0.5516,0.5674,0.5881,0.6005,0.6005,0.0,0.0,0.0,0.0,0.0,0.5686,0.5686,0.5784,0.5978,0.6376,0.6794,0.72,0.72,0.6808,0.6098,0.0,0.0,0.0,0.0,0.0,0.0,0.0,0.0,0.0,0.0,0.0,0.0,0.0,0.0,0.0,0.0,0.0,0.0,0.0,0.0,0.0,0.0,0.0,0.0,0.0,0.0,0.0,0.0,0.0,0.0,0.0,0.0,0.0,0.0,0.0,0.0,0.0,0.0,0.0,0.0,0.0,0.0,0.0,0.0,0.0,0.0,0.0,0.0,0.0,0.0,0.0,0.0,0.0,0.0,0.0,0.0,0.0,0.0,0.0,0.0,0.0,0.0,0.0,0.0,0.0,0.0,0.0,0.0,0.0,0.0,1.1153,1.0776,0.0,0.0,0.0,0.0,0.0,0.0,0.0,0.0,0.0,0.0,0.0,0.0,0.0,0.0,0.0,0.0,0.0,0.0,0.0,0.0,0.0,0.5117,0.5448,0.5562,0.5738,0.6072,0.6172,0.6212,0.6212,0.6212,0.0,0.0,0.0,0.6108,0.6108,0.6172,0.637,0.6705,0.7262,0.7931,0.8705,0.8705,0.8042,0.6822,0.6679,0.0,0.0,0.0,0.0,0.0,0.0,0.0,0.0,0.0,0.0,0.0,0.0,0.0,0.0,0.0,0.0,0.0,0.0,0.0,0.0,0.0,0.0,0.0,0.0,0.0,0.0,0.0,0.0,0.0,0.0,0.0,0.0,0.0,0.0,0.0,0.0,0.0,0.0,0.0,0.0,0.0,0.0,0.0,0.0,0.0,0.0,0.0,0.0,0.0,0.0,0.0,0.0,0.0,0.0,0.0,0.0,0.0,0.0,0.0,0.0,0.0,0.0,0.0,1.2193,1.2407,1.2432,1.2836,1.301,1.2955,1.196,1.1405,1.1208,1.1135,0.0,0.0,0.0,0.0,0.0,0.0,0.0,0.0,0.0,0.0,0.0,0.0,0.0,0.0,0.0,0.0,0.0,0.0,0.0,0.5349,0.5411,0.603,0.6464,0.6516,0.6836,0.7041,0.7041,0.7041,0.0,0.0,0.6705,0.6519,0.6519,0.6863,0.7068,0.7123,0.8283,0.9083,0.9546,0.9546,0.9461,0.9296,0.8596,0.8358,0.8421,0.0,0.0,0.0,0.0,0.0,0.0,0.0,0.0,0.0,0.0,0.0,0.0,0.0,0.0,0.0,0.0,0.0,0.0,0.0,0.0,0.0,0.0,0.0,0.0,0.0,0.0,0.0,0.0,0.0,0.0,0.0,0.0,0.0,0.0,0.0,0.0,0.0,0.0,0.0,0.0,0.0,0.7125,0.7086,0.0,0.0,0.0,0.0,0.0,0.0,0.0,0.0,0.0,0.0,0.0,0.0,0.0,1.1219,1.1537,1.2185,1.252,1.2548,1.3307,1.3658,1.3683,1.4084,1.426,1.4251,1.4095,0.0,1.2435,1.2089,0.0,0.0,0.0,0.0,0.0,0.0,0.0,0.0,0.0,0.0,0.0,0.0,0.0,0.0,0.0,0.0,0.0,0.0,0.0,0.0,0.0,0.6459,0.7028,0.7254,0.7681,0.7813,0.7553,0.7535,0.7438,0.7209,0.7031,0.7042,0.7272,0.7449,0.7885,0.8606,0.9621,1.0196,1.037,1.037,1.0407,1.0461,1.0109,0.9652,0.9109,0.8701,0.0,0.0,0.0,0.0,0.0,0.0,0.0,0.0,0.0,0.0,0.0,0.0,0.0,0.0,0.0,0.0,0.0,0.0,0.0,0.0,0.0,0.0,0.0,0.0,0.0,0.0,0.0,0.0,0.0,0.0,0.0,0.0,0.0,0.0,0.0,0.0,0.0,0.0,0.0,0.6969,0.755,0.7792,0.7952,0.7894,0.0,0.0,0.0,0.0,0.0,0.0,0.0,0.0,0.0,1.0807,1.1821,1.257,1.2988,1.3692,1.4053,1.4053,1.464,1.4915,1.4915,1.5093,1.5175,1.5175,1.5175,1.4871,1.4317,1.3463,1.2869,1.2449,0.0,0.0,0.0,0.0,1.1301,1.1653,0.0,0.0,0.0,0.0,0.0,0.0,0.0,0.0,0.0,0.0,0.0,0.0,0.6248,0.6929,0.7525,0.794,0.8302,0.8298,0.7833,0.7806,0.7622,0.7218,0.7296,0.7499,0.7793,0.8119,0.8903,1.0157,1.0756,1.1107,1.1208,1.1208,1.1229,1.1278,1.1278,1.0752,0.9848,0.9601,0.8955,0.0,0.0,0.0,0.0,0.0,0.0,0.0,0.0,0.0,0.0,0.0,0.0,0.0,0.0,0.0,0.0,0.0,0.0,0.0,0.0,0.0,0.0,0.0,0.0,0.0,0.0,0.0,0.0,0.0,0.0,0.0,0.0,0.0,0.0,0.0,0.0,0.0,0.0,0.7424,0.7898,0.8419,0.8484,0.8415,0.0,0.0,0.0,0.0,0.0,0.0,0.9173,1.0313,1.123,1.1813,1.2869,1.3657,1.415,1.483,1.5179,1.5179,1.5645,1.5854,1.5862,1.5963,1.6009,1.6009,1.6009,1.6009,1.5917,1.4697,1.4027,1.3724,1.3316,1.2976,1.2713,1.2713,1.2967,1.3307,0.0,0.0,0.0,0.0,0.0,0.0,0.0,0.0,0.0,0.0,0.0,0.6266,0.7053,0.7513,0.7954,0.8425,0.8489,0.8298,0.7833,0.7806,0.7622,0.7218,0.7568,0.7778,0.7806,0.8986,1.0203,1.1409,1.1446,1.1672,1.2036,1.2036,1.2036,1.2036,1.2036,1.1699,1.105,1.0157,0.9748,0.9598,0.0,0.0,0.0,0.0,0.0,0.0,0.0,0.0,0.0,0.0,0.0,0.0,0.0,0.0,0.0,0.0,0.0,0.0,0.0,0.0,0.0,0.0,0.0,0.0,0.0,0.0,0.0,0.0,0.0,0.0,0.0,0.0,0.0,0.0,0.0,0.0,0.0,0.0,0.0,0.8905,0.896,0.0,0.0,0.0,0.0,0.9117,0.9573,0.9944,1.0216,1.1315,1.2093,1.2437,1.3501,1.4221,1.4566,1.5104,1.538,1.5389,1.5993,1.6268,1.6277,1.667,1.6844,1.6844,1.6844,1.6844,1.6752,1.5533,1.5029,1.4974,1.457,1.4398,1.4379,1.4379,1.4636,1.4983,0.0,0.0,0.0,0.0,0.0,0.4939,0.485,0.4835,0.4975,0.5348,0.575,0.6303,0.7117,0.7832,0.8426,0.8843,0.9119,0.905,0.8545,0.8504,0.8293,0.7805,0.7997,0.8404,0.9013,0.9978,1.0811,1.1501,1.1764,1.1963,1.2101,1.2101,1.2101,1.2101,1.2008,1.1853,1.1608,1.1022,1.044,0.9871,0.9157,0.855,0.0,0.0,0.0,0.0,0.0,0.0,0.0,0.0,0.0,0.0,0.0,0.0,0.0,0.0,0.0,0.0,0.0,0.0,0.0,0.0,0.0,0.0,0.0,0.0,0.0,0.0,0.0,0.0,0.0,0.0,0.0,0.0,0.0,0.0,0.0,0.0,0.0,0.9514,0.9576,0.0,0.9766,0.9691,0.9766,1.0074,1.0501,1.0782,1.0876,1.1798,1.2529,1.3006,1.3853,1.4585,1.517,1.5712,1.617,1.6559,1.6913,1.7211,1.7459,1.7605,1.767,1.767,1.767,1.767,1.7642,1.7202,1.657,1.5837,1.5432,1.5267,1.5267,1.5267,1.5359,1.5486,0.0,0.0,0.0,0.0,0.4993,0.4876,0.4815,0.4914,0.5145,0.5555,0.6072,0.6717,0.7548,0.8274,0.8866,0.9271,0.9503,0.9421,0.8933,0.8859,0.8615,0.8123,0.8487,0.9206,1.028,1.0829,1.1284,1.1628,1.1905,1.2008,1.1971,1.1971,1.1971,1.1958,1.1821,1.1771,1.1741,1.1379,1.0898,1.0321,0.9786,0.9328,0.8924,0.0,0.0,0.0,0.0,0.0,0.0,0.0,0.0,0.0,0.0,0.0,0.0,0.0,0.0,0.0,0.0,0.0,0.0,0.0,0.0,0.0,0.0,0.0,0.0,0.0,0.0,0.0,0.0,0.0,0.0,0.0,0.0,0.0,0.0,0.876,0.9336,1.0049,1.0138,1.0241,1.0513,1.0539,1.0633,1.0851,1.1216,1.1443,1.1443,1.2133,1.2775,1.3278,1.3994,1.474,1.5531,1.6174,1.6765,1.7296,1.757,1.7844,1.81,1.81,1.81,1.81,1.81,1.81,1.81,1.81,1.7633,1.6873,1.6459,1.6311,1.6293,1.6147,1.6101,1.6101,0.0,0.0,0.0,0.5102,0.4985,0.4873,0.4815,0.5138,0.554,0.5945,0.6699,0.7535,0.8402,0.8862,0.9262,0.9661,0.9578,0.9333,0.8932,0.8788,0.8545,0.8167,0.9026,1.0129,1.1462,1.1489,1.1622,1.1896,1.1896,1.1828,1.1703,1.1703,1.1703,1.1688,1.1565,1.1502,1.1484,1.1204,1.1099,1.1063,1.0516,1.0079,0.9682,0.0,0.0,0.0,0.0,0.0,0.0,0.0,0.0,0.0,0.0,0.0,0.0,0.0,0.0,0.0,0.0,0.0,0.0,0.0,0.0,0.0,0.0,0.0,0.0,0.0,0.0,0.0,0.0,0.0,0.0,0.0,0.0,0.0,0.8791,0.9064,0.9584,1.0506,1.0621,1.0839,1.1379,1.1432,1.1437,1.1451,1.1746,1.1931,1.1937,1.2371,1.2824,1.3288,1.3948,1.4721,1.5581,1.6456,1.7107,1.752,1.7923,1.8137,1.8146,1.8146,1.8146,1.8146,1.8146,1.8146,1.8146,1.8146,1.8146,1.81,1.7688,1.7513,1.7468,1.7083,1.6936,1.6936,0.0,0.0,0.5088,0.4971,0.4882,0.4818,0.4805,0.5138,0.554,0.5945,0.6699,0.7535,0.8402,0.8862,0.9229,0.9527,0.9524,0.935,0.8999,0.903,0.9118,0.9256,0.9506,1.0134,1.1193,1.1211,1.1393,1.1744,1.1744,1.174,1.1703,1.1703,1.1703,1.1688,1.1565,1.1502,1.1484,1.1204,1.116,1.1199,1.0657,1.0438,1.0392,0.0,0.0,0.0,0.0,0.0,0.0,0.0,0.0,0.0,0.0,0.0,0.0,0.0,0.0,0.0,0.0,0.0,0.0,0.0,0.0,0.0,0.0,0.0,0.0,0.0,0.0,0.0,0.0,0.0,0.0,0.0,0.8931,0.9593,0.9466,0.9895,1.0383,1.0838,1.1062,1.1408,1.2004,1.2048,1.2235,1.2666,1.2614,1.2643,1.2832,1.287,1.3058,1.3434,1.405,1.4703,1.5383,1.6256,1.7104,1.7938,1.834,1.8696,1.8971,1.8971,1.8971,1.8971,1.8971,1.8971,1.8971,1.8971,1.8971,1.8897,1.821,1.7944,1.7917,1.7807,1.777,1.777,0.0,0.5032,0.4945,0.4836,0.4808,0.4802,0.4802,0.5288,0.5732,0.5969,0.6844,0.7723,0.842,0.8862,0.921,0.9482,0.942,0.9266,0.9016,0.9177,0.9481,0.9935,1.0114,1.0562,1.1332,1.1347,1.1435,1.1622,1.1565,1.1502,1.1452,1.1387,1.1364,1.1364,1.1282,1.1251,1.1223,1.1023,1.1042,1.1175,1.0822,1.0781,1.0923,1.0646,1.0489,1.0401,1.0364,1.0146,0.9745,0.9073,0.0,0.0,0.0,0.0,0.0,0.0,0.0,0.0,0.0,0.0,0.0,0.0,0.0,0.0,0.0,0.0,0.0,0.0,0.0,0.0,0.0,0.0,0.0,0.0,0.9787,1.0327,1.0401,1.0708,1.1045,1.134,1.1608,1.1968,1.2464,1.2615,1.2816,1.3177,1.3066,1.3039,1.319,1.313,1.322,1.3527,1.4062,1.4714,1.5464,1.6327,1.7201,1.8062,1.8484,1.8816,1.9052,1.9142,1.9163,1.9182,1.9262,1.9301,1.9301,1.9301,1.9301,1.9237,0.0,0.0,0.0,0.0,1.81,1.81,0.0,0.4917,0.4769,0.471,0.4749,0.4811,0.4861,0.5514,0.6014,0.6063,0.7082,0.7963,0.8375,0.8788,0.9114,0.9337,0.9222,0.9105,0.0,0.9258,0.9679,1.0317,1.0693,1.1124,1.1644,1.1644,1.1603,1.1484,1.1345,1.1226,1.1099,1.096,1.0903,1.0903,1.0903,1.0903,1.089,1.0756,1.0845,1.1068,1.0934,1.1049,1.1286,1.1048,1.1053,1.1137,1.0926,1.0893,1.0905,1.0498,0.0,0.0,0.0,0.0,0.0,0.0,0.0,0.0,0.0,0.0,0.0,0.0,0.0,0.0,0.0,0.0,0.0,0.0,0.0,0.0,0.0,0.0,0.0,0.0,1.0491,1.0913,1.1394,1.1513,1.1655,1.1908,1.2187,1.2504,1.286,1.3109,1.3263,1.3297,1.327,1.3263,1.3297,1.327,0.0,0.0,0.0,1.4748,1.5661,1.6489,1.7225,1.789,1.8352,1.8591,1.863,1.8861,1.8982,1.9012,1.9202,1.9301,1.9301,1.9301,1.9301,1.9265,1.8907,1.8769,1.8723,1.8366,1.8237,1.8237,0.0,0.4786,0.4719,0.4704,0.4707,0.4851,0.5228,0.5687,0.6118,0.6443,0.7254,0.7837,0.7927,0.8343,0.857,0.846,0.861,0.8887,0.0,0.0,0.9706,1.0583,1.0703,1.0942,1.1368,1.1383,1.1364,1.1345,1.12,1.1131,1.1099,1.096,1.0903,1.0903,1.0903,1.0903,1.089,1.0756,1.0788,1.0928,1.0788,1.096,1.1312,1.1359,1.1463,1.1591,1.1654,1.1552,1.1323,1.0923,1.0458,0.9959,0.9332,0.0,0.0,0.0,0.0,0.0,0.0,0.0,0.0,0.0,0.0,0.0,0.0,0.0,0.0,0.0,0.0,0.0,0.0,0.0,0.0,1.0424,1.1149,1.1683,1.179,1.2219,1.2453,1.2254,1.2506,1.2901,1.34,1.3497,1.363,1.3912,1.3684,1.364,1.3912,1.3667,1.3663,1.3988,1.425,1.4733,1.5446,1.5997,1.6581,1.7204,1.7669,0.0,1.8151,1.8571,1.8851,1.9012,1.9202,1.9301,1.9301,1.9301,1.9301,1.9292,1.9219,1.9182,1.9163,1.91,1.9072,1.9072,0.472,0.4672,0.4629,0.4566,0.4772,0.5037,0.5308,0.5837,0.6281,0.6522,0.704,0.7479,0.7678,0.7904,0.8082,0.8149,0.8329,0.0,0.0,0.9558,0.9964,1.0672,1.0893,1.1085,1.1299,1.1301,1.1301,1.1301,1.1099,1.0998,1.0998,1.0788,1.0699,1.0699,1.0699,1.0699,1.0699,1.063,1.0673,1.0788,1.0733,1.0903,1.1204,1.1352,1.1521,1.1722,1.1852,1.1856,1.1773,1.1574,1.1228,1.0805,1.0193,0.9607,0.8999,0.0,0.0,0.0,0.0,0.0,0.0,0.0,0.0,0.0,0.0,0.0,0.0,0.0,0.0,0.8985,0.0,0.0,1.0701,1.1167,1.173,1.2156,1.2331,1.2737,1.2895,1.2587,1.2929,1.3313,1.3573,1.3743,1.3918,1.4085,1.3938,1.3918,1.4092,1.3938,1.3935,1.4092,1.43,1.4618,1.5058,1.5519,1.5953,1.6355,1.6835,1.7151,1.7363,1.7941,1.8382,1.8723,1.9023,1.9202,1.9301,1.9301,1.9301,1.9301,1.9301,1.9301,1.9301,1.9301,1.9301,1.9301,0.4565,0.4549,0.4552,0.4539,0.4888,0.5249,0.5459,0.5983,0.6412,0.6559,0.6779,0.7047,0.7368,0.7391,0.7547,0.7934,0.8063,0.0,0.0,0.9782,1.0221,1.079,1.1095,1.1263,1.1263,1.1245,1.1226,1.1226,1.0979,1.0858,1.0858,1.061,1.0502,1.0502,1.0502,1.0502,1.0502,1.0502,1.056,1.0654,1.0654,1.0807,1.1042,1.1175,1.1402,1.1684,1.1784,1.1908,1.202,1.202,1.181,1.1443,1.0867,1.0269,0.9611,0.8813,0.8052,0.0,0.0,0.0,0.0,0.0,0.0,0.0,0.0,0.0,0.8465,0.8951,0.954,1.0123,1.0667,1.1032,1.1411,1.1904,1.226,1.2568,1.2837,1.3109,1.32,1.2982,1.3337,1.3626,1.3697,1.3938,1.4099,1.4099,1.4099,1.4099,1.4099,1.4099,1.4099,1.4099,1.4265,1.444,1.4639,1.5019,1.5311,1.5505,1.594,1.6299,1.6615,1.7347,1.7948,1.8422,1.8864,1.9152,1.9301,1.9301,1.9301,1.9301,1.9301,1.9301,1.9301,1.9301,1.9301,1.9301,0.0,0.4382,0.4548,0.4955,0.5071,0.5356,0.6078,0.6206,0.6379,0.6802,0.6733,0.6665,0.6708,0.6659,0.6855,0.7429,0.7491,0.0,0.9658,0.9802,1.0242,1.1188,1.1162,1.1124,1.1124,1.1011,1.0941,1.0941,1.0801,1.0718,1.0718,1.0573,1.0502,1.0502,1.0502,1.0502,1.0502,1.0502,1.0509,1.0522,1.0522,1.061,1.0756,1.089,1.1188,1.1521,1.1546,1.1625,1.174,1.174,1.1711,1.1635,1.1451,1.0928,1.0235,0.9438,0.0,0.8023,0.7671,0.7883,0.8208,0.8241,0.8604,0.8898,0.0,0.0,0.9878,0.9938,1.0433,1.095,1.1252,1.1775,1.2178,1.2245,1.2732,1.311,1.3153,1.3387,1.354,1.3507,1.356,1.3717,1.4025,1.4079,1.4099,1.4099,1.4099,1.4099,1.4099,1.4099,1.4099,1.4099,1.412,1.4233,1.443,1.4493,1.4618,1.4817,1.5114,1.5572,1.6198,1.7171,1.7895,1.8424,1.9004,1.9282,1.9301,1.9301,1.9301,1.9301,1.9301,1.9301,1.9301,1.9301,1.9301,1.9301,0.0,0.4536,0.4835,0.531,0.5393,0.5597,0.6202,0.6376,0.6506,0.6696,0.6551,0.6379,0.6268,0.6187,0.6454,0.7221,0.7352,0.8048,0.9586,0.9761,1.0176,1.1028,1.1011,1.0979,1.0979,1.0928,1.0903,1.0903,1.0769,1.0699,1.0699,1.056,1.0502,1.0502,1.0502,1.0502,1.0502,1.0502,1.0502,1.0502,1.0502,1.0586,1.0713,1.0756,1.089,1.1068,1.1301,1.1421,0.0,0.0,1.1471,1.1425,1.1226,1.0818,1.0329,0.9759,0.9096,0.0,0.8344,0.8576,0.8911,0.9105,0.9326,0.9559,0.9794,1.013,1.0476,1.0792,1.1209,1.156,1.1672,1.2024,1.2358,0.0,1.2926,1.3247,1.341,1.3694,1.3891,1.3891,1.3891,1.3948,1.4085,1.4099,1.4099,1.4099,1.4099,1.4099,1.4099,1.4099,1.4099,1.4099,1.4099,1.4134,1.4222,1.4233,1.4265,1.4349,1.4573,1.4978,1.5548,1.6477,1.7639,1.8957,1.9692,1.9997,1.9979,1.9759,1.9648,1.9631,1.9383,1.9301,1.9301,1.9301,1.9301,1.9301,0.0,0.4644,0.5016,0.5467,0.5653,0.5897,0.6363,0.6529,0.6592,0.6577,0.6394,0.618,0.5944,0.5877,0.6147,0.6917,0.7119,0.7791,0.9156,0.9473,0.9905,1.0572,1.0695,1.075,1.0788,1.075,1.075,1.0788,1.0686,1.0643,1.0643,1.0547,1.0502,1.0502,1.0502,1.0502,1.0502,1.0502,1.0502,1.0502,1.0502,1.056,1.0643,1.0643,1.0584,1.0558,1.0941,1.1,0.0,0.0,1.0825,1.0795,1.0563,1.035,1.0113,0.9744,0.9287,0.8909,0.8911,0.9178,0.9524,0.9868,1.0002,1.0196,1.0697,1.0894,1.1075,1.1463,1.1792,1.2009,1.2009,1.2234,1.2544,1.2864,1.3143,1.3413,1.3707,1.3948,1.4099,1.4099,1.4099,1.4099,1.4099,1.4099,1.4099,1.4099,1.4099,1.4099,1.4099,1.4099,1.4099,1.4099,1.4099,1.4099,1.4099,1.4099,1.4099,1.4099,1.4254,1.459,1.5142,1.6371,1.7836,1.9477,2.0194,2.05,2.0472,2.0189,2.0069,2.0042,1.9741,1.9632,1.9622,1.9512,1.9402,1.9301,0.0,0.0,0.4935,0.5338,0.5777,0.6246,0.6708,0.6683,0.6577,0.6509,0.6325,0.6079,0.5744,0.5712,0.5899,0.6381,0.6606,0.718,0.8266,0.8826,0.9333,0.9818,1.0142,1.038,1.0509,1.038,1.038,1.0515,1.0509,1.0509,1.0509,1.0502,1.0502,1.0502,1.0502,1.0502,1.0502,1.0502,1.0502,1.0502,1.0502,1.0502,1.0509,1.0509,1.0295,1.007,1.04,0.0,0.0,0.97,0.9656,0.9631,0.9484,0.9529,0.0,0.9296,0.9207,0.9191,0.9191,0.9617,1.0153,1.0492,1.0766,1.1029,1.1312,1.1632,1.1873,1.1877,1.2102,1.2285,1.2285,1.256,1.2871,1.3137,1.341,1.3703,1.4045,1.4092,1.4099,1.4099,1.4099,1.4099,0.0,1.4099,1.4099,1.4099,1.4099,1.4099,1.4099,1.4099,1.4099,1.4099,1.4099,1.4099,1.4099,1.4099,1.4099,1.4099,1.4109,1.4468,1.517,1.7283,1.8818,1.9804,2.0289,2.05,2.05,2.0491,2.0482,2.0472,2.0463,2.0463,2.0428,2.0033,1.963,1.9301,0.0,0.0,0.0,0.573,0.6149,0.6488,0.6644,0.6626,0.6561,0.6452,0.6021,0.0,0.0,0.0,0.0,0.0,0.6226,0.673,0.758,0.8138,0.8611,0.899,0.9366,0.9596,0.9639,0.9853,1.0032,1.0167,1.0303,1.0413,1.0502,1.0502,1.0502,1.0502,1.0502,1.0502,1.0502,1.0502,1.0502,1.0502,1.0502,1.0502,1.0483,1.0244,0.9881,0.9451,0.0,0.0,0.0,0.9143,0.9067,0.9075,0.9121,0.0,0.9089,0.9173,0.92,0.929,0.9684,1.0114,1.0497,1.0791,1.107,1.1348,1.1659,1.1815,1.1897,1.1897,1.1969,1.2029,1.2029,1.2125,1.2362,1.2855,1.316,1.344,1.3734,1.3961,1.4099,1.4099,1.4099,0.0,0.0,1.4099,1.4099,1.4099,1.4099,1.4099,1.4099,1.4099,1.4099,1.4099,1.4099,1.4099,1.4099,1.4099,1.4099,1.4099,1.437,1.4845,1.5551,1.7166,1.8551,1.9711,2.0399,2.0931,2.1279,2.1015,2.0895,2.0868,2.0601,2.05,2.0482,2.0344,2.0207,2.0025,0.0,0.0,0.0,0.0,0.0,0.0,0.0,0.0,0.0,0.0,0.0,0.0,0.0,0.0,0.0,0.0,0.0,0.6358,0.6977,0.7516,0.7912,0.8132,0.8546,0.8794,0.8842,0.9236,0.9512,0.9645,0.9965,1.0168,1.0252,1.0295,1.0315,1.0315,1.0315,1.0315,1.0315,1.0315,1.0315,1.0315,1.0315,1.029,1.022,0.9953,0.9555,0.0,0.0,0.0,0.8578,0.8452,0.8434,0.8516,0.872,0.886,0.9001,0.9293,0.9532,0.9786,1.0174,1.0584,1.0958,1.1253,1.145,1.1663,1.1966,1.1971,1.1897,1.1897,1.1801,1.1719,1.1719,1.1815,1.206,1.254,1.2949,1.3293,1.356,1.3891,1.4099,1.4099,1.4099,1.4099,0.0,0.0,1.4099,1.4099,1.4099,1.4099,1.4099,1.4099,1.4099,1.4099,1.4099,1.4099,1.4099,1.4099,1.4146,1.4253,1.4796,1.5412,1.61,1.7453,1.8688,1.9815,2.0649,2.1281,2.168,2.1425,2.1306,2.1299,2.1031,2.093,2.0912,2.0776,2.0701,2.062,0.0,0.0,0.0,0.0,0.0,0.0,0.0,0.0,0.0,0.0,0.0,0.0,0.0,0.0,0.0,0.0,0.0,0.0,0.6448,0.697,0.0,0.7258,0.7706,0.8019,0.8142,0.8544,0.8816,0.8951,0.9485,0.9757,0.9763,0.9907,0.998,0.998,0.998,0.998,0.998,0.998,0.998,0.998,0.998,0.9902,0.9772,0.9628,0.0,0.0,0.0,0.0,0.0,0.7641,0.7798,0.7999,0.8322,0.8791,0.9297,0.964,1.0151,1.0607,1.0626,1.1015,1.1499,1.1815,1.1904,1.1975,1.2218,1.2073,1.189,1.1857,1.1597,1.1377,0.0,0.0,1.1962,1.224,1.2806,1.3287,1.354,1.3884,1.4099,0.0,0.0,0.0,0.0,0.0,1.4099,1.4099,1.4099,1.4099,1.4099,1.4112,1.4119,1.4119,1.4132,1.4156,1.4156,1.4156,1.4269,1.4538,1.5315,1.6053,1.6731,1.8046,1.9182,2.0136,2.0982,2.1497,2.1707,2.1707,2.1707,2.1707,2.1707,2.1707,2.1652,2.1271,2.1125,2.1079,0.0,0.0,0.0,0.0,0.0,0.0,0.0,0.0,0.0,0.0,0.0,0.0,0.0,0.0,0.0,0.0,0.0,0.0,0.6105,0.0,0.0,0.0,0.7105,0.735,0.7378,0.7829,0.8126,0.8257,0.8796,0.9108,0.9208,0.9544,0.9698,0.9698,0.9698,0.9698,0.9698,0.9698,0.9698,0.9698,0.0,0.9686,0.9615,0.0,0.0,0.0,0.0,0.0,0.0,0.0,0.0,0.0,0.8671,0.9098,0.968,1.021,1.048,1.0687,1.1089,1.1476,1.1788,1.1877,1.2049,1.216,1.2029,1.1951,1.177,1.1326,1.1156,1.1094,1.1094,1.1343,1.1628,1.1948,1.2682,0.0,1.3293,1.3761,0.0,1.4099,0.0,1.4099,1.4099,1.4099,1.4099,1.4099,1.4099,1.4099,1.4099,1.4295,1.4398,1.4398,1.464,1.4776,1.4776,1.4776,1.4798,1.4883,1.543,1.5965,1.6507,1.7551,1.871,1.9912,2.0479,2.1101,2.1707,2.1707,2.1707,2.1707,2.1707,2.1707,2.1689,2.1579,2.1553,2.1533,0.0,0.0,0.0,0.0,0.0,0.0,0.0,0.0,0.0,0.0,0.0,0.0,0.0,0.0,0.0,0.0,0.0,0.0,0.0,0.0,0.0,0.6281,0.6501,0.6618,0.6618,0.7044,0.7339,0.7473,0.0,0.0,0.848,0.8765,0.8898,0.8898,0.8898,0.8898,0.8898,0.8898,0.0,0.0,0.0,0.0,0.0,0.0,0.0,0.0,0.0,0.0,0.0,0.0,0.0,0.9024,0.9285,0.9707,1.0183,1.0638,0.0,1.1243,1.1538,1.1839,1.2076,1.2076,1.2102,1.2089,1.1931,1.1596,1.1236,1.0885,1.061,1.0469,1.0581,1.0848,1.1191,1.161,1.2444,0.0,1.3183,1.3721,1.4099,0.0,1.4099,0.0,1.4099,1.4212,1.4282,1.4282,1.4282,1.4282,1.4282,1.4556,1.4716,1.4716,1.4899,1.4997,1.4997,1.5124,1.518,1.518,1.5803,1.6337,1.6837,1.7795,1.8884,2.0053,2.052,2.1089,2.1707,2.1707,2.1707,2.1707,2.1707,2.1707,2.1707,2.1707,2.1707,2.1707,0.0,0.0,0.0,0.0,0.0,0.0,0.0,0.0,0.0,0.0,0.0,0.0,0.0,0.0,0.0,0.0,0.0,0.0,0.0,0.0,0.0,0.5976,0.5965,0.596,0.596,0.6313,0.6547,0.6666,0.0,0.0,0.0,0.0,0.0,0.0,0.0,0.0,0.0,0.0,0.0,0.0,0.0,0.0,0.0,0.0,0.0,0.0,0.0,0.0,0.0,0.0,0.8786,0.9336,0.9924,1.0347,1.0707,1.097,1.1453,1.1913,1.1944,1.212,1.2305,1.2305,1.2102,1.1886,1.1797,1.1169,1.0581,1.05,1.0063,0.9774,0.9998,1.035,1.0759,1.1274,0.0,1.2834,1.316,1.3681,1.4052,1.4092,1.4099,1.4112,1.4152,1.4358,1.4525,1.4565,1.4605,1.4594,1.4572,1.4885,1.5071,1.5111,1.5111,1.5111,1.5111,1.5342,1.5451,1.5458,1.6233,1.6852,1.7326,1.8334,1.9356,2.0326,2.0803,2.1275,2.1707,2.1707,2.1707,2.1707,2.1707,2.1707,2.1707,2.1707,2.1707,2.1707,0.0,0.0,0.0,0.0,0.0,0.0,0.0,0.0,0.0,0.0,0.5413,0.511,0.0,0.0,0.0,0.0,0.0,0.0,0.0,0.0,0.0,0.0,0.5782,0.5755,0.5755,0.5875,0.5951,0.5973,0.0,0.0,0.0,0.0,0.0,0.0,0.0,0.0,0.0,0.0,0.0,0.0,0.0,0.0,0.0,0.0,0.0,0.0,0.0,0.0,0.0,0.0,0.8958,0.952,0.9968,1.048,1.0984,1.1252,1.1597,1.1951,1.2174,1.2265,1.2305,1.2305,1.2102,1.177,1.1273,1.0866,0.0,0.9956,0.9775,0.9714,0.9761,1.0223,1.0707,1.1017,1.1813,1.2581,1.3123,1.3487,1.3787,0.0,1.4099,1.4192,1.4411,1.4467,1.4612,1.4892,1.5122,1.5148,1.4937,1.5186,1.5431,1.5648,1.5666,1.5666,1.5666,1.5708,1.5728,1.574,1.6325,1.6852,1.7326,1.8334,1.9356,2.0326,2.0803,2.1275,2.1707,2.1707,2.1707,2.1707,2.1707,2.1707,2.1707,2.1707,2.1707,2.1707,0.0,0.0,0.0,0.0,0.0,0.0,0.0,0.0,0.5992,0.5823,0.5518,0.5201,0.493,0.4774,0.0,0.0,0.0,0.0,0.0,0.0,0.0,0.0,0.0,0.5236,0.5236,0.5258,0.0,0.0,0.0,0.0,0.0,0.0,0.0,0.0,0.0,0.0,0.0,0.0,0.0,0.0,0.0,0.0,0.0,0.0,0.0,0.0,0.0,0.0,0.0,0.0,0.8792,0.9146,0.9793,1.0387,1.0925,1.1285,1.1637,1.1964,1.2234,1.2305,1.2305,1.2305,1.1971,1.1532,1.1097,0.0,0.0,0.9532,0.9332,0.9272,0.9411,0.982,1.0278,1.0719,1.152,1.2303,1.2915,1.334,1.3723,1.4059,1.4222,1.4358,1.4492,1.4774,1.5037,1.52,1.5458,1.5491,1.5215,1.5464,1.5673,1.5801,1.5808,1.5808,1.5808,1.5808,1.5808,1.5808,1.6341,1.6923,1.754,1.8415,1.9425,2.053,2.086,2.1275,2.1707,2.1707,2.1707,2.1707,2.1707,2.1707,2.1707,2.1707,2.1707,2.1707,0.0,0.0,0.0,0.0,0.0,0.0,0.0,0.6206,0.6091,0.5965,0.5637,0.5307,0.5013,0.4756,0.4701,0.0,0.0,0.0,0.0,0.0,0.0,0.0,0.0,0.4692,0.4692,0.0,0.0,0.0,0.0,0.0,0.0,0.0,0.0,0.0,0.0,0.0,0.0,0.0,0.0,0.0,0.0,0.0,0.0,0.0,0.0,0.0,0.0,0.0,0.0,0.0,0.8487,0.8666,0.9389,1.0085,1.0709,1.1182,1.1583,1.1944,1.2153,1.2258,1.2285,1.2225,1.1802,1.1299,1.0902,1.0235,0.0,0.9191,0.8944,0.8865,0.9071,0.9378,0.9787,1.0391,1.1129,1.1873,1.2589,1.3123,1.3577,1.3948,1.4298,1.4532,1.4598,1.509,1.5424,1.5484,1.5675,1.5708,1.5504,1.5693,1.5808,1.5808,1.5808,1.5808,1.5808,1.5808,1.5832,1.5891,1.6435,1.7075,1.7808,1.8612,1.96,2.071,2.0972,2.132,2.1707,2.1707,2.1707,2.1707,2.1707,2.1707,2.1707,2.1707,2.1707,2.1707,0.0,0.0,0.0,0.0,0.0,0.0,0.0,0.609,0.5965,0.6065,0.5531,0.5168,0.5254,0.4864,0.4682,0.0,0.0,0.0,0.0,0.0,0.0,0.0,0.0,0.0,0.0,0.0,0.0,0.0,0.0,0.0,0.0,0.0,0.0,0.0,0.0,0.0,0.0,0.0,0.0,0.0,0.0,0.0,0.0,0.0,0.0,0.0,0.0,0.0,0.0,0.0,0.0,0.8374,0.864,0.946,1.0431,1.0899,0.0,0.0,1.1931,1.2107,1.2238,1.2004,1.1663,1.1184,1.0372,0.0,0.954,0.8958,0.8818,0.8811,0.8831,0.9058,0.9444,1.0045,1.047,1.1102,1.2184,1.2654,1.3069,1.3583,1.415,1.4618,1.4919,1.5222,1.5504,1.5741,1.5788,1.5795,1.5768,1.5788,1.5808,1.5808,1.5808,1.5808,1.5808,1.5808,1.5915,1.6177,1.6709,1.7347,1.8102,1.9076,1.9965,2.0722,2.117,2.1484,2.1707,2.1707,2.1707,2.1707,2.1707,2.1707,2.1707,2.1707,2.1707,2.1707,0.0,0.0,0.0,0.0,0.0,0.0,0.0,0.6208,0.6116,0.6045,0.5668,0.5377,0.5305,0.4848,0.4557,0.0,0.0,0.0,0.0,0.0,0.0,0.0,0.0,0.0,0.0,0.0,0.0,0.0,0.0,0.0,0.0,0.0,0.0,0.0,0.0,0.0,0.0,0.0,0.0,0.0,0.0,0.0,0.0,0.0,0.0,0.0,0.0,0.0,0.0,0.0,0.0,0.0,0.8585,0.9031,0.0,0.0,1.0948,1.144,1.1803,1.1977,1.2029,1.1933,1.165,1.1171,1.0299,0.9893,0.9533,0.8918,0.8798,0.8798,0.8798,0.9018,0.9344,0.9786,1.0285,1.0941,1.1922,1.231,1.2766,1.3507,1.3987,1.4453,1.495,1.5235,1.5518,1.5781,1.5808,1.5808,1.5808,1.5808,1.5808,1.5808,1.5808,1.5808,1.5808,1.5808,1.6021,1.6454,1.6941,1.7742,1.8785,1.9463,2.0269,2.1125,2.1325,2.1506,2.1707,2.1707,2.1707,2.1707,2.1707,2.1707,2.1707,2.1707,2.1707,2.1707,0.0,0.0,0.0,0.0,0.0,0.6291,0.6276,0.6222,0.6148,0.6044,0.5691,0.5426,0.5365,0.4867,0.4501,0.4436,0.0,0.0,0.0,0.0,0.0,0.0,0.0,0.0,0.0,0.0,0.0,0.0,0.0,0.0,0.0,0.0,0.0,0.0,0.0,0.0,0.0,0.0,0.0,0.0,0.0,0.0,0.0,0.0,0.0,0.0,0.0,0.0,0.0,0.0,0.0,0.0,0.0,0.0,0.0,0.0,1.0547,1.0992,1.1502,1.1688,1.1726,1.1647,1.1458,1.1052,1.0179,0.984,0.9533,0.8918,0.8798,0.8798,0.8798,0.9018,0.9311,0.964,1.0115,1.0759,1.1634,1.2,1.2512,1.3377,1.3918,1.442,1.495,1.5315,1.56,1.5788,1.5808,1.5808,1.5808,1.5808,1.5808,1.5808,1.5808,1.5808,1.5808,1.5879,1.6223,1.6805,1.7298,1.8164,1.9337,1.9802,2.0448,2.1201,2.1336,2.1482,2.1618,2.1685,2.1707,2.1707,2.1707,2.1707,2.1707,2.1707,2.1707,2.1707,0.0,0.0,0.0,0.0,0.0,0.0,0.0,0.6032,0.5952,0.6082,0.5519,0.5204,0.5469,0.4962,0.4576,0.4506,0.0,0.0,0.0,0.0,0.0,0.0,0.0,0.0,0.0,0.0,0.0,0.0,0.0,0.0,0.0,0.0,0.0,0.0,0.0,0.0,0.0,0.0,0.0,0.0,0.0,0.0,0.0,0.0,0.0,0.0,0.0,0.0,0.0,0.0,0.0,0.0,0.0,0.0,0.0,0.0,1.0335,1.066,1.0938,1.1201,1.1346,1.1084,1.101,1.0784,0.9901,0.9701,0.9533,0.8918,0.8798,0.8798,0.8798,0.9018,0.9311,0.964,0.9927,1.0412,1.1277,1.169,1.2232,1.3096,1.3978,1.4636,1.497,1.5473,1.5801,1.5808,1.5808,1.5808,1.5808,1.5808,1.5808,1.5808,1.5808,1.5808,1.5808,1.6064,1.6553,1.7302,1.7835,1.8623,1.9611,2.0079,2.045,2.0733,2.1201,2.1392,2.1423,2.1618,2.1707,2.1707,2.1707,2.1707,2.1707,2.1707,2.1707,2.1707,0.0,0.0,0.0,0.0,0.0,0.0,0.0,0.5932,0.5777,0.5639,0.532,0.5098,0.5089,0.4798,0.459,0.4572,0.0,0.0,0.0,0.0,0.0,0.0,0.0,0.0,0.0,0.0,0.0,0.0,0.0,0.0,0.0,0.0,0.0,0.0,0.0,0.0,0.0,0.0,0.0,0.0,0.0,0.0,0.0,0.0,0.0,0.0,0.0,0.0,0.0,0.0,0.0,0.0,0.0,0.0,0.0,0.0,0.0,0.0,1.0569,1.0792,1.0878,1.0977,1.0858,1.0553,0.9862,0.9526,0.9251,0.8878,0.8798,0.8798,0.8798,0.9018,0.9311,0.964,1.0123,1.0671,1.1312,1.1857,1.2425,1.3116,1.4168,1.4885,1.499,1.5491,1.5808,1.5808,1.5808,1.5808,1.5808,1.5808,1.5808,1.5808,1.5808,1.5891,1.6076,1.6511,1.7122,1.7858,1.8673,1.942,2.009,2.0566,2.0817,2.0927,2.126,2.1392,2.1423,2.1618,2.1707,2.1707,2.1707,2.1707,2.1707,2.1707,2.1707,2.1661,0.0,0.0,0.0,0.0,0.0,0.0,0.0,0.5753,0.5559,0.5316,0.5137,0.4995,0.491,0.4766,0.4676,0.4676,0.0,0.0,0.0,0.0,0.0,0.0,0.0,0.0,0.0,0.0,0.0,0.0,0.0,0.0,0.0,0.0,0.0,0.0,0.0,0.0,0.0,0.0,0.0,0.0,0.0,0.0,0.0,0.0,0.0,0.0,0.0,0.0,0.0,0.0,0.0,0.0,0.0,0.0,0.0,0.0,0.8974,0.9157,0.0,1.0258,1.0305,1.047,1.0383,1.013,0.9626,0.9351,0.9124,0.8858,0.8798,0.8798,0.8798,0.9125,0.9451,0.9667,1.029,1.0953,1.151,1.2004,1.2612,1.344,1.4493,1.5146,1.5146,1.554,1.5808,1.5808,1.5808,1.5808,1.5808,1.5808,1.5808,1.5808,1.5903,1.6087,1.6348,1.6962,1.7687,1.8519,1.9283,1.9934,2.0462,2.0747,2.0828,2.0769,2.1105,2.1248,0.0,2.1584,2.1707,2.1707,2.1707,2.1707,2.1707,2.1707,2.1707,2.1661,0.0,0.0,0.0,0.0,0.0,0.0,0.0,0.0,0.0,0.5111,0.4979,0.4895,0.4894,0.4836,0.48,0.48,0.0,0.0,0.0,0.0,0.0,0.0,0.0,0.0,0.0,0.0,0.0,0.3919,0.4521,0.4995,0.5339,0.0,0.0,0.0,0.0,0.0,0.0,0.0,0.0,0.0,0.0,0.0,0.0,0.0,0.0,0.0,0.0,0.0,0.0,0.0,0.0,0.0,0.0,0.0,0.0,0.0,0.0,0.0,0.0,0.9634,0.9674,0.9694,0.9681,0.9579,0.927,0.9184,0.0,0.8851,0.8798,0.8804,0.8824,0.9306,0.9707,0.9727,1.0455,1.1231,1.1817,1.218,1.2819,1.3965,1.4823,1.5356,1.5376,1.5613,1.5781,1.5808,1.5808,1.5808,1.5808,1.582,1.5844,1.5867,1.6147,1.6418,1.6652,1.7412,1.8284,1.9256,1.9757,2.0258,2.0722,2.0744,2.0598,2.0382,2.0828,2.1031,2.1053,2.1508,2.1707,2.1707,2.1707,2.1707,2.1707,2.1707,2.1707,2.1698,0.0,0.0,0.0,0.0,0.0,0.0,0.0,0.0,0.0,0.0,0.4919,0.4878,0.483,0.4806,0.48,0.0,0.0,0.0,0.0,0.0,0.0,0.0,0.0,0.0,0.0,0.0,0.0,0.4131,0.4683,0.5177,0.5609,0.5908,0.0,0.0,0.0,0.0,0.0,0.0,0.0,0.0,0.0,0.0,0.0,0.0,0.0,0.0,0.6531,0.6539,0.0,0.0,0.0,0.0,0.0,0.0,0.0,0.0,0.801,0.8056,0.857,0.0,0.9378,0.9633,0.9505,0.9297,0.0,0.9038,0.8878,0.8818,0.8798,0.8865,0.9071,0.9432,0.9768,0.9973,1.074,1.145,1.1844,1.2703,1.349,1.4039,1.4462,1.4805,1.5066,1.5342,1.558,1.5776,1.5808,1.5808,1.5808,1.5993,1.6206,1.6405,1.7021,1.7279,1.7145,1.8268,1.9153,1.9745,2.0629,2.1012,2.0938,2.1138,2.1091,2.0851,2.1172,2.1304,2.1327,2.1595,2.1707,2.1707,2.1707,2.1707,2.1707,2.1707,2.1707,2.1661,0.0,0.0,0.0,0.0,0.0,0.0,0.0,0.0,0.0,0.0,0.0,0.0,0.0,0.0,0.0,0.0,0.0,0.0,0.0,0.0,0.0,0.0,0.0,0.0,0.0,0.0,0.0,0.0,0.0,0.5469,0.0,0.0,0.0,0.0,0.0,0.0,0.0,0.0,0.0,0.0,0.0,0.0,0.0,0.0,0.0,0.0,0.658,0.6564,0.0,0.6832,0.6925,0.7006,0.0,0.0,0.0,0.0,0.7811,0.7816,0.8281,0.861,0.8905,0.9212,0.9152,0.9011,0.9011,0.8905,0.8798,0.0,0.0,0.0,0.9177,0.9706,1.0156,1.0309,1.1161,1.2022,1.2605,1.3447,1.4023,1.4092,1.4462,1.4747,1.4767,1.5144,1.5464,1.5606,1.5728,1.5855,1.5981,1.6241,1.6553,1.6911,1.7633,1.7948,1.7808,1.895,1.9768,2.028,2.1044,2.1325,2.1195,2.1336,2.1248,2.1008,2.1282,2.1392,2.1423,2.1618,2.1707,2.1707,2.1707,2.1707,2.1707,2.1707,2.1707,2.167,0.0,0.0,0.0,0.0,0.0,0.0,0.0,0.0,0.0,0.0,0.0,0.0,0.0,0.0,0.0,0.0,0.0,0.0,0.0,0.0,0.0,0.0,0.0,0.0,0.0,0.0,0.0,0.0,0.0,0.0,0.0,0.0,0.6435,0.0,0.0,0.0,0.0,0.0,0.0,0.0,0.0,0.0,0.0,0.0,0.0,0.0,0.0,0.0,0.0,0.6735,0.6878,0.7064,0.7208,0.0,0.0,0.0,0.0,0.0,0.8161,0.8362,0.8476,0.8784,0.8831,0.8811,0.8851,0.0,0.0,0.0,0.0,0.0,0.0,1.0034,0.0,0.0,1.1686,1.2716,1.3493,1.4077,1.4351,1.4126,1.4544,1.4772,1.4514,1.4959,1.5304,1.5391,1.5648,1.5927,1.6241,1.6577,1.6964,1.7415,1.8149,1.8543,1.8545,1.9531,2.0292,2.0812,2.1237,2.1448,2.1448,2.1448,2.1327,2.1121,2.1349,2.1448,2.1459,2.1629,2.1707,2.1707,2.1707,2.1707,2.1707,2.1707,2.1707,2.1707,0.0,0.0,0.0,0.0,0.0,0.0,0.0,0.0,0.0,0.0,0.0,0.0,0.0,0.0,0.0,0.0,0.0,0.0,0.0,0.0,0.0,0.0,0.0,0.0,0.0,0.0,0.0,0.0,0.0,0.0,0.6142,0.6215,0.6301,0.0,0.0,0.0,0.0,0.0,0.0,0.0,0.0,0.0,0.0,0.0,0.0,0.0,0.0,0.0,0.0,0.6897,0.6866,0.6794,0.6982,0.0,0.0,0.0,0.0,0.0,0.7812,0.8183,0.8516,0.9018,0.8964,0.8858,0.9091,0.0,0.0,0.0,0.0,0.0,0.0,1.0316,1.0746,0.0,1.2282,1.3187,1.3547,1.3914,1.4146,1.4099,1.4179,1.4313,1.4481,1.4581,1.4845,1.5357,1.5652,1.6021,1.6516,1.7173,1.7692,1.8048,1.8774,1.9192,1.9253,2.0125,2.0821,2.1302,2.154,2.1651,2.1651,2.1651,2.1629,2.1586,2.164,2.1651,2.1662,2.1696,2.1707,2.1707,2.1707,2.1707,2.1707,2.1707,2.1707,2.1707,0.0,0.0,0.0,0.0,0.0,0.0,0.0,0.0,0.0,0.0,0.0,0.0,0.0,0.0,0.0,0.0,0.0,0.0,0.0,0.0,0.0,0.0,0.0,0.0,0.0,0.0,0.0,0.0,0.0,0.6077,0.6206,0.6276,0.6341,0.64,0.0,0.0,0.0,0.0,0.0,0.0,0.0,0.0,0.0,0.0,0.0,0.0,0.0,0.0,0.0,0.0,0.6823,0.6881,0.6975,0.0,0.0,0.0,0.0,0.0,0.7733,0.8011,0.8344,0.9245,0.9379,0.9319,0.9439,0.9379,0.0,0.0,0.0,0.0,0.0,0.0,1.1329,1.2235,1.2967,1.3517,1.3831,1.4001,1.4099,1.4099,1.4099,1.4152,1.4275,1.4418,1.468,1.51,1.5476,1.5971,1.6613,1.7221,1.7841,1.8499,1.8953,1.94,1.9825,2.0229,2.0654,2.1078,2.1497,2.1707,2.1707,2.1707,2.1707,2.1707,2.1707,2.1707,2.1707,2.1707,2.1707,2.1707,2.1707,2.1707,2.1707,2.1707,2.1707,2.1707,0.0,0.0,0.0,0.0,0.0,0.0,0.0,0.0,0.0,0.0,0.0,0.0,0.0,0.0,0.0,0.0,0.0,0.0,0.0,0.0,0.0,0.0,0.0,0.0,0.0,0.0,0.5943,0.6121,0.6206,0.6243,0.6249,0.6351,0.64,0.0,0.0,0.0,0.0,0.0,0.0,0.0,0.0,0.0,0.0,0.0,0.0,0.0,0.0,0.0,0.0,0.0,0.0,0.0,0.0,0.0,0.0,0.7,0.7,0.7133,0.7733,0.7959,0.8291,0.942,0.0,0.964,0.9862,0.9848,0.0,0.0,0.0,0.0,0.0,1.1304,1.2075,1.312,1.353,1.3807,1.4065,1.4099,1.4099,1.4099,1.4099,1.412,1.4166,1.44,1.4702,1.508,1.5551,1.6158,1.6962,1.7462,1.8094,1.8871,1.9097,1.9467,1.9975,2.0085,2.033,2.0741,2.1202,2.1469,2.1561,2.1561,2.1561,2.1561,2.1561,2.1517,2.1434,2.1515,2.1561,2.157,2.1661,2.1707,2.1707,2.1707,2.1707,2.1707,0.0,0.0,0.0,0.0,0.0,0.0,0.0,0.0,0.0,0.0,0.0,0.0,0.0,0.0,0.0,0.0,0.0,0.0,0.0,0.0,0.0,0.0,0.0,0.0,0.0,0.6119,0.6386,0.6461,0.6409,0.6383,0.6383,0.6395,0.64,0.6406,0.0,0.0,0.0,0.0,0.0,0.0,0.0,0.0,0.0,0.0,0.0,0.0,0.0,0.0,0.0,0.0,0.0,0.0,0.0,0.0,0.7,0.7,0.7,0.7133,0.7733,0.813,0.8576,0.9473,0.9472,0.0,1.0345,1.0288,0.0,1.0796,0.0,0.0,0.0,1.2089,1.2895,1.3477,1.3851,1.4072,1.4103,1.4099,1.4099,1.4099,1.4099,1.4176,1.4356,1.4555,1.4983,1.5676,1.617,1.6868,1.7845,1.8408,1.8837,1.9159,1.9426,1.9502,1.9363,1.9738,2.0121,2.0515,2.0573,2.0785,2.1143,2.1143,2.1143,2.1143,2.1143,2.0932,2.0619,2.0987,2.1143,2.1179,2.1551,2.1707,2.1707,2.1707,2.1707,2.1707,0.0,0.0,0.0,0.0,0.0,0.0,0.0,0.0,0.0,0.0,0.0,0.0,0.0,0.0,0.0,0.0,0.0,0.0,0.0,0.0,0.0,0.0,0.0,0.59,0.5888,0.6346,0.656,0.6498,0.6473,0.65,0.6587,0.6587,0.0,0.0,0.0,0.0,0.0,0.0,0.0,0.0,0.0,0.0,0.0,0.0,0.0,0.0,0.0,0.0,0.0,0.0,0.6459,0.6645,0.6918,0.7,0.7,0.7,0.7,0.7133,0.7733,0.7991,0.8344,0.9433,0.9606,0.0,0.0,1.0882,1.1026,1.1467,1.1692,0.0,0.0,1.3049,1.3607,1.3818,1.4099,1.4243,1.412,1.4099,1.4145,1.4275,1.4394,1.4569,1.4803,1.5138,1.5505,1.5952,1.6498,1.7096,1.778,1.8284,1.8708,1.9057,1.9167,1.9256,1.9301,1.9447,1.9603,1.9759,2.0263,2.0573,2.073,2.073,2.073,2.073,2.073,2.0637,2.0527,2.0932,2.1097,2.1134,2.1542,2.1707,2.1707,2.1707,2.1707,2.1707,0.0,0.0,0.0,0.0,0.0,0.0,0.0,0.0,0.0,0.0,0.0,0.0,0.0,0.0,0.0,0.0,0.0,0.0,0.0,0.0,0.0,0.0,0.0,0.5904,0.6057,0.6464,0.6655,0.6627,0.6584,0.6606,0.6704,0.0,0.0,0.0,0.0,0.0,0.0,0.0,0.0,0.0,0.0,0.0,0.0,0.0,0.0,0.0,0.0,0.0,0.0,0.0,0.6326,0.6534,0.6885,0.7,0.7,0.7,0.7,0.7133,0.7733,0.7979,0.8324,0.9426,0.0,0.0,1.0949,1.1348,1.1677,1.21,1.2452,1.2843,1.338,0.0,1.4113,1.421,1.4313,1.4331,1.4124,1.4155,1.4275,1.4472,1.4755,1.5047,1.5374,1.5844,1.625,1.6584,1.7121,1.7641,1.8093,1.8414,1.8734,1.9082,1.9092,1.9162,1.9301,1.9301,1.9301,1.9311,1.986,2.0189,2.0308,2.0308,2.0308,2.0308,2.0308,2.0234,2.0153,2.0556,2.0795,2.0941,2.1204,2.1396,2.1517,2.1517,2.1588,2.1707,0.0,0.0,0.0,0.0,0.0,0.0,0.0,0.0,0.0,0.0,0.0,0.0,0.0,0.0,0.0,0.0,0.0,0.0,0.0,0.0,0.0,0.0,0.0,0.5856,0.6194,0.6459,0.67,0.6898,0.6767,0.6704,0.6704,0.6704,0.0,0.0,0.0,0.0,0.0,0.0,0.0,0.0,0.0,0.0,0.0,0.0,0.0,0.0,0.0,0.0,0.0,0.0,0.6201,0.6297,0.6835,0.7,0.7,0.7006,0.7006,0.714,0.774,0.8144,0.8616,0.0,0.0,0.0,1.1281,1.1657,1.208,1.2695,1.319,1.3677,1.422,1.4316,1.4394,1.4664,1.4545,1.4335,1.4141,1.4279,1.4493,1.4692,1.5131,1.5599,1.6066,1.6661,1.7214,1.7671,1.8142,1.8583,1.8982,1.9002,1.9092,1.9292,1.9301,1.9301,1.9301,1.9301,1.9301,1.9301,1.9301,1.9512,1.9894,1.9894,1.9894,1.9894,1.9894,1.9666,1.9329,1.973,2.0143,2.05,2.05,2.0738,2.1088,2.1097,2.1352,2.1687,0.0,0.0,0.0,0.0,0.0,0.0,0.0,0.0,0.0,0.0,0.0,0.0,0.0,0.0,0.0,0.0,0.0,0.0,0.0,0.0,0.0,0.0,0.0,0.0,0.0,0.0,0.6723,0.6969,0.6882,0.6866,0.0,0.0,0.0,0.6918,0.0,0.0,0.0,0.0,0.0,0.0,0.0,0.0,0.0,0.0,0.0,0.0,0.0,0.0,0.0,0.0,0.0,0.0,0.6835,0.7,0.7045,0.7285,0.7351,0.7485,0.8088,0.8463,0.0,0.9533,0.0,0.0,0.0,1.1995,0.0,0.0,1.4503,1.4992,1.5481,1.5575,1.5533,1.5418,1.5228,1.5026,1.4828,1.4981,1.5245,1.5645,1.6178,1.6653,1.6974,1.7607,1.8033,1.8182,1.8584,1.8864,1.8992,1.9132,1.9242,1.9301,1.9301,1.9301,1.9301,1.9301,1.9301,1.9301,1.9301,1.9366,1.9484,1.9484,1.9484,1.9484,1.9484,1.9411,1.9329,1.973,2.0143,2.05,2.05,2.0564,2.0701,2.0996,2.1179,2.1315,0.0,0.0,0.0,0.0,0.0,0.0,0.0,0.0,0.0,0.0,0.0,0.0,0.0,0.0,0.0,0.0,0.0,0.0,0.0,0.0,0.0,0.0,0.0,0.0,0.0,0.6459,0.663,0.0,0.0,0.0,0.0,0.0,0.0,0.7,0.0,0.6938,0.0,0.0,0.0,0.0,0.0,0.6414,0.6001,0.0,0.0,0.0,0.0,0.0,0.0,0.0,0.0,0.0,0.6835,0.7,0.704,0.724,0.743,0.7711,0.832,0.8748,0.0,0.9956,1.053,1.1181,1.2167,0.0,0.0,0.0,1.5349,1.5813,1.6255,1.6265,1.6165,1.6002,1.5806,1.5596,1.5374,1.5599,1.5961,1.6402,1.6939,1.7408,1.7759,1.8312,1.8643,1.8643,1.8933,1.9122,1.9122,1.9232,1.9301,1.9301,1.9301,1.9301,1.9301,1.9301,1.9301,1.9301,1.9301,1.9301,1.9301,1.9301,1.9301,1.9301,1.9301,1.9301,1.932,1.9567,1.9804,2.0014,2.0014,2.0115,2.0298,2.0527,2.072,2.0895,0.0,0.0,0.0,0.0,0.0,0.0,0.0,0.0,0.0,0.0,0.0,0.0,0.0,0.0,0.0,0.0,0.0,0.0,0.0,0.0,0.0,0.0,0.0,0.0,0.0,0.0,0.0,0.0,0.0,0.0,0.0,0.0,0.6762,0.7,0.0,0.685,0.0,0.0,0.0,0.0,0.6201,0.5997,0.5699,0.5699,0.0,0.0,0.0,0.0,0.0,0.0,0.0,0.0,0.6835,0.7,0.7006,0.7038,0.7368,0.7867,0.8471,0.9036,0.9663,1.0573,1.1184,0.0,1.3606,1.4039,1.4362,1.5321,0.0,1.6345,1.674,1.6651,1.6507,1.6486,1.6337,1.6131,1.5896,1.625,1.6684,1.7082,1.7539,1.7993,1.8404,1.8803,1.9032,1.9032,1.9202,1.9301,1.9301,1.9301,1.9301,1.9301,1.9301,1.9301,1.9301,1.9301,1.9301,1.9301,1.9301,1.9301,1.9301,1.9301,1.9301,1.9301,1.9301,1.9301,1.9301,1.9301,1.9301,1.9301,1.9301,1.952,1.9849,1.9885,2.0134,2.0445,0.0,0.0,0.0,0.0,0.0,0.0,0.0,0.0,0.0,0.0,0.0,0.0,0.0,0.0,0.0,0.0,0.0,0.0,0.0,0.0,0.0,0.0,0.0,0.0,0.0,0.0,0.0,0.0,0.0,0.0,0.0,0.0,0.0,0.7,0.0,0.685,0.0,0.0,0.0,0.6201,0.6201,0.5997,0.5699,0.5699,0.5531,0.0,0.0,0.0,0.0,0.0,0.0,0.0,0.6835,0.7,0.7052,0.7312,0.7691,0.8146,0.8748,0.9343,0.0,1.0628,1.174,1.2998,1.4315,1.5094,1.5706,1.6295,1.6781,1.7239,1.7656,1.7558,1.7375,1.721,1.7147,1.7096,1.7045,1.7383,1.7769,1.8062,1.8474,1.8754,1.8862,1.9092,1.9242,1.9242,1.9282,1.9301,1.9301,1.9301,1.9301,1.9301,1.9301,1.9301,1.9301,1.9301,1.9301,1.9301,1.9301,1.9301,1.9301,1.9301,1.9301,1.9301,1.9301,1.9301,1.9301,1.9301,1.9301,1.9301,1.9301,1.9347,1.9466,1.9775,1.9949,2.0068,0.0,0.0,0.0,0.0,0.0,0.0,0.0,0.0,0.0,0.0,0.0,0.0,0.0,0.0,0.0,0.0,0.0,0.0,0.0,0.0,0.598,0.5851,0.0,0.0,0.0,0.0,0.0,0.0,0.0,0.0,0.0,0.0,0.0,0.7,0.0,0.6782,0.0,0.0,0.0,0.5768,0.5768,0.5666,0.5504,0.5504,0.5419,0.5297,0.5297,0.0,0.0,0.0,0.0,0.0,0.0,0.0,0.7038,0.7208,0.7614,0.8141,0.8745,0.0,0.0,1.137,0.0,1.3728,1.5069,1.5973,1.6738,1.7491,1.7605,1.7678,1.8102,1.7922,1.77,1.7696,1.7686,1.7737,1.7858,1.8141,1.8412,1.8663,1.8864,1.9033,1.9132,1.9242,1.9301,1.9301,1.9301,1.9301,1.9301,1.9301,1.9301,1.9301,1.9301,1.9301,1.9301,1.9301,1.9301,1.9301,1.9301,1.9301,1.9301,1.9301,1.9301,1.9301,1.9301,1.9301,1.9301,1.9301,1.9301,1.9301,1.9301,1.9301,1.9329,1.9539,1.9662,1.9789,0.0,0.0,0.0,0.0,0.0,0.0,0.0,0.0,0.0,0.0,0.0,0.0,0.0,0.0,0.0,0.0,0.0,0.0,0.0,0.6183,0.6098,0.602,0.0,0.0,0.0,0.0,0.0,0.0,0.0,0.0,0.0,0.0,0.0,0.7006,0.0,0.0,0.0,0.0,0.5853,0.5297,0.5316,0.532,0.532,0.5329,0.5325,0.532,0.532,0.5312,0.534,0.5614,0.0,0.0,0.0,0.0,0.7,0.7,0.7409,0.8002,0.8607,0.0,1.0596,1.2233,1.3317,0.0,1.5702,1.6641,1.749,1.8444,1.823,1.7993,1.8424,1.8162,1.7931,1.809,1.8151,1.8243,1.8464,1.8682,1.8871,1.9032,1.9052,1.9122,1.9282,1.9301,1.9301,1.9301,1.9301,1.9301,1.9301,1.9301,1.9301,1.9301,1.9301,1.9301,1.9301,1.9301,1.9301,1.9301,1.9301,1.9301,1.9301,1.9301,1.9301,1.9301,1.9301,1.9301,1.9301,1.9301,1.9301,1.9301,1.9301,1.9321,1.9351,1.9351,1.9508,1.9734,0.0,0.0,0.0,0.0,0.0,0.0,0.0,0.0,0.0,0.0,0.0,0.6947,0.687,0.6866,0.0,0.0,0.0,0.0,0.6226,0.0,0.0,0.0,0.0,0.0,0.0,0.0,0.0,0.0,0.0,0.0,0.0,0.0,0.0,0.7013,0.0,0.0,0.0,0.0,0.0,0.5308,0.5366,0.5386,0.5397,0.5451,0.5435,0.5386,0.5386,0.5347,0.534,0.5614,0.5925,0.0,0.0,0.0,0.7,0.7,0.7344,0.7854,0.8461,0.0,1.16,0.0,1.3764,1.499,0.0,0.0,1.7852,1.8333,1.851,1.8642,1.8882,1.8732,1.8571,1.8591,1.8743,1.8882,1.8912,1.9092,1.9231,1.9262,1.9262,1.9272,1.9301,1.9301,1.9301,1.9301,1.9301,1.9301,1.9301,1.9301,1.9301,1.9301,1.9301,1.9301,1.9301,1.9301,1.9301,1.9301,1.9301,1.9301,1.9301,1.9301,1.9301,1.9301,1.9301,1.9301,1.9301,1.9301,1.9301,1.9301,1.9301,1.941,1.9557,1.9557,1.9833,2.0225,0.0,0.0,0.0,0.0,0.0,0.0,0.0,0.0,0.0,0.0,0.0,0.7084,0.702,0.6977,0.0,0.0,0.0,0.0,0.6268,0.6044,0.0,0.0,0.0,0.0,0.0,0.0,0.0,0.0,0.0,0.0,0.0,0.753,0.7732,0.0,0.0,0.0,0.0,0.0,0.0,0.5702,0.5805,0.5874,0.5928,0.6146,0.6069,0.5846,0.5846,0.5639,0.5371,0.5495,0.583,0.6221,0.6339,0.0,0.0,0.0,0.7202,0.7639,0.866,0.9969,1.1321,0.0,1.3719,1.4915,1.6024,1.6887,1.7606,1.8122,1.8484,1.876,1.8957,1.8842,1.874,1.8851,1.8942,1.9033,1.9152,1.9242,1.9301,1.9301,1.9301,1.9301,1.9301,1.9301,1.9301,1.9301,1.9301,1.9301,1.9301,1.9301,1.9301,1.9301,1.9301,1.9301,1.9301,1.941,1.9518,1.9647,1.9647,1.9647,1.9647,1.9647,1.9578,1.9469,1.9469,1.9528,1.9647,1.9647,1.9647,1.9647,1.9647,1.9775,2.001,2.0127,2.043,2.0848,0.0,0.0,0.0,0.0,0.0,0.0,0.0,0.0,0.0,0.0,0.0,0.0,0.7082,0.0,0.0,0.0,0.0,0.0,0.6333,0.0,0.0,0.0,0.0,0.0,0.0,0.0,0.0,0.0,0.0,0.0,0.685,0.7733,0.8018,0.0,0.769,0.0,0.0,0.0,0.0,0.0,0.0,0.6623,0.6722,0.7092,0.6977,0.6602,0.6585,0.6227,0.5751,0.5738,0.6016,0.6378,0.6378,0.6689,0.0,0.0,0.0,0.7559,0.0,0.0,1.093,1.2431,1.3572,1.4628,1.5821,1.6633,1.7243,1.7697,1.8201,1.862,1.8875,1.888,1.8901,1.9052,1.9073,1.9132,1.9282,1.9301,1.9301,1.9301,1.9301,1.9301,1.9301,1.9301,1.9301,1.9301,1.9301,1.9301,1.9301,1.9301,1.9301,1.9301,1.9301,1.9321,1.9371,1.9646,1.9902,2.0157,2.0157,2.0177,2.0226,2.0226,2.0177,2.0069,1.9872,1.9892,2.0079,2.0079,2.0079,2.0079,2.0137,2.0304,2.0557,2.0809,2.1166,2.1559,0.0,0.0,0.0,0.0,0.0,0.0,0.0,0.0,0.0,0.0,0.0,0.0,0.0,0.0,0.0,0.0,0.0,0.0,0.0,0.0,0.0,0.0,0.0,0.0,0.0,0.0,0.0,0.0,0.0,0.0,0.7183,0.7554,0.7926,0.8255,0.8129,0.7813,0.736,0.0,0.0,0.0,0.0,0.0,0.7774,0.8236,0.8127,0.7706,0.765,0.0,0.0,0.0,0.6732,0.6861,0.6861,0.701,0.7149,0.0,0.0,0.0,0.0,0.9837,0.0,1.2419,1.3464,1.4317,1.509,1.6124,1.6919,1.6955,1.7596,1.8246,1.864,1.9015,1.9272,1.9282,1.9282,1.9292,1.9301,1.9301,1.9301,1.9301,1.9301,1.9301,1.9301,1.9301,1.9301,1.9301,1.9301,1.9301,1.9301,1.9301,1.9301,1.9301,1.9301,1.939,1.9586,2.0039,2.0459,2.0847,2.0847,2.0943,2.1136,2.1136,2.1232,2.1358,2.0586,2.0372,2.0566,2.0566,2.0566,2.0586,2.077,2.0973,2.1205,2.1595,2.1994,2.2402,0.0,0.0,0.0,0.0,0.0,0.0,0.0,0.0,0.0,0.0,0.0,0.0,0.0,0.0,0.0,0.0,0.0,0.0,0.0,0.0,0.0,0.0,0.0,0.0,0.0,0.0,0.0,0.0,0.0,0.7107,0.702,0.7657,0.8014,0.8104,0.8061,0.8012,0.7953,0.7581,0.0,0.0,0.0,0.0,0.0,0.9221,0.92,0.8822,0.8799,0.0,0.0,0.0,0.0,0.7561,0.73,0.7358,0.7508,0.7434,0.7611,0.7979,0.0,0.0,0.0,1.1497,1.291,1.4166,1.4428,1.5343,1.6202,1.646,1.6946,1.7449,1.7862,1.8467,1.8998,1.9256,1.9301,1.9301,1.9301,1.9301,1.9301,1.9301,1.9301,1.9301,1.9301,1.9301,1.9301,1.9301,1.9301,1.9301,1.9301,1.9301,1.9301,1.9301,1.9429,1.9794,2.043,2.0867,2.127,2.1663,2.1796,2.1901,2.1967,2.1967,2.2071,2.2252,2.1967,2.173,2.1568,2.1692,2.1758,2.1758,2.1834,2.1987,2.2195,2.2467,2.2739,2.3038,0.0,0.0,0.0,0.0,0.0,0.0,0.0,0.0,0.0,0.0,0.0,0.0,0.0,0.0,0.0,0.0,0.0,0.0,0.0,0.0,0.0,0.0,0.0,0.0,0.0,0.0,0.0,0.0,0.0,0.0,0.0,0.7506,0.7788,0.7904,0.7992,0.8195,0.0,0.0,0.0,0.838,0.0,0.0,0.9644,1.0266,1.028,0.996,0.0,0.0,0.0,0.0,0.0,0.8328,0.8051,0.7878,0.7782,0.7848,0.7962,0.8181,0.8701,0.0,0.0,0.0,1.2411,1.373,1.384,1.471,1.557,1.5846,1.6314,1.6826,1.722,1.7853,1.8467,1.9007,1.9219,1.9301,1.9301,1.9301,1.9301,1.9301,1.9301,1.9301,1.9301,1.9301,1.9301,1.9301,1.9301,1.9301,1.9301,1.9301,1.9361,1.9499,1.9853,2.0411,2.1184,2.1595,2.2043,2.2506,2.2637,2.274,2.2805,2.2805,2.288,2.301,2.3075,2.2843,2.2412,2.2553,2.26,2.2609,2.2675,2.2787,2.2936,2.3205,2.339,2.3547,0.0,0.0,0.0,0.0,0.0,0.0,0.0,0.0,0.0,0.0,0.0,0.0,0.0,0.0,0.0,0.0,0.0,0.0,0.0,0.0,0.0,0.0,0.0,0.0,0.0,0.0,0.0,0.0,0.0,0.0,0.0,0.0,0.7255,0.7703,0.7974,0.8352,0.8769,0.0,0.8859,0.9445,0.0,1.0368,1.0948,0.0,1.1373,0.0,1.0991,1.0649,0.0,1.016,0.0,0.0,0.9128,0.8582,0.7988,0.8166,0.8231,0.8357,0.0,0.0,0.0,0.0,1.2004,1.297,1.3297,1.4254,1.5065,1.5084,1.5709,1.6387,1.6808,1.7211,1.7743,1.854,1.9007,1.9283,1.9283,1.9292,1.9301,1.9301,1.9301,1.9301,1.9301,1.9311,1.9311,1.9311,1.9311,1.9321,1.9321,1.9331,1.9509,1.9922,2.0576,2.1213,2.1817,2.2233,2.2731,2.3316,2.3326,2.3427,2.3622,2.3622,2.3622,2.3632,2.3824,2.3586,2.3038,2.3038,2.3038,2.3057,2.3252,2.3326,2.3372,2.3769,2.3916,2.3934,0.0,0.0,0.0,0.0,0.0,0.0,0.7199,0.7199,0.7199,0.0,0.0,0.0,0.0,0.0,0.0,0.0,0.0,0.0,0.0,0.7175,0.7177,0.7199,0.7199,0.7199,0.0,0.0,0.0,0.0,0.0,0.0,0.0,0.0,0.0,0.0,0.7868,0.8128,0.832,0.8699,0.0,0.9581,1.0036,1.0551,0.0,0.0,0.0,0.0,0.0,1.1906,1.1627,0.0,1.0644,1.0292,0.0,0.0,0.9085,0.8848,0.8844,0.9021,0.9486,0.0,0.0,0.0,0.0,0.0,1.2734,1.3514,1.4312,1.4607,1.5076,1.5644,1.6341,1.679,1.723,1.7752,1.8403,1.8871,1.8871,1.9118,1.9301,1.9301,1.9301,1.9301,1.9301,1.9429,1.9518,1.9518,1.9647,1.9726,1.9726,1.9922,2.0216,2.0615,2.1233,2.1845,2.245,2.2992,2.3418,2.3742,2.3879,2.3979,2.4025,2.4025,2.4025,2.4034,2.4089,2.4016,2.387,2.387,2.387,2.387,2.3934,2.3952,2.3961,2.408,2.4127,2.4116,0.0,0.0,0.0,0.0,0.0,0.7739,0.7739,0.7739,0.7739,0.0,0.0,0.0,0.0,0.0,0.0,0.0,0.0,0.0,0.0,0.7296,0.7199,0.7199,0.7199,0.7199,0.7199,0.0,0.0,0.0,0.0,0.0,0.0,0.0,0.0,0.0,0.77,0.799,0.8215,0.8732,0.0,0.0,1.0209,0.0,0.0,1.2233,1.2533,0.0,0.0,0.0,1.2649,1.2174,1.1706,0.0,1.0262,0.9973,0.9929,0.9696,0.9725,0.0,1.0042,1.0456,0.0,1.106,0.0,0.0,1.25,1.3227,1.3977,1.4194,1.4698,1.5239,1.5708,1.6129,1.6532,1.6927,1.7532,1.8073,1.8402,1.8659,1.8861,1.9036,1.9044,1.9147,1.9401,1.9528,1.9676,1.9872,2.0,2.0137,2.0313,2.0547,2.0906,2.1386,2.1902,2.2468,2.3075,2.351,2.3833,2.4036,2.4134,2.42,2.42,2.42,2.42,2.42,2.42,2.42,2.42,2.42,2.42,2.42,2.42,2.42,2.42,2.42,2.42,2.42,0.0,0.0,0.8003,0.8425,0.8498,0.8498,0.8498,0.8498,0.8498,0.0,0.0,0.0,0.0,0.0,0.0,0.0,0.0,0.0,0.0,0.7462,0.7245,0.7203,0.7199,0.7199,0.7199,0.7199,0.0,0.0,0.0,0.0,0.0,0.0,0.0,0.0,0.7489,0.7864,0.8275,0.868,0.0,0.9974,1.0375,1.1101,0.0,0.0,1.2692,1.2879,1.3245,1.3373,1.3357,1.3321,1.2744,0.0,1.1018,1.0704,1.0674,1.0618,1.0658,0.0,1.0631,1.0954,0.0,1.1295,1.1876,0.0,1.2565,1.3227,1.3849,1.3895,1.4504,1.5047,1.5093,1.5386,1.577,1.6176,1.6525,1.7065,1.7908,1.8073,1.8237,1.8586,1.8631,1.8846,1.941,1.9515,1.9749,2.0275,2.045,2.0693,2.105,2.1262,2.1617,2.2176,2.259,2.3075,2.3632,2.3833,2.4016,2.42,2.42,2.42,2.42,2.42,2.42,2.42,2.42,2.42,2.42,2.42,2.42,2.42,2.42,2.42,2.42,2.42,2.42,2.42,0.0,0.0,0.8393,0.848,0.8498,0.8498,0.8498,0.8498,0.8498,0.0,0.0,0.0,0.0,0.0,0.0,0.0,0.0,0.0,0.0,0.7728,0.754,0.7218,0.7199,0.7199,0.7199,0.7199,0.7192,0.0,0.0,0.0,0.0,0.0,0.0,0.0,0.7263,0.7519,0.7926,0.8387,0.0,1.0253,1.0547,1.1351,1.2443,1.2951,1.3362,1.3674,1.375,1.3786,1.3731,1.3412,1.3179,1.2941,1.2432,1.2051,1.1719,1.1403,1.1088,1.093,1.1217,1.1378,1.1615,1.2234,1.2283,0.0,1.3,1.3289,1.3511,1.3832,1.4277,1.4718,1.5038,1.5166,1.5349,1.5752,1.588,1.633,1.7458,1.7899,1.8137,1.821,1.8219,1.8331,1.8611,1.8929,1.9482,2.0386,2.141,2.2014,2.2101,2.2299,2.2534,2.2824,2.3205,2.3567,2.3842,2.4034,2.4164,2.42,2.42,2.42,2.42,2.42,2.42,2.42,2.42,2.42,2.42,2.42,2.42,2.42,2.42,2.42,2.42,2.42,2.42,2.42,0.0,0.8797,0.8866,0.906,0.9092,0.9092,0.9092,0.9271,0.94,0.0,0.0,0.0,0.0,0.0,0.0,0.0,0.0,0.0,0.0,0.8041,0.7622,0.7218,0.7199,0.7199,0.7199,0.7199,0.7199,0.0,0.0,0.0,0.0,0.0,0.0,0.0,0.7411,0.7739,0.8193,0.0,0.9676,1.0614,1.0755,0.0,1.2352,1.2821,1.3245,1.363,1.3823,1.4034,1.4137,1.3734,1.3603,0.0,1.3132,1.2857,1.2664,0.0,1.2254,1.2141,1.2339,1.2394,1.2486,1.2903,1.2848,0.0,0.0,1.3456,1.3658,1.3858,1.4222,1.4563,1.4764,1.4801,1.4929,1.5339,1.5403,1.5688,1.6486,1.6955,1.7385,1.7898,1.7862,1.8036,1.8636,1.8876,1.9439,2.0516,2.1657,2.2338,2.2439,2.2796,2.314,2.3436,2.3639,2.3852,2.4043,2.4143,2.42,2.42,2.42,2.42,2.42,2.42,2.42,2.42,2.42,2.42,2.42,2.42,2.42,2.42,2.42,2.42,2.42,2.42,2.42,2.42,0.0,0.9212,0.9313,0.9648,0.9703,0.9703,0.9703,1.0043,1.0356,0.0,0.0,0.0,0.0,0.0,0.0,0.0,0.0,0.0,0.0,0.8551,0.7954,0.7471,0.7452,0.7408,0.7318,0.7314,0.7278,0.7199,0.0,0.0,0.0,0.7199,0.7236,0.7333,0.0,0.0,0.0,0.0,0.0,1.1024,0.0,1.1506,1.2257,1.2661,1.3075,1.3468,1.3862,1.4222,1.4453,1.4128,1.4016,1.3954,1.3626,1.3486,0.0,0.0,1.3357,1.3302,1.3302,1.3302,1.3321,1.3394,1.3357,1.3339,0.0,0.0,0.0,1.3998,1.4269,1.45,1.45,1.45,1.4608,1.4929,1.4975,1.5122,1.5522,1.5864,1.6417,1.7336,1.737,1.7697,1.8601,1.9072,1.9718,2.0697,2.1717,2.2373,2.2533,2.3036,2.3467,2.3797,2.3895,2.4034,2.42,2.42,2.42,2.42,2.42,2.42,2.42,2.42,2.42,2.42,2.42,2.42,2.42,2.42,2.42,2.42,2.42,2.42,2.42,2.42,2.42,2.42,0.962,0.9634,0.9648,0.9693,0.9703,0.9703,0.9703,1.0043,1.0553,0.0,0.0,0.0,0.0,0.0,0.0,0.0,0.0,0.0,0.9684,0.0,0.0,0.8383,0.8356,0.8156,0.7742,0.7737,0.7562,0.7199,0.0,0.0,0.0,0.7199,0.7393,0.7755,0.8211,0.0,0.0,0.0,1.07,0.0,1.1433,1.1911,0.0,1.308,1.3477,1.388,1.4295,1.4462,1.4491,0.0,1.4434,1.4418,0.0,1.4121,1.3832,1.3832,1.3585,1.3302,1.3302,1.3302,1.3385,1.3741,1.3559,1.3495,1.4205,0.0,1.3998,1.4361,0.0,1.45,1.45,0.0,0.0,1.4563,1.4572,1.4709,1.5111,1.5212,1.546,1.6047,1.6461,1.693,1.7523,1.9302,2.0599,2.1025,2.2043,2.2654,2.268,2.3125,2.3408,2.3464,2.3914,2.4182,2.42,2.42,2.42,2.42,2.42,2.42,2.42,2.42,2.42,2.42,2.42,2.42,2.42,2.42,2.42,2.42,2.42,2.42,2.42,2.42,2.42,2.42,0.9703,0.9703,0.0,0.9703,0.9703,0.9776,1.0011,1.0585,1.1195,0.0,0.0,0.0,0.0,0.0,0.0,0.0,0.0,1.1347,0.0,0.0,0.0,0.8871,0.8631,0.8411,0.8212,0.794,0.7719,0.7549,0.7314,0.0,0.0,0.0,0.7637,0.7842,0.8775,0.9386,0.9753,1.0631,1.1323,0.0,0.0,1.2542,0.0,1.2983,1.3344,1.3952,1.4359,1.45,1.45,1.45,1.45,1.45,1.45,1.4379,1.4249,1.4249,1.413,1.4057,1.4286,1.4169,1.4086,1.4495,1.4295,1.4077,1.4418,1.437,1.4295,1.4471,0.0,0.0,0.0,0.0,0.0,0.0,1.45,1.4563,1.4728,1.4746,1.5084,1.5965,1.6144,1.6484,1.721,1.8516,1.9456,1.9791,2.1068,2.1834,2.1834,2.2567,2.3115,2.3387,2.3622,2.3893,2.42,2.42,2.42,2.42,2.42,2.42,2.42,2.42,2.42,2.42,2.42,2.42,2.42,2.42,2.42,2.42,2.42,2.42,2.42,2.42,2.42,2.42,0.9703,0.0,0.0,0.9703,0.9703,0.9877,1.0384,1.1145,1.181,1.2211,0.0,0.0,1.2863,1.3132,0.0,0.0,1.28,1.227,0.0,0.0,1.0218,0.9671,0.9365,0.9092,0.8834,0.8496,0.8214,0.7994,0.7696,0.7557,0.0,0.0,0.8049,0.8209,0.9353,0.9982,1.0272,0.0,1.2076,1.251,1.2805,1.3185,1.3555,1.3222,1.3543,1.4245,1.4529,1.4706,1.4799,1.4799,1.4863,1.4954,1.4843,1.4799,1.478,1.4669,1.4723,1.4871,1.5158,1.5081,1.495,1.5141,1.492,1.4636,1.4535,1.45,1.45,1.45,1.45,0.0,0.0,0.0,0.0,0.0,0.0,1.4462,1.4352,1.4341,1.4701,1.5673,1.5892,1.6299,1.7198,1.7978,1.8581,1.8947,2.0211,2.0986,2.0986,2.1924,2.2699,2.3198,2.3327,2.3657,2.4189,2.42,2.42,2.42,2.42,2.42,2.42,2.42,2.42,2.42,2.42,2.42,2.42,2.42,2.42,2.42,2.42,2.42,2.42,2.42,2.42,2.42,0.9703,0.9703,0.0,0.0,0.9703,0.996,1.0757,1.1565,1.2236,1.2631,1.3031,0.0,0.0,0.0,0.0,0.0,0.0,1.3118,1.233,1.2362,1.2002,1.1076,1.1024,1.0591,0.9684,0.9648,0.9257,0.848,0.847,0.8457,0.0,0.0,0.0,0.9092,0.9915,1.0713,1.1498,1.2312,1.2973,1.3462,1.3474,1.3829,1.4338,1.4131,1.4436,1.4966,1.4978,1.5226,1.5557,1.5557,1.5815,1.6078,1.569,1.5557,1.5489,1.5101,1.5262,1.5567,1.5576,1.5762,1.5858,1.548,1.523,1.4983,1.459,1.45,1.45,1.45,1.45,1.45,1.45,0.0,0.0,0.0,0.0,0.0,0.0,1.3915,1.4136,1.4684,1.5535,1.6464,1.7399,1.8098,1.8684,1.916,1.9966,2.0427,2.0427,2.1375,2.2171,2.271,2.3164,2.3657,2.4189,2.42,2.42,2.42,2.42,2.42,2.42,2.42,2.42,2.42,2.42,2.42,2.42,2.42,2.42,2.42,2.42,2.42,2.42,2.42,2.42,2.42,0.0,0.0,0.0,0.0,0.0,0.9969,1.0781,1.181,1.2548,1.2677,1.3279,0.0,0.0,1.4069,1.4277,0.0,0.0,1.3985,1.3715,1.3235,1.2678,1.2049,1.1774,1.1357,1.0766,1.0147,0.9697,0.9422,0.8801,0.8498,0.8507,0.0,0.0,0.0,1.022,1.1047,0.0,0.0,0.0,0.0,1.4612,1.5194,1.5782,1.5092,1.5151,1.5609,1.5702,1.6026,1.6393,1.6393,1.6482,1.6569,1.6441,1.6393,1.6364,1.6235,1.6294,1.6443,1.6724,1.6571,1.636,1.6492,1.5969,1.5372,1.5148,1.4861,1.4606,1.4521,1.4571,1.4606,1.4521,0.0,0.0,0.0,0.0,0.0,0.0,1.3667,1.3707,1.4239,1.4977,1.5771,1.662,1.7265,1.7801,1.8187,1.8953,1.9562,1.9918,2.0546,2.1299,2.214,2.2673,2.3161,2.3668,2.4019,2.42,2.42,2.42,2.42,2.42,2.42,2.42,2.42,2.42,2.42,2.42,2.42,2.42,2.42,2.42,2.42,2.42,2.42,2.42,2.42,0.9914,0.0,0.0,0.0,0.9937,1.0351,1.1013,1.2181,1.2985,1.2985,1.3872,1.4562,1.4723,0.0,1.537,0.0,1.5286,1.507,1.481,1.4351,0.0,1.338,1.3111,1.2659,1.1994,1.1346,1.0833,1.0466,0.9623,0.9208,0.9217,0.0,0.0,0.0,0.0,1.1403,1.2179,1.3004,1.3993,0.0,1.5724,1.6443,1.7026,1.6432,1.638,1.6662,1.6746,1.7105,1.7551,1.7551,1.7655,1.7774,1.7602,1.7551,1.7519,1.7375,1.7398,1.7535,1.7793,1.7597,1.7353,1.7461,1.691,1.6275,1.5964,1.5611,1.5298,1.5142,1.5231,1.5253,1.4956,0.0,0.0,0.0,0.0,0.0,0.0,1.3628,1.3641,1.4083,1.4597,1.5275,1.6137,1.6765,1.7287,1.767,1.8448,1.9133,1.9673,2.0148,2.0867,2.1868,2.2421,2.2934,2.3407,2.3927,2.42,2.42,2.42,2.42,2.42,2.42,2.42,2.42,2.42,2.42,2.42,2.42,2.42,2.42,2.42,2.42,2.42,2.42,2.42,2.42,1.0339,1.0329,1.0222,0.9877,1.0434,1.107,1.1476,1.2663,1.3509,1.3534,1.4746,1.5691,1.5895,1.6299,1.6498,1.6384,1.6563,1.6363,1.5639,1.5694,0.0,0.0,1.4945,1.4427,1.3327,1.3153,1.2586,1.1591,1.0918,1.0574,1.0506,0.0,0.0,0.0,1.0879,0.0,1.2992,1.3859,1.4841,1.588,1.6776,1.7524,1.8081,1.8082,1.8116,1.8136,1.8084,1.8455,1.8963,1.8963,1.926,1.9555,1.9105,1.8963,1.8875,1.8502,1.857,1.8773,1.8773,1.8807,1.8754,1.8379,1.8007,1.7607,1.7003,1.6715,1.6489,1.6295,1.6408,1.6364,1.5783,0.0,0.0,0.0,0.0,0.0,0.0,0.0,1.3932,1.4223,1.4467,1.4997,1.5996,1.6634,1.7185,1.7632,1.8391,1.9087,1.9673,2.0125,2.0829,2.1834,2.2406,2.2914,2.3353,2.3927,2.42,2.42,2.42,2.42,2.42,2.42,2.42,2.42,2.42,2.42,2.42,2.42,2.42,2.42,2.42,2.42,2.42,2.42,2.42,2.42,1.0891,1.0814,1.0899,1.1402,1.1412,1.152,1.2017,1.2891,1.3659,1.411,1.5131,1.5941,1.6236,1.6853,1.7327,1.7538,1.7604,0.0,0.0,0.0,0.0,1.5677,1.5645,1.5367,1.477,1.4339,1.3719,1.2904,1.2245,1.1501,1.0721,0.0,0.0,0.0,0.0,1.2101,1.3471,1.4306,1.5667,1.7291,1.7628,1.8371,1.9261,1.9264,1.9629,2.0044,1.9201,1.9277,1.9797,1.9797,1.9868,1.9947,1.9833,1.9797,1.9776,1.9672,1.9694,1.9744,1.9744,1.9678,1.9589,1.9486,1.8946,1.8358,1.8061,1.7599,1.7199,1.7055,1.7139,1.712,1.6722,1.6522,0.0,0.0,0.0,0.0,0.0,0.0,1.4329,1.4937,1.4861,1.5097,1.5938,1.6476,1.6937,1.7296,1.7609,1.8354,1.9627,1.9803,2.0339,2.1354,2.2239,2.2759,2.2889,2.3761,2.42,2.42,2.42,2.42,2.42,2.42,2.42,2.42,2.42,2.42,2.42,2.42,2.42,2.42,2.42,2.42,2.42,2.42,2.42,2.42,1.1454,1.1673,1.2044,1.2613,1.2822,1.2906,1.2946,1.3764,1.4552,1.5035,1.6152,1.7077,1.7485,1.8059,1.8507,1.8719,1.8746,0.0,1.8164,0.0,0.0,1.7362,1.734,1.7026,1.6316,1.595,0.0,1.4014,0.0,0.0,1.1307,0.0,0.0,0.0,0.0,1.2575,1.4107,1.5267,1.682,1.8508,1.8522,1.9215,0.0,2.0156,2.0451,2.0818,2.0171,2.0217,2.0576,2.0576,2.0576,2.0576,2.0576,2.0576,2.0576,2.0576,2.0523,2.0503,2.0741,2.0673,2.0605,2.0852,2.0325,1.9703,1.9525,1.9,1.8495,1.8349,1.8442,1.8375,1.7846,1.75,0.0,0.0,0.0,0.0,0.0,0.0,1.5444,1.5748,1.5818,1.5905,1.6074,1.6267,1.6615,1.7158,1.7327,1.7968,1.9282,1.957,2.0052,2.0829,2.1832,2.2464,2.2702,2.3457,2.3973,2.42,2.42,2.42,2.42,2.42,2.42,2.42,2.42,2.42,2.42,2.42,2.42,2.4218,2.43,2.4336,2.4354,2.4494,2.4394,2.4218,1.2158,1.2741,1.3356,1.3676,1.4361,1.4753,1.4377,1.5075,1.5803,1.6189,1.7418,1.8461,1.8972,1.9436,1.9746,1.9849,1.9863,1.9714,1.9351,1.931,1.9269,1.9227,1.9235,1.8764,1.7776,1.7631,1.6705,0.0,0.0,0.0,0.0,0.0,0.0,0.0,0.0,0.0,0.0,1.6491,1.8044,1.9428,1.9385,1.9991,2.0927,2.081,2.0834,2.0943,2.0943,2.1047,2.1198,2.1198,2.1198,2.1198,2.1198,2.1236,2.1293,2.1293,2.1219,2.1238,2.1693,2.1707,2.1677,2.2147,2.1758,2.1218,2.1048,2.0533,2.0033,1.9788,1.9876,1.9779,1.9062,1.8552,0.0,0.0,0.0,0.0,1.6096,1.652,1.6784,1.6569,1.6898,0.0,1.638,1.616,1.6316,1.698,1.719,1.7727,1.8736,1.9374,1.9918,2.0393,2.1375,2.216,2.269,2.3172,2.3668,2.42,2.42,2.42,2.42,2.42,2.42,2.42,2.42,2.42,2.42,2.42,2.4218,2.4264,2.4454,2.4574,2.4631,2.4966,2.4796,2.4442,1.3527,1.3758,0.0,0.0,1.5425,1.607,1.6967,1.675,1.6738,1.7399,1.8142,1.8749,1.9124,1.9824,2.0382,2.0659,2.0687,2.0496,2.0052,1.9873,1.9643,1.9373,1.9361,1.9101,1.8521,1.8477,1.7588,0.0,0.0,0.0,0.0,0.0,0.0,0.0,0.0,0.0,1.5926,1.7379,1.8631,1.9686,2.0042,2.0568,2.1134,2.1118,2.113,2.1154,2.1154,2.1166,2.1198,2.1198,2.1198,2.1198,2.1198,2.1473,2.1784,2.1784,2.2071,2.2407,2.2499,2.2496,2.2482,2.2594,2.2392,2.206,2.1651,2.1346,2.1013,2.0593,2.054,2.0466,2.016,1.9199,1.8281,1.7777,1.7248,1.6901,1.6959,1.7058,1.7171,1.7295,1.7047,1.6906,1.7015,1.6604,1.6274,1.6138,1.6507,1.7178,1.8192,1.9165,1.9918,2.0393,2.1375,2.216,2.269,2.3172,2.3668,2.42,2.42,2.42,2.42,2.42,2.42,2.42,2.42,2.42,2.42,2.42,2.43,2.4463,2.4673,2.4921,2.5188,2.5409,2.5541,2.5555,1.4877,0.0,0.0,0.0,1.7065,1.7778,1.8429,1.8576,1.8657,1.8768,1.9255,1.9707,2.0058,2.0432,2.0767,2.1031,2.1055,2.096,2.0724,2.0634,2.0497,2.0335,2.0335,2.0095,1.9589,1.9345,1.8368,1.6615,1.6048,1.4931,1.3357,0.0,0.0,1.3114,0.0,1.5378,1.7146,1.8064,1.9078,2.0083,2.0312,2.0718,2.1198,2.1198,2.1198,2.1224,2.1484,2.156,2.1522,2.1282,2.1366,2.156,2.156,2.1904,2.2309,2.2309,2.2498,2.2748,2.2998,2.3058,2.3124,2.3405,2.32,2.2799,2.2326,2.1928,2.1529,2.1057,2.0962,2.0819,2.0385,1.9707,1.9004,1.8356,1.8252,1.8093,1.7631,1.7864,1.8015,1.7826,1.7614,1.7426,1.7311,1.682,1.6439,1.6283,1.6472,1.6931,1.7696,1.8713,1.9524,2.0021,2.0741,2.162,2.269,2.2926,2.3422,2.42,2.42,2.42,2.42,2.42,2.42,2.42,2.42,2.42,2.4218,2.4318,2.4463,2.4691,2.5073,2.5421,2.5798,2.6527,2.6898,2.6968,1.6343,1.6937,0.0,1.7812,1.858,1.9234,1.946,2.0169,2.0493,1.9977,2.0231,2.0588,2.0871,2.0903,2.0983,2.1182,2.1198,2.1198,2.1198,2.1198,2.1198,2.1198,2.1198,2.0952,2.0416,2.0044,1.9034,1.7393,1.6496,1.5413,1.4149,1.3826,0.0,1.4193,1.5689,1.6972,1.8043,1.8738,1.9548,2.0419,2.0626,2.0974,2.1366,2.1477,2.1523,2.1569,2.1939,2.2071,2.2011,2.1641,2.1763,2.2071,2.2071,2.2432,2.2854,2.2854,2.2932,2.3095,2.3471,2.3568,2.3668,2.4088,2.3872,2.3439,2.296,2.2435,2.193,2.1458,2.127,2.104,2.0514,2.0188,1.9753,1.9016,1.9217,1.9151,1.8241,1.8562,1.8694,1.8155,1.8098,1.7923,1.7446,1.6915,1.6598,1.6598,1.6598,1.6777,1.721,1.8295,1.9145,1.9677,2.0159,2.1146,2.2679,2.2702,2.3199,2.42,2.42,2.42,2.42,2.42,2.42,2.42,2.42,2.4216,2.4282,2.4481,2.4727,2.5019,2.5562,2.6083,2.6654,2.7682,2.8248,2.8443,1.8124,1.8378,1.8728,1.8987,1.9367,1.9813,2.0381,2.1106,2.1346,2.0693,2.0646,2.0722,2.0879,2.0903,2.0983,2.1182,2.1198,2.1198,2.1198,2.1198,2.1198,2.1198,2.1198,2.0952,2.0416,2.0358,1.9567,1.8027,1.7494,1.6473,1.4994,1.4954,1.5142,1.557,1.6925,1.7704,1.8096,1.9469,2.0198,2.0484,2.1386,2.1788,2.1888,2.2372,2.2561,2.2572,2.261,2.2633,2.2621,2.2575,2.2587,2.2633,2.2633,2.2952,2.333,2.333,2.3677,2.4071,2.4108,2.4131,2.4143,2.4198,2.4154,2.3985,2.3462,2.2963,2.2475,2.1945,2.1499,2.1178,2.1116,2.0687,2.0324,2.024,1.9911,1.9467,1.8894,1.8862,1.8694,1.8155,1.8098,1.7923,1.7446,1.6915,1.6598,1.6598,1.6598,1.6621,1.6673,1.8093,1.9145,1.9677,2.0159,2.1146,2.2679,2.2702,2.3199,2.42,2.42,2.42,2.42,2.42,2.42,2.42,2.42,2.43,2.4492,2.4691,2.5073,2.5579,2.6117,2.6975,2.7967,2.845,2.9089,2.9828,1.9182,1.9796,2.0388,2.0504,2.0965,2.1399,2.164,2.2031,2.2197,2.1944,2.1894,2.1919,2.1965,2.1974,2.2007,2.2093,2.2101,2.2101,2.2101,2.2101,2.2101,2.2101,2.2101,2.1843,2.1306,2.102,2.0282,1.9054,1.8228,1.7301,1.63,1.642,1.6898,1.7641,1.8178,1.8796,1.9496,2.0408,2.0992,2.136,2.2088,2.2375,2.2398,2.2621,2.2702,2.2736,2.3021,2.3115,2.3161,2.3497,2.3385,2.3115,2.3115,2.3471,2.3872,2.3872,2.403,2.42,2.42,2.42,2.42,2.42,2.42,2.4062,2.3522,2.3043,2.2552,2.2006,2.1522,2.1198,2.1198,2.1021,2.0764,2.045,2.0511,2.0205,1.9064,1.9179,1.9061,1.8201,1.8098,1.8031,1.7832,1.7374,1.7077,1.7077,1.6777,1.6742,1.706,1.8237,1.9145,1.9677,2.0159,2.1146,2.2679,2.2702,2.3199,2.42,2.42,2.42,2.42,2.42,2.42,2.4218,2.4454,2.4649,2.4832,2.5365,2.5847,2.6357,2.725,2.7997,2.8704,2.9709,3.0355,3.0826,2.0566,2.1224,2.1783,2.1783,2.217,2.2486,2.2486,2.2722,2.2912,2.2912,2.3038,2.3023,2.2725,2.2702,2.2702,2.2702,2.2702,2.2702,2.2702,2.2702,2.2702,2.2702,2.2702,2.2521,2.214,2.1806,2.1155,2.014,1.9219,1.8407,1.7723,1.7799,1.846,1.9577,1.9575,2.0052,2.0886,2.1404,2.1829,2.2183,2.2708,2.2912,2.2914,2.3072,2.3138,2.3187,2.3517,2.3634,2.3691,2.4065,2.395,2.3634,2.3634,2.3904,2.42,2.42,2.42,2.42,2.42,2.42,2.42,2.42,2.42,2.4108,2.3714,2.3262,2.2711,2.204,2.1522,2.1198,2.1198,2.1198,2.1086,2.0695,2.0952,2.0718,1.9328,1.9455,1.9302,1.8231,1.8098,1.8047,1.7912,1.7588,1.7407,1.7407,1.7054,1.7065,1.7576,1.8433,1.9214,1.9884,2.0385,2.1304,2.2687,2.2843,2.3339,2.42,2.42,2.42,2.42,2.42,2.4264,2.4391,2.4724,2.504,2.5388,2.6204,2.6791,2.731,2.839,2.9098,2.9652,3.0702,3.1284,3.1621,2.2567,2.267,2.267,2.267,2.269,2.2702,2.2702,2.3092,2.3387,2.3387,2.3849,2.3796,2.2814,2.2702,2.2702,2.2702,2.2702,2.2702,2.2702,2.2702,2.2702,2.2702,2.2702,2.2702,2.269,2.2679,2.2193,2.1178,2.0649,1.9966,1.9176,1.8972,1.9699,2.1169,2.117,2.1438,2.1914,2.2452,2.2687,2.2725,2.3198,2.3387,2.3444,2.3973,2.4186,2.4177,2.4198,2.4189,2.4189,2.42,2.4198,2.4189,2.4189,2.4189,2.42,2.42,2.42,2.42,2.42,2.42,2.42,2.42,2.42,2.42,2.4189,2.378,2.3109,2.2109,2.1522,2.1198,2.1198,2.1198,2.1198,2.1198,2.1198,2.0845,1.9834,1.9703,1.9302,1.8231,1.8098,1.7923,1.7446,1.7401,1.7407,1.7407,1.7389,1.7594,1.8063,1.8614,1.9356,2.0358,2.091,2.1684,2.269,2.3161,2.3668,2.42,2.42,2.42,2.42,2.42,2.4418,2.4799,2.4939,2.5411,2.6164,2.7175,2.7906,2.8477,2.9423,3.0271,3.0993,3.1225,3.1676,3.2187,2.2667,2.296,2.3184,2.3184,2.3735,2.42,2.42,2.4639,2.4974,2.4974,2.5121,2.5098,2.4786,2.4131,2.3715,2.3715,2.3715,2.3715,2.3715,2.3715,2.3715,2.3715,2.3715,2.3557,2.3195,2.3184,2.286,2.2216,2.1697,2.1284,2.1052,2.1353,2.1749,2.2235,2.2462,2.2523,2.2487,2.2966,2.3184,2.3221,2.3744,2.395,2.3953,2.4143,2.42,2.42,2.42,2.42,2.4218,2.4363,2.44,2.4496,2.5,2.4714,2.42,2.42,2.42,2.42,2.42,2.42,2.42,2.42,2.42,2.42,2.42,2.3792,2.3224,2.2581,2.2042,2.1678,2.1678,2.1415,2.1198,2.1198,2.1198,2.0845,1.9834,1.9696,1.9302,1.8231,1.8225,1.8244,1.8095,1.8165,1.8377,1.8733,1.8761,1.873,1.8651,1.9149,1.997,2.1105,2.1622,2.2434,2.3585,2.3732,2.4085,2.461,2.4463,2.4336,2.42,2.4336,2.4604,2.4966,2.5508,2.6355,2.7389,2.817,2.8905,2.9636,3.0491,3.0987,3.1257,3.1739,3.2037,3.22,2.3442,2.3758,2.4035,2.4233,2.4618,2.4903,2.4903,2.5029,2.5142,2.5142,2.5142,2.5142,2.5142,2.4579,2.4269,2.4453,2.4303,2.42,2.42,2.42,2.42,2.42,2.42,2.4042,2.3712,2.3703,2.3555,2.3254,2.2679,2.2392,2.2392,2.2603,2.2898,2.3254,2.3274,2.3263,2.3279,2.3583,2.3703,2.3726,2.4074,2.42,2.4218,2.4282,2.4318,2.4318,2.44,2.446,2.4521,2.4647,2.4739,2.4879,2.5345,2.5088,2.4647,2.4821,2.4881,2.4816,2.454,2.4455,2.443,2.4235,2.42,2.42,2.42,2.3792,2.3316,2.3021,2.2559,2.214,2.1937,2.1663,2.1412,2.1224,2.1198,2.0845,1.9834,1.974,1.9385,1.834,1.8374,1.8552,1.8763,1.8857,1.9116,1.9665,1.9693,1.9697,1.9651,1.9973,2.0683,2.1842,2.2327,2.3023,2.3993,2.4196,2.4466,2.4799,2.4673,2.4571,2.4512,2.4712,2.5189,2.59,2.6503,2.7484,2.8669,2.94,3.0032,3.0623,3.1346,3.1635,3.1676,3.2065,3.22,3.22,2.4719,2.488,2.5017,2.5511,2.5203,2.4903,2.4903,2.4568,2.4303,2.4303,2.4303,2.4303,2.4303,2.4269,2.443,2.4859,2.4467,2.42,2.42,2.42,2.42,2.42,2.42,2.42,2.42,2.42,2.4204,2.4196,2.3577,2.3266,2.3266,2.2945,2.3306,2.4187,2.3675,2.3726,2.42,2.42,2.42,2.42,2.4218,2.4236,2.4264,2.4463,2.4544,2.4571,2.4772,2.4927,2.5031,2.5061,2.5194,2.5365,2.5422,2.5431,2.5499,2.585,2.5974,2.5826,2.5134,2.4954,2.4864,2.437,2.4212,2.42,2.42,2.3806,2.3465,2.3465,2.3078,2.259,2.2048,2.1925,2.1758,2.1282,2.1206,2.088,1.9913,1.9878,1.9609,1.8636,1.8644,1.892,1.9425,1.9479,1.9717,2.0231,2.0328,2.055,2.1023,2.1081,2.1553,2.2535,2.3028,2.3542,2.4078,2.4593,2.4861,2.4861,2.4861,2.4918,2.5052,2.5256,2.6077,2.7354,2.7788,2.8682,2.9938,3.0707,3.1167,3.1418,3.1983,3.22,3.22,3.22,3.22,3.22,2.4847,2.4604,2.4407,2.4533,2.4742,2.4903,2.4903,2.5155,2.5339,2.5339,2.5339,2.5339,2.5339,2.4983,2.4776,2.4882,2.4467,2.42,2.42,2.42,2.42,2.42,2.42,2.42,2.42,2.42,2.42,2.4203,2.4037,2.3959,2.3959,2.388,2.397,2.4182,2.4076,2.4085,2.42,2.42,2.42,2.4218,2.4363,2.452,2.467,2.4826,2.4984,2.5129,2.5164,2.5306,2.5483,2.5644,2.5816,2.6078,2.6592,2.6742,2.6584,2.5712,2.5657,2.5778,2.5442,2.5538,2.558,2.4894,2.4455,2.42,2.42,2.4108,2.4007,2.4007,2.3597,2.3092,2.2593,2.2183,2.1758,2.1282,2.1289,2.1132,2.0544,2.058,2.0439,1.9846,1.9887,2.002,2.0151,2.0261,2.0538,2.1079,2.1506,2.1949,2.2476,2.2891,2.3161,2.3263,2.3773,2.4353,2.4988,2.5273,2.5407,2.5407,2.5407,2.5421,2.5471,2.5774,2.659,2.7797,2.8291,2.9357,3.0743,3.1095,3.1531,3.1997,3.2132,3.22,3.22,3.22,3.22,3.22,2.4903,2.4696,2.4602,2.4834,2.4891,2.4903,2.4903,2.4971,2.5006,2.5006,2.5006,2.5006,2.5006,2.4742,2.4579,2.4579,2.4349,2.42,2.42,2.42,2.42,2.42,2.42,2.42,2.42,2.42,2.42,2.42,2.42,2.42,2.42,2.42,2.42,2.42,2.42,2.42,2.4209,2.43,2.4345,2.4402,2.464,2.4844,2.5052,2.5303,2.5541,2.5725,2.5774,2.5934,2.612,2.6237,2.6401,2.6631,2.6982,2.7109,2.6968,2.6277,2.6287,2.6437,2.5992,2.6072,2.6169,2.5659,2.5189,2.482,2.4719,2.4507,2.4309,2.4218,2.3973,2.3608,2.3112,2.2607,2.2136,2.1716,2.1515,2.1261,2.0855,2.0914,2.0823,2.0347,2.0403,2.0586,2.0825,2.1136,2.1548,2.2097,2.2634,2.3063,2.3352,2.3849,2.4067,2.3954,2.4241,2.4722,2.5435,2.5737,2.5912,2.5969,2.606,2.6155,2.6267,2.6877,2.7734,2.8817,2.9468,3.0444,3.1564,3.1676,3.1902,3.22,3.22,3.22,3.22,3.22,3.22,3.22,2.4903,2.4836,2.4937,2.5396,2.5098,2.479,2.479,2.4464,2.42,2.42,2.42,2.42,2.42,2.42,2.42,2.42,2.42,2.42,2.42,2.42,2.42,2.42,2.42,2.42,2.42,2.42,2.42,2.42,2.42,2.42,2.42,2.42,2.42,2.42,2.4236,2.4273,2.43,2.4469,2.4607,2.4729,2.5001,2.5247,2.5479,2.5872,2.615,2.6349,2.6541,2.6742,2.6934,2.7019,2.7178,2.7357,2.7357,2.7357,2.7357,2.7357,2.7417,2.7342,2.6629,2.6495,2.6533,2.6425,2.6021,2.5627,2.5461,2.5057,2.4637,2.4363,2.4298,2.413,2.3587,2.3095,2.2656,2.2299,2.1812,2.1389,2.1132,2.1214,2.1188,2.09,2.0937,2.1198,2.1735,2.2197,2.2634,2.3087,2.3642,2.3948,2.3948,2.4421,2.4707,2.4707,2.4673,2.5023,2.5763,2.6233,2.6535,2.6716,2.6968,2.7199,2.7412,2.8247,2.9108,3.0023,3.0738,3.1487,3.22,3.22,3.22,3.22,3.22,3.22,3.22,3.22,3.22,3.22,2.4903,2.4579,2.4326,2.4418,2.4361,2.4315,2.4315,2.4246,2.42,2.42,2.42,2.42,2.42,2.42,2.42,2.42,2.42,2.42,2.42,2.42,2.42,2.42,2.42,2.42,2.42,2.42,2.42,2.42,2.42,2.42,2.42,2.42,2.42,2.4209,2.4441,2.4594,2.4709,2.4743,2.4918,2.5206,2.5481,2.5779,2.6103,2.644,2.6701,2.6948,2.748,2.7759,2.7962,2.8475,2.8776,2.8943,2.8943,2.8943,2.8943,2.8943,2.8489,2.7855,2.7233,2.6712,2.6411,2.672,2.6407,2.6014,2.5987,2.5817,2.553,2.4986,2.4793,2.4545,2.4015,2.3479,2.2983,2.2528,2.2095,2.1858,2.1973,2.2115,2.2402,2.295,2.2897,2.3017,2.3539,2.357,2.3589,2.3665,2.4273,2.4643,2.4643,2.5308,2.5679,2.5679,2.5519,2.5782,2.6517,2.7265,2.779,2.8101,2.8643,2.9,2.921,2.9463,3.0032,3.0828,3.1126,3.1608,3.22,3.22,3.22,3.22,3.22,3.22,3.22,3.22,3.22,3.22,2.457,2.4349,2.42,2.42,2.42,2.42,2.42,2.42,2.42,2.42,2.42,2.42,2.42,2.42,2.42,2.42,2.42,2.4313,2.4568,2.4338,2.4315,2.4568,2.4333,2.4449,2.4994,2.5015,2.5015,2.5015,2.5015,2.5015,2.4994,2.4717,2.4793,2.5168,2.5142,2.5404,2.59,2.6187,2.6529,2.6876,2.7087,2.7167,2.7237,2.7743,2.8057,2.8274,2.855,2.8685,2.8786,2.9077,2.923,2.9292,2.9292,2.9292,2.9292,2.9292,2.8725,2.7988,2.7494,2.7167,2.702,2.74,2.7084,2.666,2.6561,2.6204,2.5785,2.5395,2.5271,2.5158,2.4915,2.4421,2.4031,2.3928,2.3164,2.2709,2.2975,2.3088,2.3306,2.3723,2.3882,2.4049,2.43,2.443,2.4505,2.4505,2.5142,2.5548,2.5548,2.6057,2.6332,2.6332,2.6241,2.6604,2.7447,2.8045,2.8625,2.9213,2.9551,2.9785,2.989,3.0381,3.0809,3.1172,3.1599,3.1942,3.22,3.22,3.22,3.22,3.22,3.22,3.22,3.22,3.22,3.22,2.4269,2.42,2.42,2.42,2.42,2.42,2.42,2.42,2.42,2.42,2.4292,2.4388,2.4445,2.4503,2.4563,2.4607,2.4581,2.4696,2.5063,2.4751,2.4677,2.4954,2.4767,2.503,2.5796,2.5737,2.5706,2.5706,2.5706,2.5706,2.5685,2.5338,2.5482,2.607,2.6023,2.6382,2.7069,2.769,2.8086,2.8327,2.8535,2.8465,2.8293,2.8942,2.9225,2.9318,2.944,2.9492,2.9506,2.9645,2.9706,2.9706,2.9706,2.9706,2.9706,2.9706,2.9164,2.8433,2.7812,2.7639,2.7696,2.7897,2.7646,2.7305,2.7138,2.6671,2.6203,2.5971,2.5894,2.5868,2.5921,2.5487,2.5164,2.5269,2.4357,2.3752,2.4045,2.4139,2.4291,2.4586,2.4864,2.5066,2.5159,2.5344,2.5453,2.5411,2.6013,2.6397,2.6397,2.6705,2.6901,2.6952,2.6909,2.734,2.8286,2.8775,2.9434,3.0239,3.0464,3.0584,3.0606,3.1234,3.1513,3.154,3.1997,3.22,3.22,3.22,3.22,3.22,3.22,3.22,3.22,3.22,3.22,3.22,2.4209,2.42,2.42,2.42,2.42,2.42,2.42,2.42,2.42,2.42,2.4579,2.4931,2.5199,2.5437,2.5656,2.5853,2.5704,2.5593,2.5649,2.5614,2.5461,2.519,2.5741,2.6089,2.6167,2.587,2.5706,2.5706,2.5706,2.5706,2.5694,2.5848,2.6049,2.6304,2.6915,2.7379,2.7773,2.8629,2.8862,2.8694,2.9081,2.9118,2.899,2.9534,2.9565,2.9371,2.9857,3.0035,3.0123,3.0695,3.0865,3.0865,3.0865,3.0865,3.0865,3.0865,3.0432,2.9681,2.8398,2.8062,2.8018,2.7861,2.7792,2.7744,2.7736,2.7557,2.7283,2.6956,2.6756,2.6679,2.6863,2.6461,2.6045,2.5871,2.5352,2.503,2.5246,2.5277,2.5581,2.6397,2.6354,2.6408,2.6785,2.6676,2.6497,2.6321,2.6701,2.6947,2.6947,2.7264,2.7523,2.7709,2.754,2.7898,2.8824,2.9611,3.04,3.1206,3.1766,3.2046,3.2046,3.2119,3.2132,3.2132,3.2173,3.22,3.22,3.22,3.22,3.22,3.22,3.22,3.22,3.22,3.22,3.22,2.42,2.42,2.42,2.42,2.42,2.42,2.42,2.42,2.4358,2.4819,2.5154,2.5555,2.6108,2.637,2.6486,2.6437,2.6363,2.6399,2.656,2.6574,2.6344,2.5833,2.6612,2.7064,2.7064,2.7069,2.7065,2.7065,2.7065,2.7065,2.7054,2.6931,2.7147,2.768,2.802,2.8559,2.9259,2.9855,3.0103,3.014,3.0285,3.0313,3.0259,3.0472,3.0468,3.0378,3.0594,3.066,3.0699,3.0917,3.1005,3.1005,3.1005,3.1005,3.1005,3.1005,3.0839,3.0471,2.9585,2.9094,2.8742,2.8283,2.8174,2.8075,2.7699,2.7553,2.7455,2.7336,2.7356,2.7415,2.7477,2.7327,2.7175,2.7088,2.6517,2.6158,2.631,2.6374,2.6548,2.6964,2.7162,2.7333,2.7476,2.7314,2.7163,2.7095,2.7335,2.7493,2.7493,2.7817,2.8262,2.8835,2.8782,2.903,2.9645,3.0445,3.1193,3.1861,3.2092,3.22,3.22,3.22,3.22,3.22,3.22,3.22,3.22,3.22,3.22,3.22,3.22,3.22,3.22,3.22,3.22,3.22,2.42,2.42,2.42,2.42,2.42,2.4218,2.4282,2.4291,2.4585,2.5379,2.5792,2.6318,2.7139,2.7498,2.7605,2.7471,2.7404,2.7404,2.753,2.7534,2.7335,2.6852,2.7509,2.7883,2.7879,2.8022,2.8092,2.8092,2.8092,2.8092,2.808,2.7919,2.8179,2.8794,2.9029,2.9568,3.0318,3.0831,3.1128,3.1251,3.1325,3.1348,3.1368,3.1628,3.1564,3.1358,3.15,3.1532,3.1532,3.1532,3.1532,3.1532,3.1532,3.1449,3.1342,3.1374,3.1243,3.0988,3.0503,3.0156,2.9735,2.8891,2.8678,2.8512,2.792,2.7823,2.7842,2.7709,2.783,2.7973,2.8044,2.8052,2.8023,2.7965,2.7536,2.7222,2.7327,2.7375,2.7464,2.7629,2.7881,2.8028,2.7957,2.7825,2.7731,2.7694,2.7863,2.7982,2.8052,2.8442,2.8928,2.9472,2.9865,3.0199,3.0467,3.1022,3.1594,3.22,3.22,3.22,3.22,3.22,3.22,3.22,3.22,3.22,3.22,3.22,3.22,3.22,3.22,3.22,3.22,3.22,3.22,3.22,2.42,2.42,2.42,2.42,2.42,2.4273,2.4463,2.4511,2.4839,2.5793,2.6488,2.729,2.8296,2.8832,2.9104,2.9111,2.8922,2.8714,2.852,2.851,2.8431,2.8219,2.8401,2.8513,2.851,2.851,2.851,2.851,2.851,2.851,2.851,2.8727,2.903,2.9428,2.9911,3.034,3.0759,3.1499,3.1801,3.1817,3.2022,3.2099,3.2187,3.2985,3.2797,3.2164,3.2564,3.2695,3.2695,3.2695,3.2695,3.2695,3.2695,3.243,3.2124,3.2189,3.1789,3.1276,3.1061,3.1142,3.0977,2.9633,2.9314,2.9157,2.8555,2.8575,2.8609,2.8209,2.8221,2.8365,2.8563,2.8595,2.8525,2.8328,2.8295,2.8295,2.8295,2.8295,2.8382,2.8571,2.8595,2.8517,2.8311,2.8295,2.8243,2.8112,2.8224,2.8403,2.86,2.9173,2.9507,2.9507,3.068,3.1309,3.1309,3.1309,3.1608,3.22,3.22,3.22,3.22,3.22,3.22,3.22,3.22,3.22,3.22,3.22,3.22,3.22,3.22,3.22,3.22,3.22,3.22,3.22,2.42,2.42,2.4246,2.4381,2.4538,2.467,2.4823,2.4966,2.5529,2.6852,2.7321,2.8058,2.9431,2.9843,2.9963,2.9802,2.9757,2.9606,2.9357,2.9083,2.9015,2.9236,2.9307,2.9285,2.9138,2.9272,2.9338,2.9338,2.9338,2.9338,2.936,2.9981,3.0346,3.0486,3.1338,3.1604,3.1427,3.1843,3.2172,3.244,3.2499,3.2518,3.2541,3.2797,3.2919,3.2952,3.3087,3.2942,3.2695,3.2695,3.2695,3.2715,3.2873,3.2964,3.3016,3.3039,3.2604,3.2133,3.2076,3.1794,3.128,3.0313,3.0178,3.0148,2.9586,2.9575,2.9651,2.9528,2.9304,2.9156,2.9219,2.8888,2.8579,2.8517,2.8509,2.8509,2.8509,2.8509,2.8525,2.8587,2.8595,2.8571,2.8522,2.8509,2.8484,2.8449,2.8877,2.9164,2.9227,2.9803,3.0323,3.0753,3.1106,3.1499,3.1929,3.1929,3.2024,3.22,3.22,3.22,3.22,3.22,3.22,3.22,3.22,3.22,3.22,3.22,3.22,3.22,3.22,3.22,3.22,3.22,3.22,3.22,2.4436,2.4478,2.4548,2.4685,2.4927,2.5248,2.5612,2.5844,2.6502,2.8011,2.8392,2.8986,3.0193,3.0524,3.0549,3.0352,3.0267,3.0302,3.0479,3.0136,3.028,3.1086,3.0898,3.0621,3.0319,3.0424,3.0535,3.0654,3.0654,3.0654,3.0667,3.1158,3.1423,3.1505,3.1926,3.202,3.188,3.2196,3.2481,3.2741,3.3184,3.337,3.3376,3.3376,3.3241,3.3087,3.3242,3.3041,3.2695,3.2695,3.2912,3.3208,3.3403,3.3644,3.3844,3.3844,3.3429,3.2951,3.2888,3.2471,3.1964,3.1471,3.1204,3.0912,3.0348,3.0346,3.0384,3.0151,2.9974,2.9857,2.9857,2.9355,2.8956,2.8956,2.8758,2.8595,2.8595,2.8595,2.8595,2.8595,2.8595,2.8595,2.8595,2.8595,2.8703,2.8942,2.9504,2.9857,2.9857,3.0432,3.092,3.1296,3.1526,3.1834,3.22,3.22,3.22,3.22,3.22,3.22,3.22,3.22,3.22,3.22,3.22,3.22,3.22,3.22,3.22,3.22,3.22,3.22,3.22,3.22,3.22,3.22,2.4843,2.496,2.5073,2.5147,2.5481,2.6003,2.6741,2.7015,2.7684,2.9145,2.9508,2.9899,3.0643,3.0883,3.093,3.0736,3.06,3.0859,3.1662,3.1509,3.1969,3.3244,3.2844,3.2375,3.1954,3.1808,3.1891,3.22,3.223,3.222,3.2175,3.2195,3.232,3.2496,3.2076,3.2041,3.2324,3.2701,3.2844,3.294,3.3987,3.4397,3.4381,3.4176,3.3448,3.2597,3.2952,3.2919,3.2695,3.2715,3.3231,3.3879,3.4077,3.4286,3.4468,3.4512,3.4148,3.369,3.3563,3.3225,3.2901,3.2901,3.2308,3.1584,3.0966,3.0985,3.0953,3.0406,3.0388,3.0478,3.0478,2.9993,2.9553,2.9507,2.9037,2.8663,2.8608,2.8595,2.8595,2.8595,2.8595,2.8622,2.8676,2.8731,2.8988,2.954,3.0142,3.0478,3.0478,3.1042,3.1377,3.1377,3.1915,3.22,3.22,3.22,3.22,3.22,3.22,3.22,3.22,3.22,3.22,3.22,3.22,3.22,3.22,3.22,3.22,3.22,3.22,3.22,3.22,3.22,3.22,3.22,2.5191,2.5342,2.5657,2.6227,2.6664,2.7183,2.7929,2.8198,2.8663,2.9571,2.9735,3.0066,3.0846,3.0968,3.0977,3.0939,3.1277,3.1584,3.1769,3.246,3.2977,3.3294,3.3726,3.3913,3.3814,3.2632,3.2356,3.3034,3.3258,3.3169,3.2811,3.2978,3.3178,3.3419,3.3307,3.3506,3.3916,3.3983,3.4037,3.405,3.4293,3.4403,3.4206,3.2414,3.1574,3.1384,3.1472,3.202,3.2715,3.2883,3.3159,3.3471,3.3674,3.3878,3.4124,3.4608,3.4323,3.3949,3.4379,3.4088,3.3661,3.3661,3.3205,3.2619,3.2014,3.1906,3.1906,3.1771,3.1405,3.1097,3.1097,3.0608,3.0052,2.958,2.9399,2.9132,2.8663,2.8595,2.8595,2.8595,2.8595,2.8785,2.9255,2.9726,3.0057,3.0201,3.0758,3.1097,3.1097,3.1676,3.1997,3.1997,3.2132,3.22,3.22,3.22,3.22,3.22,3.22,3.22,3.22,3.22,3.22,3.22,3.22,3.22,3.22,3.22,3.22,3.22,3.22,3.22,3.22,3.22,3.22,3.22,2.5818,2.6223,2.668,2.706,2.7678,2.8335,2.8975,2.9242,2.9603,3.0284,3.0368,3.0535,3.0947,3.1005,3.11,3.1356,3.1895,3.2352,3.2639,3.3148,3.3558,3.3816,3.4047,3.4132,3.4079,3.3284,3.3179,3.3827,3.3621,3.3507,3.353,3.3628,3.3693,3.3698,3.3375,3.3662,3.4329,3.3241,3.2775,3.2775,3.2775,3.2781,3.2647,3.1442,3.1126,3.1295,3.1295,3.1676,3.2186,3.2301,3.2655,3.3074,3.3183,3.3524,3.3952,3.4287,3.4151,3.4033,3.4639,3.4355,3.3966,3.426,3.3715,3.302,3.2698,3.2413,3.22,3.22,3.1956,3.1739,3.1739,3.1241,3.0739,3.0408,3.0123,2.983,2.9496,2.9455,2.9347,2.9056,2.9287,2.9577,2.9898,3.0481,3.0839,3.0839,3.1391,3.1739,3.1739,3.2024,3.22,3.22,3.22,3.22,3.22,3.22,3.22,3.22,3.22,3.22,3.22,3.22,3.22,3.22,3.22,3.22,3.22,3.22,3.22,3.22,3.22,3.2241,3.23,3.23,3.23,3.23,2.6639,2.7212,2.7742,2.7933,2.8653,2.9372,2.9916,3.0148,3.0432,3.093,3.1005,3.1022,3.1127,3.1269,3.1546,3.2031,3.2601,3.3122,3.3515,3.3657,3.3856,3.42,3.3953,3.3747,3.3634,3.3528,3.3702,3.4143,3.3585,3.3592,3.4102,3.402,3.3999,3.3993,3.3042,3.3136,3.3898,3.2018,3.121,3.121,3.121,3.1453,3.1783,3.1577,3.1719,3.2043,3.2043,3.1989,3.1911,3.1949,3.24,3.2963,3.2978,3.3343,3.3772,3.3871,3.384,3.389,3.4487,3.4287,3.402,3.4517,3.3865,3.3129,3.3214,3.2703,3.22,3.22,3.22,3.22,3.22,3.1793,3.1418,3.1323,3.088,3.0518,3.041,3.0396,3.0215,2.9716,3.0196,3.0545,3.0545,3.1097,3.1445,3.1445,3.1915,3.22,3.22,3.22,3.22,3.22,3.22,3.22,3.22,3.22,3.22,3.22,3.22,3.22,3.22,3.22,3.22,3.22,3.22,3.2205,3.2232,3.2232,3.2268,3.2341,3.2341,3.2435,3.2552,3.2552,3.2534,3.2516,2.7596,2.788,2.8341,2.9331,2.9754,3.0147,3.0749,3.0859,3.0904,3.0983,3.1005,3.1169,3.1637,3.2318,3.2852,3.3162,3.3684,3.3811,3.3369,3.3837,3.392,3.3466,3.3402,3.3372,3.3349,3.2836,3.2744,3.3093,3.3287,3.3634,3.4097,3.3677,3.4187,3.5338,3.3208,3.234,3.2479,3.2163,3.2045,3.2045,3.2045,3.325,3.4948,3.3918,3.3641,3.3852,3.3852,3.3549,3.3178,3.3352,3.3492,3.3607,3.3709,3.3497,3.33,3.3758,3.357,3.3327,3.3876,3.3952,3.3925,3.3993,3.3566,3.3228,3.3696,3.2969,3.22,3.22,3.22,3.22,3.22,3.2132,3.1915,3.1377,3.1228,3.1002,3.0464,3.0396,3.0369,3.0288,3.0812,3.1178,3.1178,3.1725,3.2078,3.2078,3.2146,3.22,3.22,3.22,3.22,3.22,3.22,3.22,3.22,3.22,3.22,3.22,3.22,3.22,3.22,3.22,3.22,3.22,3.22,3.2277,3.2363,3.2363,3.257,3.289,3.289,3.3005,3.3182,3.3182,3.3067,3.2926,2.8131,2.8746,2.9383,2.9877,3.0325,3.0699,3.0957,3.1005,3.1113,3.1408,3.1575,3.1874,3.242,3.2891,3.307,3.2861,3.3371,3.3577,3.3321,3.3551,3.3581,3.3305,3.3075,3.2955,3.2955,3.2511,3.2351,3.2501,3.2505,3.2694,3.3036,3.2821,3.3092,3.3689,3.2659,3.2553,3.3154,3.3154,3.316,3.3144,3.3144,3.376,3.4719,3.4855,3.4683,3.4339,3.4115,3.3891,3.3686,3.3773,3.3802,3.3821,3.3879,3.3741,3.3588,3.3826,3.3516,3.3228,3.3745,3.3673,3.3539,3.3826,3.3489,3.316,3.3399,3.2802,3.2377,3.3014,3.3154,3.3154,3.3154,3.3154,3.3059,3.2801,3.2751,3.2544,3.1988,3.1915,3.1779,3.1445,3.1336,3.1431,3.1779,3.2037,3.22,3.22,3.22,3.22,3.22,3.22,3.22,3.22,3.22,3.22,3.22,3.2264,3.2304,3.2304,3.2435,3.2381,3.22,3.2282,3.2304,3.2313,3.2547,3.2682,3.2757,3.2979,3.3173,3.3339,3.3421,3.3563,3.3759,3.3874,3.3782,3.3612]}]]